<?xml version="1.0" encoding="UTF-8" standalone="no" ?>
<gpx xmlns="http://www.topografix.com/GPX/1/1" xmlns:xsi="http://www.w3.org/2001/XMLSchema-instance" xsi:schemaLocation="http://www.topografix.com/GPX/1/1 http://www.topografix.com/GPX/1/1/gpx.xsd" version="1.1" creator="VisuGPX - https://www.visugpx.com">
  <metadata>
    <name>Col Petit St Bernard</name>
    <desc><![CDATA[Départ de Landry]]></desc>
  </metadata>
  <wpt lat="38.85555" lon="-94.79902">
    <ele>325.04907226562</ele>
    <name><![CDATA[GARMIN]]></name>
    <type><![CDATA[user]]></type>
  </wpt>
  <wpt lat="50.98288" lon="-1.4639">
    <ele>35.934692382812</ele>
    <name><![CDATA[GRMEUR]]></name>
    <type><![CDATA[user]]></type>
  </wpt>
  <wpt lat="25.06178" lon="121.64027">
    <ele>38.09765625</ele>
    <name><![CDATA[GRMTWN]]></name>
    <type><![CDATA[user]]></type>
  </wpt>
  <trk>
    <name><![CDATA[3]]></name>
    <trkseg>
      <trkpt lat="45.57624" lon="6.73411">
        <ele>736.98779296875</ele>
        <time>2016-05-28T07:12:24Z</time>
      </trkpt>
      <trkpt lat="45.57624" lon="6.73411">
        <ele>736.98779296875</ele>
        <time>2016-05-28T07:12:25Z</time>
      </trkpt>
      <trkpt lat="45.57624" lon="6.73411">
        <ele>736.98779296875</ele>
        <time>2016-05-28T07:12:26Z</time>
      </trkpt>
      <trkpt lat="45.57622" lon="6.73414">
        <ele>736.98779296875</ele>
        <time>2016-05-28T07:12:28Z</time>
      </trkpt>
      <trkpt lat="45.5762" lon="6.73415">
        <ele>737.46850585938</ele>
        <time>2016-05-28T07:12:29Z</time>
      </trkpt>
      <trkpt lat="45.57616" lon="6.73424">
        <ele>737.94921875</ele>
        <time>2016-05-28T07:12:33Z</time>
      </trkpt>
      <trkpt lat="45.57617" lon="6.73441">
        <ele>737.94921875</ele>
        <time>2016-05-28T07:12:39Z</time>
      </trkpt>
      <trkpt lat="45.57618" lon="6.73446">
        <ele>737.46850585938</ele>
        <time>2016-05-28T07:12:41Z</time>
      </trkpt>
      <trkpt lat="45.57623" lon="6.73453">
        <ele>737.46850585938</ele>
        <time>2016-05-28T07:12:45Z</time>
      </trkpt>
      <trkpt lat="45.57629" lon="6.73461">
        <ele>736.98779296875</ele>
        <time>2016-05-28T07:12:51Z</time>
      </trkpt>
      <trkpt lat="45.57638" lon="6.73459">
        <ele>736.50732421875</ele>
        <time>2016-05-28T07:12:56Z</time>
      </trkpt>
      <trkpt lat="45.57649" lon="6.73453">
        <ele>735.5458984375</ele>
        <time>2016-05-28T07:12:59Z</time>
      </trkpt>
      <trkpt lat="45.57656" lon="6.7345">
        <ele>734.10400390625</ele>
        <time>2016-05-28T07:13:01Z</time>
      </trkpt>
      <trkpt lat="45.57662" lon="6.73459">
        <ele>734.58471679688</ele>
        <time>2016-05-28T07:13:06Z</time>
      </trkpt>
      <trkpt lat="45.57662" lon="6.73467">
        <ele>734.58471679688</ele>
        <time>2016-05-28T07:13:08Z</time>
      </trkpt>
      <trkpt lat="45.57663" lon="6.73477">
        <ele>735.0654296875</ele>
        <time>2016-05-28T07:13:10Z</time>
      </trkpt>
      <trkpt lat="45.57675" lon="6.7351">
        <ele>736.50732421875</ele>
        <time>2016-05-28T07:13:16Z</time>
      </trkpt>
      <trkpt lat="45.57684" lon="6.73533">
        <ele>736.98779296875</ele>
        <time>2016-05-28T07:13:20Z</time>
      </trkpt>
      <trkpt lat="45.57687" lon="6.73539">
        <ele>736.50732421875</ele>
        <time>2016-05-28T07:13:21Z</time>
      </trkpt>
      <trkpt lat="45.57691" lon="6.73552">
        <ele>736.98779296875</ele>
        <time>2016-05-28T07:13:23Z</time>
      </trkpt>
      <trkpt lat="45.57699" lon="6.73585">
        <ele>736.50732421875</ele>
        <time>2016-05-28T07:13:28Z</time>
      </trkpt>
      <trkpt lat="45.57699" lon="6.73618">
        <ele>736.98779296875</ele>
        <time>2016-05-28T07:13:33Z</time>
      </trkpt>
      <trkpt lat="45.57695" lon="6.73667">
        <ele>736.50732421875</ele>
        <time>2016-05-28T07:13:40Z</time>
      </trkpt>
      <trkpt lat="45.57694" lon="6.73674">
        <ele>737.46850585938</ele>
        <time>2016-05-28T07:13:41Z</time>
      </trkpt>
      <trkpt lat="45.57692" lon="6.73688">
        <ele>736.98779296875</ele>
        <time>2016-05-28T07:13:43Z</time>
      </trkpt>
      <trkpt lat="45.57681" lon="6.73708">
        <ele>737.94921875</ele>
        <time>2016-05-28T07:13:47Z</time>
      </trkpt>
      <trkpt lat="45.57673" lon="6.73713">
        <ele>737.94921875</ele>
        <time>2016-05-28T07:13:49Z</time>
      </trkpt>
      <trkpt lat="45.57671" lon="6.73731">
        <ele>738.42993164062</ele>
        <time>2016-05-28T07:13:53Z</time>
      </trkpt>
      <trkpt lat="45.57673" lon="6.73754">
        <ele>738.42993164062</ele>
        <time>2016-05-28T07:13:58Z</time>
      </trkpt>
      <trkpt lat="45.57659" lon="6.73802">
        <ele>738.42993164062</ele>
        <time>2016-05-28T07:14:05Z</time>
      </trkpt>
      <trkpt lat="45.57652" lon="6.73831">
        <ele>738.42993164062</ele>
        <time>2016-05-28T07:14:09Z</time>
      </trkpt>
      <trkpt lat="45.57649" lon="6.73899">
        <ele>736.50732421875</ele>
        <time>2016-05-28T07:14:18Z</time>
      </trkpt>
      <trkpt lat="45.5765" lon="6.73953">
        <ele>737.46850585938</ele>
        <time>2016-05-28T07:14:25Z</time>
      </trkpt>
      <trkpt lat="45.57662" lon="6.74">
        <ele>738.91064453125</ele>
        <time>2016-05-28T07:14:32Z</time>
      </trkpt>
      <trkpt lat="45.57667" lon="6.74018">
        <ele>738.91064453125</ele>
        <time>2016-05-28T07:14:35Z</time>
      </trkpt>
      <trkpt lat="45.57671" lon="6.74035">
        <ele>739.87182617188</ele>
        <time>2016-05-28T07:14:38Z</time>
      </trkpt>
      <trkpt lat="45.57677" lon="6.74061">
        <ele>740.8330078125</ele>
        <time>2016-05-28T07:14:43Z</time>
      </trkpt>
      <trkpt lat="45.57687" lon="6.7408">
        <ele>740.8330078125</ele>
        <time>2016-05-28T07:14:47Z</time>
      </trkpt>
      <trkpt lat="45.57697" lon="6.74094">
        <ele>741.79443359375</ele>
        <time>2016-05-28T07:14:50Z</time>
      </trkpt>
      <trkpt lat="45.57715" lon="6.74111">
        <ele>742.755859375</ele>
        <time>2016-05-28T07:14:55Z</time>
      </trkpt>
      <trkpt lat="45.57741" lon="6.74119">
        <ele>743.71704101562</ele>
        <time>2016-05-28T07:15:01Z</time>
      </trkpt>
      <trkpt lat="45.57766" lon="6.74129">
        <ele>746.60107421875</ele>
        <time>2016-05-28T07:15:07Z</time>
      </trkpt>
      <trkpt lat="45.57769" lon="6.74131">
        <ele>746.60107421875</ele>
        <time>2016-05-28T07:15:08Z</time>
      </trkpt>
      <trkpt lat="45.57788" lon="6.74142">
        <ele>745.15893554688</ele>
        <time>2016-05-28T07:15:12Z</time>
      </trkpt>
      <trkpt lat="45.578" lon="6.74149">
        <ele>743.71704101562</ele>
        <time>2016-05-28T07:15:14Z</time>
      </trkpt>
      <trkpt lat="45.57833" lon="6.74147">
        <ele>742.27514648438</ele>
        <time>2016-05-28T07:15:18Z</time>
      </trkpt>
      <trkpt lat="45.57885" lon="6.74125">
        <ele>742.755859375</ele>
        <time>2016-05-28T07:15:25Z</time>
      </trkpt>
      <trkpt lat="45.57903" lon="6.74118">
        <ele>742.27514648438</ele>
        <time>2016-05-28T07:15:28Z</time>
      </trkpt>
      <trkpt lat="45.57924" lon="6.74103">
        <ele>742.755859375</ele>
        <time>2016-05-28T07:15:32Z</time>
      </trkpt>
      <trkpt lat="45.57936" lon="6.74099">
        <ele>742.27514648438</ele>
        <time>2016-05-28T07:15:34Z</time>
      </trkpt>
      <trkpt lat="45.57983" lon="6.74098">
        <ele>743.236328125</ele>
        <time>2016-05-28T07:15:42Z</time>
      </trkpt>
      <trkpt lat="45.58034" lon="6.74114">
        <ele>744.67822265625</ele>
        <time>2016-05-28T07:15:51Z</time>
      </trkpt>
      <trkpt lat="45.58062" lon="6.74127">
        <ele>745.6396484375</ele>
        <time>2016-05-28T07:15:56Z</time>
      </trkpt>
      <trkpt lat="45.58083" lon="6.74153">
        <ele>744.67822265625</ele>
        <time>2016-05-28T07:16:01Z</time>
      </trkpt>
      <trkpt lat="45.5809" lon="6.74177">
        <ele>745.15893554688</ele>
        <time>2016-05-28T07:16:04Z</time>
      </trkpt>
      <trkpt lat="45.58109" lon="6.74239">
        <ele>745.6396484375</ele>
        <time>2016-05-28T07:16:12Z</time>
      </trkpt>
      <trkpt lat="45.58113" lon="6.74255">
        <ele>746.12036132812</ele>
        <time>2016-05-28T07:16:14Z</time>
      </trkpt>
      <trkpt lat="45.58117" lon="6.74296">
        <ele>745.6396484375</ele>
        <time>2016-05-28T07:16:19Z</time>
      </trkpt>
      <trkpt lat="45.5813" lon="6.74337">
        <ele>746.12036132812</ele>
        <time>2016-05-28T07:16:24Z</time>
      </trkpt>
      <trkpt lat="45.58161" lon="6.74412">
        <ele>745.6396484375</ele>
        <time>2016-05-28T07:16:34Z</time>
      </trkpt>
      <trkpt lat="45.58181" lon="6.74454">
        <ele>746.12036132812</ele>
        <time>2016-05-28T07:16:40Z</time>
      </trkpt>
      <trkpt lat="45.58187" lon="6.74486">
        <ele>745.6396484375</ele>
        <time>2016-05-28T07:16:44Z</time>
      </trkpt>
      <trkpt lat="45.58194" lon="6.74555">
        <ele>746.12036132812</ele>
        <time>2016-05-28T07:16:52Z</time>
      </trkpt>
      <trkpt lat="45.5821" lon="6.746">
        <ele>746.12036132812</ele>
        <time>2016-05-28T07:16:58Z</time>
      </trkpt>
      <trkpt lat="45.58217" lon="6.74632">
        <ele>747.56225585938</ele>
        <time>2016-05-28T07:17:02Z</time>
      </trkpt>
      <trkpt lat="45.58236" lon="6.74671">
        <ele>748.04321289062</ele>
        <time>2016-05-28T07:17:08Z</time>
      </trkpt>
      <trkpt lat="45.58246" lon="6.74681">
        <ele>747.56225585938</ele>
        <time>2016-05-28T07:17:10Z</time>
      </trkpt>
      <trkpt lat="45.58286" lon="6.7472">
        <ele>748.04321289062</ele>
        <time>2016-05-28T07:17:18Z</time>
      </trkpt>
      <trkpt lat="45.58316" lon="6.74747">
        <ele>748.52368164062</ele>
        <time>2016-05-28T07:17:24Z</time>
      </trkpt>
      <trkpt lat="45.58354" lon="6.7477">
        <ele>749.00439453125</ele>
        <time>2016-05-28T07:17:31Z</time>
      </trkpt>
      <trkpt lat="45.58364" lon="6.74777">
        <ele>749.48510742188</ele>
        <time>2016-05-28T07:17:33Z</time>
      </trkpt>
      <trkpt lat="45.58398" lon="6.74786">
        <ele>749.9658203125</ele>
        <time>2016-05-28T07:17:39Z</time>
      </trkpt>
      <trkpt lat="45.58411" lon="6.74787">
        <ele>749.48510742188</ele>
        <time>2016-05-28T07:17:41Z</time>
      </trkpt>
      <trkpt lat="45.58457" lon="6.74797">
        <ele>750.44653320312</ele>
        <time>2016-05-28T07:17:49Z</time>
      </trkpt>
      <trkpt lat="45.58497" lon="6.74809">
        <ele>750.92700195312</ele>
        <time>2016-05-28T07:17:56Z</time>
      </trkpt>
      <trkpt lat="45.58512" lon="6.74829">
        <ele>750.44653320312</ele>
        <time>2016-05-28T07:18:00Z</time>
      </trkpt>
      <trkpt lat="45.58532" lon="6.74845">
        <ele>751.40771484375</ele>
        <time>2016-05-28T07:18:04Z</time>
      </trkpt>
      <trkpt lat="45.58567" lon="6.74858">
        <ele>751.88842773438</ele>
        <time>2016-05-28T07:18:10Z</time>
      </trkpt>
      <trkpt lat="45.58591" lon="6.74883">
        <ele>752.36889648438</ele>
        <time>2016-05-28T07:18:15Z</time>
      </trkpt>
      <trkpt lat="45.5862" lon="6.74897">
        <ele>751.88842773438</ele>
        <time>2016-05-28T07:18:20Z</time>
      </trkpt>
      <trkpt lat="45.58626" lon="6.74898">
        <ele>752.36889648438</ele>
        <time>2016-05-28T07:18:21Z</time>
      </trkpt>
      <trkpt lat="45.58651" lon="6.74901">
        <ele>752.849609375</ele>
        <time>2016-05-28T07:18:25Z</time>
      </trkpt>
      <trkpt lat="45.58693" lon="6.74902">
        <ele>753.33032226562</ele>
        <time>2016-05-28T07:18:32Z</time>
      </trkpt>
      <trkpt lat="45.5873" lon="6.74901">
        <ele>753.33032226562</ele>
        <time>2016-05-28T07:18:38Z</time>
      </trkpt>
      <trkpt lat="45.58742" lon="6.74903">
        <ele>753.81103515625</ele>
        <time>2016-05-28T07:18:40Z</time>
      </trkpt>
      <trkpt lat="45.58754" lon="6.74908">
        <ele>753.33032226562</ele>
        <time>2016-05-28T07:18:42Z</time>
      </trkpt>
      <trkpt lat="45.5879" lon="6.74913">
        <ele>754.77221679688</ele>
        <time>2016-05-28T07:18:48Z</time>
      </trkpt>
      <trkpt lat="45.58833" lon="6.7491">
        <ele>754.77221679688</ele>
        <time>2016-05-28T07:18:55Z</time>
      </trkpt>
      <trkpt lat="45.58869" lon="6.74911">
        <ele>754.77221679688</ele>
        <time>2016-05-28T07:19:01Z</time>
      </trkpt>
      <trkpt lat="45.58886" lon="6.74908">
        <ele>755.73364257812</ele>
        <time>2016-05-28T07:19:04Z</time>
      </trkpt>
      <trkpt lat="45.58921" lon="6.74914">
        <ele>756.21411132812</ele>
        <time>2016-05-28T07:19:10Z</time>
      </trkpt>
      <trkpt lat="45.58933" lon="6.74915">
        <ele>755.73364257812</ele>
        <time>2016-05-28T07:19:12Z</time>
      </trkpt>
      <trkpt lat="45.58966" lon="6.74932">
        <ele>756.69482421875</ele>
        <time>2016-05-28T07:19:18Z</time>
      </trkpt>
      <trkpt lat="45.59003" lon="6.74953">
        <ele>758.13696289062</ele>
        <time>2016-05-28T07:19:25Z</time>
      </trkpt>
      <trkpt lat="45.59009" lon="6.74954">
        <ele>758.61743164062</ele>
        <time>2016-05-28T07:19:26Z</time>
      </trkpt>
      <trkpt lat="45.59032" lon="6.7496">
        <ele>758.61743164062</ele>
        <time>2016-05-28T07:19:30Z</time>
      </trkpt>
      <trkpt lat="45.59053" lon="6.7498">
        <ele>757.17553710938</ele>
        <time>2016-05-28T07:19:34Z</time>
      </trkpt>
      <trkpt lat="45.59081" lon="6.75002">
        <ele>757.65625</ele>
        <time>2016-05-28T07:19:39Z</time>
      </trkpt>
      <trkpt lat="45.59126" lon="6.75006">
        <ele>757.17553710938</ele>
        <time>2016-05-28T07:19:46Z</time>
      </trkpt>
      <trkpt lat="45.59164" lon="6.75013">
        <ele>758.13696289062</ele>
        <time>2016-05-28T07:19:52Z</time>
      </trkpt>
      <trkpt lat="45.59186" lon="6.75032">
        <ele>759.09814453125</ele>
        <time>2016-05-28T07:19:56Z</time>
      </trkpt>
      <trkpt lat="45.5922" lon="6.75072">
        <ele>759.57885742188</ele>
        <time>2016-05-28T07:20:03Z</time>
      </trkpt>
      <trkpt lat="45.59249" lon="6.75108">
        <ele>760.05932617188</ele>
        <time>2016-05-28T07:20:09Z</time>
      </trkpt>
      <trkpt lat="45.59261" lon="6.75129">
        <ele>760.05932617188</ele>
        <time>2016-05-28T07:20:12Z</time>
      </trkpt>
      <trkpt lat="45.59285" lon="6.75153">
        <ele>761.98217773438</ele>
        <time>2016-05-28T07:20:17Z</time>
      </trkpt>
      <trkpt lat="45.59297" lon="6.75157">
        <ele>761.50146484375</ele>
        <time>2016-05-28T07:20:19Z</time>
      </trkpt>
      <trkpt lat="45.59339" lon="6.75174">
        <ele>761.98217773438</ele>
        <time>2016-05-28T07:20:26Z</time>
      </trkpt>
      <trkpt lat="45.59368" lon="6.7519">
        <ele>761.98217773438</ele>
        <time>2016-05-28T07:20:31Z</time>
      </trkpt>
      <trkpt lat="45.59392" lon="6.75195">
        <ele>761.98217773438</ele>
        <time>2016-05-28T07:20:35Z</time>
      </trkpt>
      <trkpt lat="45.59414" lon="6.7521">
        <ele>761.98217773438</ele>
        <time>2016-05-28T07:20:39Z</time>
      </trkpt>
      <trkpt lat="45.59423" lon="6.75224">
        <ele>762.46264648438</ele>
        <time>2016-05-28T07:20:41Z</time>
      </trkpt>
      <trkpt lat="45.59442" lon="6.75262">
        <ele>761.98217773438</ele>
        <time>2016-05-28T07:20:46Z</time>
      </trkpt>
      <trkpt lat="45.59483" lon="6.75307">
        <ele>762.46264648438</ele>
        <time>2016-05-28T07:20:54Z</time>
      </trkpt>
      <trkpt lat="45.59511" lon="6.7534">
        <ele>762.943359375</ele>
        <time>2016-05-28T07:21:00Z</time>
      </trkpt>
      <trkpt lat="45.59546" lon="6.75378">
        <ele>763.42407226562</ele>
        <time>2016-05-28T07:21:07Z</time>
      </trkpt>
      <trkpt lat="45.5955" lon="6.75383">
        <ele>764.38549804688</ele>
        <time>2016-05-28T07:21:08Z</time>
      </trkpt>
      <trkpt lat="45.59564" lon="6.75393">
        <ele>764.38549804688</ele>
        <time>2016-05-28T07:21:11Z</time>
      </trkpt>
      <trkpt lat="45.59584" lon="6.75419">
        <ele>765.34692382812</ele>
        <time>2016-05-28T07:21:16Z</time>
      </trkpt>
      <trkpt lat="45.5959" lon="6.75421">
        <ele>764.8662109375</ele>
        <time>2016-05-28T07:21:17Z</time>
      </trkpt>
      <trkpt lat="45.59601" lon="6.75425">
        <ele>764.8662109375</ele>
        <time>2016-05-28T07:21:19Z</time>
      </trkpt>
      <trkpt lat="45.59636" lon="6.75446">
        <ele>765.34692382812</ele>
        <time>2016-05-28T07:21:25Z</time>
      </trkpt>
      <trkpt lat="45.5966" lon="6.75461">
        <ele>765.34692382812</ele>
        <time>2016-05-28T07:21:29Z</time>
      </trkpt>
      <trkpt lat="45.59682" lon="6.75479">
        <ele>765.34692382812</ele>
        <time>2016-05-28T07:21:33Z</time>
      </trkpt>
      <trkpt lat="45.59705" lon="6.75487">
        <ele>765.82763671875</ele>
        <time>2016-05-28T07:21:37Z</time>
      </trkpt>
      <trkpt lat="45.59729" lon="6.75497">
        <ele>765.82763671875</ele>
        <time>2016-05-28T07:21:41Z</time>
      </trkpt>
      <trkpt lat="45.5974" lon="6.7551">
        <ele>766.30810546875</ele>
        <time>2016-05-28T07:21:43Z</time>
      </trkpt>
      <trkpt lat="45.59751" lon="6.75524">
        <ele>766.30810546875</ele>
        <time>2016-05-28T07:21:45Z</time>
      </trkpt>
      <trkpt lat="45.59757" lon="6.75538">
        <ele>766.30810546875</ele>
        <time>2016-05-28T07:21:47Z</time>
      </trkpt>
      <trkpt lat="45.59772" lon="6.75575">
        <ele>766.78881835938</ele>
        <time>2016-05-28T07:21:52Z</time>
      </trkpt>
      <trkpt lat="45.59793" lon="6.75625">
        <ele>767.26953125</ele>
        <time>2016-05-28T07:21:59Z</time>
      </trkpt>
      <trkpt lat="45.59797" lon="6.75656">
        <ele>767.26953125</ele>
        <time>2016-05-28T07:22:03Z</time>
      </trkpt>
      <trkpt lat="45.598" lon="6.75704">
        <ele>767.75</ele>
        <time>2016-05-28T07:22:09Z</time>
      </trkpt>
      <trkpt lat="45.59802" lon="6.75718">
        <ele>767.75</ele>
        <time>2016-05-28T07:22:11Z</time>
      </trkpt>
      <trkpt lat="45.59815" lon="6.75741">
        <ele>768.23071289062</ele>
        <time>2016-05-28T07:22:15Z</time>
      </trkpt>
      <trkpt lat="45.59819" lon="6.75745">
        <ele>768.71142578125</ele>
        <time>2016-05-28T07:22:16Z</time>
      </trkpt>
      <trkpt lat="45.59832" lon="6.75774">
        <ele>768.71142578125</ele>
        <time>2016-05-28T07:22:21Z</time>
      </trkpt>
      <trkpt lat="45.59833" lon="6.75781">
        <ele>769.19213867188</ele>
        <time>2016-05-28T07:22:22Z</time>
      </trkpt>
      <trkpt lat="45.59846" lon="6.75807">
        <ele>769.6728515625</ele>
        <time>2016-05-28T07:22:27Z</time>
      </trkpt>
      <trkpt lat="45.5985" lon="6.7581">
        <ele>770.1533203125</ele>
        <time>2016-05-28T07:22:28Z</time>
      </trkpt>
      <trkpt lat="45.59858" lon="6.75817">
        <ele>770.1533203125</ele>
        <time>2016-05-28T07:22:30Z</time>
      </trkpt>
      <trkpt lat="45.59869" lon="6.7583">
        <ele>770.63403320312</ele>
        <time>2016-05-28T07:22:33Z</time>
      </trkpt>
      <trkpt lat="45.59878" lon="6.75846">
        <ele>770.63403320312</ele>
        <time>2016-05-28T07:22:36Z</time>
      </trkpt>
      <trkpt lat="45.59891" lon="6.75886">
        <ele>772.556640625</ele>
        <time>2016-05-28T07:22:43Z</time>
      </trkpt>
      <trkpt lat="45.59907" lon="6.7589">
        <ele>773.03735351562</ele>
        <time>2016-05-28T07:22:47Z</time>
      </trkpt>
      <trkpt lat="45.59934" lon="6.75892">
        <ele>773.03735351562</ele>
        <time>2016-05-28T07:22:52Z</time>
      </trkpt>
      <trkpt lat="45.59939" lon="6.75897">
        <ele>773.03735351562</ele>
        <time>2016-05-28T07:22:53Z</time>
      </trkpt>
      <trkpt lat="45.5995" lon="6.75909">
        <ele>773.03735351562</ele>
        <time>2016-05-28T07:22:55Z</time>
      </trkpt>
      <trkpt lat="45.59959" lon="6.75932">
        <ele>774.47924804688</ele>
        <time>2016-05-28T07:22:59Z</time>
      </trkpt>
      <trkpt lat="45.5997" lon="6.75946">
        <ele>774.9599609375</ele>
        <time>2016-05-28T07:23:03Z</time>
      </trkpt>
      <trkpt lat="45.59977" lon="6.7595">
        <ele>775.4404296875</ele>
        <time>2016-05-28T07:23:05Z</time>
      </trkpt>
      <trkpt lat="45.5999" lon="6.7596">
        <ele>775.4404296875</ele>
        <time>2016-05-28T07:23:09Z</time>
      </trkpt>
      <trkpt lat="45.60004" lon="6.75982">
        <ele>775.92114257812</ele>
        <time>2016-05-28T07:23:14Z</time>
      </trkpt>
      <trkpt lat="45.60036" lon="6.76016">
        <ele>776.88256835938</ele>
        <time>2016-05-28T07:23:22Z</time>
      </trkpt>
      <trkpt lat="45.60056" lon="6.76055">
        <ele>776.40185546875</ele>
        <time>2016-05-28T07:23:29Z</time>
      </trkpt>
      <trkpt lat="45.60064" lon="6.76071">
        <ele>775.92114257812</ele>
        <time>2016-05-28T07:23:32Z</time>
      </trkpt>
      <trkpt lat="45.60071" lon="6.76098">
        <ele>775.4404296875</ele>
        <time>2016-05-28T07:23:36Z</time>
      </trkpt>
      <trkpt lat="45.60071" lon="6.76105">
        <ele>775.4404296875</ele>
        <time>2016-05-28T07:23:37Z</time>
      </trkpt>
      <trkpt lat="45.60069" lon="6.76136">
        <ele>776.40185546875</ele>
        <time>2016-05-28T07:23:42Z</time>
      </trkpt>
      <trkpt lat="45.60073" lon="6.76179">
        <ele>777.36328125</ele>
        <time>2016-05-28T07:23:49Z</time>
      </trkpt>
      <trkpt lat="45.60074" lon="6.76192">
        <ele>777.36328125</ele>
        <time>2016-05-28T07:23:51Z</time>
      </trkpt>
      <trkpt lat="45.60083" lon="6.76239">
        <ele>776.88256835938</ele>
        <time>2016-05-28T07:23:59Z</time>
      </trkpt>
      <trkpt lat="45.60087" lon="6.76259">
        <ele>776.88256835938</ele>
        <time>2016-05-28T07:24:03Z</time>
      </trkpt>
      <trkpt lat="45.60082" lon="6.76289">
        <ele>777.84375</ele>
        <time>2016-05-28T07:24:08Z</time>
      </trkpt>
      <trkpt lat="45.6008" lon="6.76302">
        <ele>778.80517578125</ele>
        <time>2016-05-28T07:24:10Z</time>
      </trkpt>
      <trkpt lat="45.6008" lon="6.76316">
        <ele>777.84375</ele>
        <time>2016-05-28T07:24:12Z</time>
      </trkpt>
      <trkpt lat="45.60085" lon="6.76347">
        <ele>778.32446289062</ele>
        <time>2016-05-28T07:24:17Z</time>
      </trkpt>
      <trkpt lat="45.60084" lon="6.7638">
        <ele>778.80517578125</ele>
        <time>2016-05-28T07:24:22Z</time>
      </trkpt>
      <trkpt lat="45.60084" lon="6.76395">
        <ele>779.28564453125</ele>
        <time>2016-05-28T07:24:24Z</time>
      </trkpt>
      <trkpt lat="45.60091" lon="6.76435">
        <ele>780.72802734375</ele>
        <time>2016-05-28T07:24:31Z</time>
      </trkpt>
      <trkpt lat="45.60092" lon="6.76441">
        <ele>781.20874023438</ele>
        <time>2016-05-28T07:24:32Z</time>
      </trkpt>
      <trkpt lat="45.60093" lon="6.76459">
        <ele>781.68920898438</ele>
        <time>2016-05-28T07:24:35Z</time>
      </trkpt>
      <trkpt lat="45.60105" lon="6.76492">
        <ele>782.65063476562</ele>
        <time>2016-05-28T07:24:41Z</time>
      </trkpt>
      <trkpt lat="45.60124" lon="6.76524">
        <ele>784.5732421875</ele>
        <time>2016-05-28T07:24:48Z</time>
      </trkpt>
      <trkpt lat="45.60135" lon="6.76543">
        <ele>785.53442382812</ele>
        <time>2016-05-28T07:24:52Z</time>
      </trkpt>
      <trkpt lat="45.60152" lon="6.76566">
        <ele>786.01513671875</ele>
        <time>2016-05-28T07:24:57Z</time>
      </trkpt>
      <trkpt lat="45.60165" lon="6.76598">
        <ele>786.01513671875</ele>
        <time>2016-05-28T07:25:02Z</time>
      </trkpt>
      <trkpt lat="45.60187" lon="6.76632">
        <ele>785.53442382812</ele>
        <time>2016-05-28T07:25:08Z</time>
      </trkpt>
      <trkpt lat="45.60193" lon="6.76636">
        <ele>785.53442382812</ele>
        <time>2016-05-28T07:25:09Z</time>
      </trkpt>
      <trkpt lat="45.60238" lon="6.7666">
        <ele>785.53442382812</ele>
        <time>2016-05-28T07:25:17Z</time>
      </trkpt>
      <trkpt lat="45.60268" lon="6.76685">
        <ele>784.5732421875</ele>
        <time>2016-05-28T07:25:23Z</time>
      </trkpt>
      <trkpt lat="45.60277" lon="6.76693">
        <ele>784.5732421875</ele>
        <time>2016-05-28T07:25:26Z</time>
      </trkpt>
      <trkpt lat="45.60304" lon="6.76701">
        <ele>786.01513671875</ele>
        <time>2016-05-28T07:25:32Z</time>
      </trkpt>
      <trkpt lat="45.60305" lon="6.76696">
        <ele>786.49584960938</ele>
        <time>2016-05-28T07:25:36Z</time>
      </trkpt>
      <trkpt lat="45.60296" lon="6.76691">
        <ele>786.01513671875</ele>
        <time>2016-05-28T07:25:39Z</time>
      </trkpt>
      <trkpt lat="45.60276" lon="6.76684">
        <ele>786.97631835938</ele>
        <time>2016-05-28T07:25:45Z</time>
      </trkpt>
      <trkpt lat="45.60272" lon="6.76673">
        <ele>787.45703125</ele>
        <time>2016-05-28T07:25:49Z</time>
      </trkpt>
      <trkpt lat="45.60274" lon="6.7667">
        <ele>787.93774414062</ele>
        <time>2016-05-28T07:25:50Z</time>
      </trkpt>
      <trkpt lat="45.60297" lon="6.76625">
        <ele>788.41845703125</ele>
        <time>2016-05-28T07:26:00Z</time>
      </trkpt>
      <trkpt lat="45.60309" lon="6.76603">
        <ele>788.41845703125</ele>
        <time>2016-05-28T07:26:05Z</time>
      </trkpt>
      <trkpt lat="45.60317" lon="6.76594">
        <ele>788.89916992188</ele>
        <time>2016-05-28T07:26:08Z</time>
      </trkpt>
      <trkpt lat="45.60329" lon="6.76599">
        <ele>789.8603515625</ele>
        <time>2016-05-28T07:26:12Z</time>
      </trkpt>
      <trkpt lat="45.60333" lon="6.76605">
        <ele>791.30224609375</ele>
        <time>2016-05-28T07:26:14Z</time>
      </trkpt>
      <trkpt lat="45.60344" lon="6.76622">
        <ele>793.70556640625</ele>
        <time>2016-05-28T07:26:19Z</time>
      </trkpt>
      <trkpt lat="45.60358" lon="6.76643">
        <ele>794.66674804688</ele>
        <time>2016-05-28T07:26:25Z</time>
      </trkpt>
      <trkpt lat="45.60377" lon="6.76673">
        <ele>796.10913085938</ele>
        <time>2016-05-28T07:26:33Z</time>
      </trkpt>
      <trkpt lat="45.60405" lon="6.7672">
        <ele>797.0703125</ele>
        <time>2016-05-28T07:26:45Z</time>
      </trkpt>
      <trkpt lat="45.60411" lon="6.76738">
        <ele>798.03173828125</ele>
        <time>2016-05-28T07:26:49Z</time>
      </trkpt>
      <trkpt lat="45.60423" lon="6.7675">
        <ele>799.4736328125</ele>
        <time>2016-05-28T07:26:53Z</time>
      </trkpt>
      <trkpt lat="45.60449" lon="6.76755">
        <ele>800.43505859375</ele>
        <time>2016-05-28T07:27:00Z</time>
      </trkpt>
      <trkpt lat="45.60477" lon="6.76765">
        <ele>801.876953125</ele>
        <time>2016-05-28T07:27:08Z</time>
      </trkpt>
      <trkpt lat="45.60511" lon="6.76785">
        <ele>802.357421875</ele>
        <time>2016-05-28T07:27:17Z</time>
      </trkpt>
      <trkpt lat="45.6054" lon="6.76808">
        <ele>803.31884765625</ele>
        <time>2016-05-28T07:27:25Z</time>
      </trkpt>
      <trkpt lat="45.6057" lon="6.76842">
        <ele>804.2802734375</ele>
        <time>2016-05-28T07:27:32Z</time>
      </trkpt>
      <trkpt lat="45.60596" lon="6.76885">
        <ele>804.2802734375</ele>
        <time>2016-05-28T07:27:38Z</time>
      </trkpt>
      <trkpt lat="45.606" lon="6.76893">
        <ele>804.2802734375</ele>
        <time>2016-05-28T07:27:39Z</time>
      </trkpt>
      <trkpt lat="45.60604" lon="6.76929">
        <ele>804.2802734375</ele>
        <time>2016-05-28T07:27:43Z</time>
      </trkpt>
      <trkpt lat="45.60601" lon="6.7696">
        <ele>803.79956054688</ele>
        <time>2016-05-28T07:27:46Z</time>
      </trkpt>
      <trkpt lat="45.60611" lon="6.77004">
        <ele>804.2802734375</ele>
        <time>2016-05-28T07:27:51Z</time>
      </trkpt>
      <trkpt lat="45.60622" lon="6.77024">
        <ele>802.83813476562</ele>
        <time>2016-05-28T07:27:54Z</time>
      </trkpt>
      <trkpt lat="45.6064" lon="6.77041">
        <ele>803.31884765625</ele>
        <time>2016-05-28T07:27:58Z</time>
      </trkpt>
      <trkpt lat="45.60684" lon="6.77057">
        <ele>805.24145507812</ele>
        <time>2016-05-28T07:28:06Z</time>
      </trkpt>
      <trkpt lat="45.60726" lon="6.77074">
        <ele>806.68334960938</ele>
        <time>2016-05-28T07:28:13Z</time>
      </trkpt>
      <trkpt lat="45.60772" lon="6.77103">
        <ele>806.68334960938</ele>
        <time>2016-05-28T07:28:21Z</time>
      </trkpt>
      <trkpt lat="45.60815" lon="6.77124">
        <ele>806.68334960938</ele>
        <time>2016-05-28T07:28:28Z</time>
      </trkpt>
      <trkpt lat="45.60883" lon="6.77142">
        <ele>808.12548828125</ele>
        <time>2016-05-28T07:28:39Z</time>
      </trkpt>
      <trkpt lat="45.60922" lon="6.77152">
        <ele>808.60595703125</ele>
        <time>2016-05-28T07:28:46Z</time>
      </trkpt>
      <trkpt lat="45.60962" lon="6.77166">
        <ele>811.00927734375</ele>
        <time>2016-05-28T07:28:54Z</time>
      </trkpt>
      <trkpt lat="45.60985" lon="6.77178">
        <ele>811.48999023438</ele>
        <time>2016-05-28T07:28:59Z</time>
      </trkpt>
      <trkpt lat="45.61026" lon="6.77196">
        <ele>812.45141601562</ele>
        <time>2016-05-28T07:29:06Z</time>
      </trkpt>
      <trkpt lat="45.61058" lon="6.77215">
        <ele>812.45141601562</ele>
        <time>2016-05-28T07:29:12Z</time>
      </trkpt>
      <trkpt lat="45.61106" lon="6.77248">
        <ele>812.45141601562</ele>
        <time>2016-05-28T07:29:21Z</time>
      </trkpt>
      <trkpt lat="45.6114" lon="6.77283">
        <ele>812.45141601562</ele>
        <time>2016-05-28T07:29:28Z</time>
      </trkpt>
      <trkpt lat="45.61159" lon="6.77305">
        <ele>812.45141601562</ele>
        <time>2016-05-28T07:29:32Z</time>
      </trkpt>
      <trkpt lat="45.61166" lon="6.77324">
        <ele>811.00927734375</ele>
        <time>2016-05-28T07:29:35Z</time>
      </trkpt>
      <trkpt lat="45.61159" lon="6.77343">
        <ele>810.52856445312</ele>
        <time>2016-05-28T07:29:38Z</time>
      </trkpt>
      <trkpt lat="45.61153" lon="6.77354">
        <ele>810.0478515625</ele>
        <time>2016-05-28T07:29:40Z</time>
      </trkpt>
      <trkpt lat="45.61144" lon="6.77368">
        <ele>810.52856445312</ele>
        <time>2016-05-28T07:29:43Z</time>
      </trkpt>
      <trkpt lat="45.6113" lon="6.77393">
        <ele>811.970703125</ele>
        <time>2016-05-28T07:29:48Z</time>
      </trkpt>
      <trkpt lat="45.61125" lon="6.77416">
        <ele>811.48999023438</ele>
        <time>2016-05-28T07:29:52Z</time>
      </trkpt>
      <trkpt lat="45.61135" lon="6.7744">
        <ele>811.970703125</ele>
        <time>2016-05-28T07:29:56Z</time>
      </trkpt>
      <trkpt lat="45.61139" lon="6.77445">
        <ele>812.93212890625</ele>
        <time>2016-05-28T07:29:57Z</time>
      </trkpt>
      <trkpt lat="45.61163" lon="6.77481">
        <ele>812.45141601562</ele>
        <time>2016-05-28T07:30:03Z</time>
      </trkpt>
      <trkpt lat="45.61167" lon="6.77489">
        <ele>812.93212890625</ele>
        <time>2016-05-28T07:30:04Z</time>
      </trkpt>
      <trkpt lat="45.61187" lon="6.77553">
        <ele>812.45141601562</ele>
        <time>2016-05-28T07:30:11Z</time>
      </trkpt>
      <trkpt lat="45.61201" lon="6.77635">
        <ele>811.48999023438</ele>
        <time>2016-05-28T07:30:20Z</time>
      </trkpt>
      <trkpt lat="45.61203" lon="6.77643">
        <ele>811.48999023438</ele>
        <time>2016-05-28T07:30:21Z</time>
      </trkpt>
      <trkpt lat="45.61222" lon="6.77677">
        <ele>811.970703125</ele>
        <time>2016-05-28T07:30:26Z</time>
      </trkpt>
      <trkpt lat="45.6125" lon="6.77697">
        <ele>811.970703125</ele>
        <time>2016-05-28T07:30:31Z</time>
      </trkpt>
      <trkpt lat="45.61257" lon="6.777">
        <ele>811.48999023438</ele>
        <time>2016-05-28T07:30:32Z</time>
      </trkpt>
      <trkpt lat="45.61293" lon="6.77709">
        <ele>811.970703125</ele>
        <time>2016-05-28T07:30:38Z</time>
      </trkpt>
      <trkpt lat="45.61335" lon="6.77726">
        <ele>812.93212890625</ele>
        <time>2016-05-28T07:30:45Z</time>
      </trkpt>
      <trkpt lat="45.61372" lon="6.77749">
        <ele>812.45141601562</ele>
        <time>2016-05-28T07:30:51Z</time>
      </trkpt>
      <trkpt lat="45.61408" lon="6.77795">
        <ele>811.970703125</ele>
        <time>2016-05-28T07:30:58Z</time>
      </trkpt>
      <trkpt lat="45.61412" lon="6.77802">
        <ele>811.970703125</ele>
        <time>2016-05-28T07:30:59Z</time>
      </trkpt>
      <trkpt lat="45.61425" lon="6.77843">
        <ele>812.93212890625</ele>
        <time>2016-05-28T07:31:04Z</time>
      </trkpt>
      <trkpt lat="45.61426" lon="6.77852">
        <ele>812.45141601562</ele>
        <time>2016-05-28T07:31:05Z</time>
      </trkpt>
      <trkpt lat="45.61427" lon="6.77906">
        <ele>812.93212890625</ele>
        <time>2016-05-28T07:31:11Z</time>
      </trkpt>
      <trkpt lat="45.61438" lon="6.77947">
        <ele>812.93212890625</ele>
        <time>2016-05-28T07:31:16Z</time>
      </trkpt>
      <trkpt lat="45.61442" lon="6.77954">
        <ele>813.41284179688</ele>
        <time>2016-05-28T07:31:17Z</time>
      </trkpt>
      <trkpt lat="45.61468" lon="6.78022">
        <ele>813.41284179688</ele>
        <time>2016-05-28T07:31:25Z</time>
      </trkpt>
      <trkpt lat="45.61476" lon="6.7806">
        <ele>813.41284179688</ele>
        <time>2016-05-28T07:31:29Z</time>
      </trkpt>
      <trkpt lat="45.61492" lon="6.78096">
        <ele>813.89331054688</ele>
        <time>2016-05-28T07:31:33Z</time>
      </trkpt>
      <trkpt lat="45.61519" lon="6.78144">
        <ele>812.93212890625</ele>
        <time>2016-05-28T07:31:39Z</time>
      </trkpt>
      <trkpt lat="45.61531" lon="6.7818">
        <ele>812.45141601562</ele>
        <time>2016-05-28T07:31:43Z</time>
      </trkpt>
      <trkpt lat="45.61541" lon="6.78247">
        <ele>812.93212890625</ele>
        <time>2016-05-28T07:31:50Z</time>
      </trkpt>
      <trkpt lat="45.61555" lon="6.78283">
        <ele>812.45141601562</ele>
        <time>2016-05-28T07:31:54Z</time>
      </trkpt>
      <trkpt lat="45.61579" lon="6.78343">
        <ele>812.93212890625</ele>
        <time>2016-05-28T07:32:01Z</time>
      </trkpt>
      <trkpt lat="45.61594" lon="6.784">
        <ele>811.970703125</ele>
        <time>2016-05-28T07:32:08Z</time>
      </trkpt>
      <trkpt lat="45.61612" lon="6.78445">
        <ele>813.41284179688</ele>
        <time>2016-05-28T07:32:15Z</time>
      </trkpt>
      <trkpt lat="45.61627" lon="6.7849">
        <ele>815.33544921875</ele>
        <time>2016-05-28T07:32:21Z</time>
      </trkpt>
      <trkpt lat="45.61655" lon="6.78567">
        <ele>815.33544921875</ele>
        <time>2016-05-28T07:32:30Z</time>
      </trkpt>
      <trkpt lat="45.6168" lon="6.7864">
        <ele>814.85473632812</ele>
        <time>2016-05-28T07:32:38Z</time>
      </trkpt>
      <trkpt lat="45.61708" lon="6.78707">
        <ele>814.3740234375</ele>
        <time>2016-05-28T07:32:46Z</time>
      </trkpt>
      <trkpt lat="45.61736" lon="6.78748">
        <ele>814.3740234375</ele>
        <time>2016-05-28T07:32:52Z</time>
      </trkpt>
      <trkpt lat="45.61751" lon="6.78771">
        <ele>814.3740234375</ele>
        <time>2016-05-28T07:32:56Z</time>
      </trkpt>
      <trkpt lat="45.61765" lon="6.7879">
        <ele>813.89331054688</ele>
        <time>2016-05-28T07:33:00Z</time>
      </trkpt>
      <trkpt lat="45.6177" lon="6.78811">
        <ele>813.89331054688</ele>
        <time>2016-05-28T07:33:04Z</time>
      </trkpt>
      <trkpt lat="45.61763" lon="6.78831">
        <ele>814.3740234375</ele>
        <time>2016-05-28T07:33:08Z</time>
      </trkpt>
      <trkpt lat="45.61767" lon="6.78849">
        <ele>814.3740234375</ele>
        <time>2016-05-28T07:33:11Z</time>
      </trkpt>
      <trkpt lat="45.61783" lon="6.78866">
        <ele>814.3740234375</ele>
        <time>2016-05-28T07:33:15Z</time>
      </trkpt>
      <trkpt lat="45.61802" lon="6.78896">
        <ele>814.3740234375</ele>
        <time>2016-05-28T07:33:21Z</time>
      </trkpt>
      <trkpt lat="45.61821" lon="6.78913">
        <ele>815.33544921875</ele>
        <time>2016-05-28T07:33:25Z</time>
      </trkpt>
      <trkpt lat="45.61843" lon="6.78914">
        <ele>815.33544921875</ele>
        <time>2016-05-28T07:33:29Z</time>
      </trkpt>
      <trkpt lat="45.61882" lon="6.78903">
        <ele>815.81616210938</ele>
        <time>2016-05-28T07:33:36Z</time>
      </trkpt>
      <trkpt lat="45.61933" lon="6.78892">
        <ele>815.33544921875</ele>
        <time>2016-05-28T07:33:44Z</time>
      </trkpt>
      <trkpt lat="45.61983" lon="6.78889">
        <ele>815.81616210938</ele>
        <time>2016-05-28T07:33:52Z</time>
      </trkpt>
      <trkpt lat="45.62" lon="6.78893">
        <ele>816.77734375</ele>
        <time>2016-05-28T07:33:55Z</time>
      </trkpt>
      <trkpt lat="45.62027" lon="6.78914">
        <ele>816.77734375</ele>
        <time>2016-05-28T07:34:01Z</time>
      </trkpt>
      <trkpt lat="45.62036" lon="6.7893">
        <ele>816.77734375</ele>
        <time>2016-05-28T07:34:04Z</time>
      </trkpt>
      <trkpt lat="45.62053" lon="6.7898">
        <ele>818.69995117188</ele>
        <time>2016-05-28T07:34:13Z</time>
      </trkpt>
      <trkpt lat="45.62068" lon="6.79025">
        <ele>820.62255859375</ele>
        <time>2016-05-28T07:34:22Z</time>
      </trkpt>
      <trkpt lat="45.62081" lon="6.79065">
        <ele>821.58374023438</ele>
        <time>2016-05-28T07:34:30Z</time>
      </trkpt>
      <trkpt lat="45.62096" lon="6.79108">
        <ele>823.98706054688</ele>
        <time>2016-05-28T07:34:39Z</time>
      </trkpt>
      <trkpt lat="45.62105" lon="6.79145">
        <ele>825.90966796875</ele>
        <time>2016-05-28T07:34:47Z</time>
      </trkpt>
      <trkpt lat="45.62106" lon="6.7915">
        <ele>825.42895507812</ele>
        <time>2016-05-28T07:34:48Z</time>
      </trkpt>
      <trkpt lat="45.62108" lon="6.79164">
        <ele>826.87109375</ele>
        <time>2016-05-28T07:34:51Z</time>
      </trkpt>
      <trkpt lat="45.62107" lon="6.79191">
        <ele>827.35180664062</ele>
        <time>2016-05-28T07:34:57Z</time>
      </trkpt>
      <trkpt lat="45.62103" lon="6.7921">
        <ele>828.31323242188</ele>
        <time>2016-05-28T07:35:01Z</time>
      </trkpt>
      <trkpt lat="45.62097" lon="6.79234">
        <ele>831.197265625</ele>
        <time>2016-05-28T07:35:06Z</time>
      </trkpt>
      <trkpt lat="45.6209" lon="6.79257">
        <ele>831.677734375</ele>
        <time>2016-05-28T07:35:11Z</time>
      </trkpt>
      <trkpt lat="45.62082" lon="6.79284">
        <ele>832.15844726562</ele>
        <time>2016-05-28T07:35:17Z</time>
      </trkpt>
      <trkpt lat="45.62073" lon="6.79316">
        <ele>833.60034179688</ele>
        <time>2016-05-28T07:35:24Z</time>
      </trkpt>
      <trkpt lat="45.62061" lon="6.79357">
        <ele>835.52294921875</ele>
        <time>2016-05-28T07:35:33Z</time>
      </trkpt>
      <trkpt lat="45.6205" lon="6.79393">
        <ele>837.44555664062</ele>
        <time>2016-05-28T07:35:41Z</time>
      </trkpt>
      <trkpt lat="45.62036" lon="6.7944">
        <ele>839.84887695312</ele>
        <time>2016-05-28T07:35:51Z</time>
      </trkpt>
      <trkpt lat="45.62025" lon="6.79481">
        <ele>842.25219726562</ele>
        <time>2016-05-28T07:36:00Z</time>
      </trkpt>
      <trkpt lat="45.62027" lon="6.79511">
        <ele>843.69409179688</ele>
        <time>2016-05-28T07:36:06Z</time>
      </trkpt>
      <trkpt lat="45.62038" lon="6.7953">
        <ele>845.61694335938</ele>
        <time>2016-05-28T07:36:11Z</time>
      </trkpt>
      <trkpt lat="45.62057" lon="6.7954">
        <ele>847.05883789062</ele>
        <time>2016-05-28T07:36:17Z</time>
      </trkpt>
      <trkpt lat="45.62061" lon="6.7954">
        <ele>847.05883789062</ele>
        <time>2016-05-28T07:36:18Z</time>
      </trkpt>
      <trkpt lat="45.62107" lon="6.79531">
        <ele>848.50073242188</ele>
        <time>2016-05-28T07:36:31Z</time>
      </trkpt>
      <trkpt lat="45.62146" lon="6.79523">
        <ele>850.90405273438</ele>
        <time>2016-05-28T07:36:42Z</time>
      </trkpt>
      <trkpt lat="45.62185" lon="6.79516">
        <ele>852.34594726562</ele>
        <time>2016-05-28T07:36:53Z</time>
      </trkpt>
      <trkpt lat="45.62221" lon="6.79507">
        <ele>855.22998046875</ele>
        <time>2016-05-28T07:37:03Z</time>
      </trkpt>
      <trkpt lat="45.62256" lon="6.79502">
        <ele>856.671875</ele>
        <time>2016-05-28T07:37:13Z</time>
      </trkpt>
      <trkpt lat="45.62284" lon="6.79495">
        <ele>858.59448242188</ele>
        <time>2016-05-28T07:37:21Z</time>
      </trkpt>
      <trkpt lat="45.62315" lon="6.7949">
        <ele>860.03662109375</ele>
        <time>2016-05-28T07:37:30Z</time>
      </trkpt>
      <trkpt lat="45.62353" lon="6.79484">
        <ele>861.95947265625</ele>
        <time>2016-05-28T07:37:41Z</time>
      </trkpt>
      <trkpt lat="45.62391" lon="6.79476">
        <ele>863.8818359375</ele>
        <time>2016-05-28T07:37:52Z</time>
      </trkpt>
      <trkpt lat="45.62421" lon="6.79469">
        <ele>865.8046875</ele>
        <time>2016-05-28T07:38:01Z</time>
      </trkpt>
      <trkpt lat="45.62447" lon="6.79465">
        <ele>867.72705078125</ele>
        <time>2016-05-28T07:38:08Z</time>
      </trkpt>
      <trkpt lat="45.62474" lon="6.7946">
        <ele>869.16918945312</ele>
        <time>2016-05-28T07:38:16Z</time>
      </trkpt>
      <trkpt lat="45.62501" lon="6.79454">
        <ele>870.13037109375</ele>
        <time>2016-05-28T07:38:24Z</time>
      </trkpt>
      <trkpt lat="45.62513" lon="6.79458">
        <ele>871.572265625</ele>
        <time>2016-05-28T07:38:29Z</time>
      </trkpt>
      <trkpt lat="45.62515" lon="6.79472">
        <ele>873.4951171875</ele>
        <time>2016-05-28T07:38:33Z</time>
      </trkpt>
      <trkpt lat="45.62506" lon="6.79493">
        <ele>873.4951171875</ele>
        <time>2016-05-28T07:38:38Z</time>
      </trkpt>
      <trkpt lat="45.62488" lon="6.79531">
        <ele>875.89819335938</ele>
        <time>2016-05-28T07:38:47Z</time>
      </trkpt>
      <trkpt lat="45.62469" lon="6.7957">
        <ele>877.82104492188</ele>
        <time>2016-05-28T07:38:56Z</time>
      </trkpt>
      <trkpt lat="45.62449" lon="6.79612">
        <ele>880.22436523438</ele>
        <time>2016-05-28T07:39:06Z</time>
      </trkpt>
      <trkpt lat="45.62438" lon="6.79633">
        <ele>881.18579101562</ele>
        <time>2016-05-28T07:39:11Z</time>
      </trkpt>
      <trkpt lat="45.62418" lon="6.79674">
        <ele>881.66625976562</ele>
        <time>2016-05-28T07:39:20Z</time>
      </trkpt>
      <trkpt lat="45.624" lon="6.79715">
        <ele>883.5888671875</ele>
        <time>2016-05-28T07:39:29Z</time>
      </trkpt>
      <trkpt lat="45.62379" lon="6.79759">
        <ele>885.03100585938</ele>
        <time>2016-05-28T07:39:39Z</time>
      </trkpt>
      <trkpt lat="45.62361" lon="6.798">
        <ele>886.95336914062</ele>
        <time>2016-05-28T07:39:48Z</time>
      </trkpt>
      <trkpt lat="45.62346" lon="6.79835">
        <ele>888.3955078125</ele>
        <time>2016-05-28T07:39:56Z</time>
      </trkpt>
      <trkpt lat="45.62343" lon="6.79846">
        <ele>888.3955078125</ele>
        <time>2016-05-28T07:40:00Z</time>
      </trkpt>
      <trkpt lat="45.62335" lon="6.79859">
        <ele>889.83740234375</ele>
        <time>2016-05-28T07:40:04Z</time>
      </trkpt>
      <trkpt lat="45.62331" lon="6.79868">
        <ele>890.79858398438</ele>
        <time>2016-05-28T07:40:06Z</time>
      </trkpt>
      <trkpt lat="45.62312" lon="6.79911">
        <ele>891.279296875</ele>
        <time>2016-05-28T07:40:15Z</time>
      </trkpt>
      <trkpt lat="45.62306" lon="6.79939">
        <ele>893.2021484375</ele>
        <time>2016-05-28T07:40:21Z</time>
      </trkpt>
      <trkpt lat="45.623" lon="6.79959">
        <ele>893.68286132812</ele>
        <time>2016-05-28T07:40:26Z</time>
      </trkpt>
      <trkpt lat="45.6228" lon="6.79984">
        <ele>894.64404296875</ele>
        <time>2016-05-28T07:40:32Z</time>
      </trkpt>
      <trkpt lat="45.62266" lon="6.80001">
        <ele>895.60546875</ele>
        <time>2016-05-28T07:40:36Z</time>
      </trkpt>
      <trkpt lat="45.6225" lon="6.80021">
        <ele>895.60546875</ele>
        <time>2016-05-28T07:40:41Z</time>
      </trkpt>
      <trkpt lat="45.62223" lon="6.80054">
        <ele>898.0087890625</ele>
        <time>2016-05-28T07:40:50Z</time>
      </trkpt>
      <trkpt lat="45.62203" lon="6.80096">
        <ele>899.45068359375</ele>
        <time>2016-05-28T07:40:59Z</time>
      </trkpt>
      <trkpt lat="45.62186" lon="6.80135">
        <ele>899.93139648438</ele>
        <time>2016-05-28T07:41:07Z</time>
      </trkpt>
      <trkpt lat="45.62171" lon="6.80148">
        <ele>899.93139648438</ele>
        <time>2016-05-28T07:41:12Z</time>
      </trkpt>
      <trkpt lat="45.62167" lon="6.80151">
        <ele>899.93139648438</ele>
        <time>2016-05-28T07:41:16Z</time>
      </trkpt>
      <trkpt lat="45.62166" lon="6.80153">
        <ele>899.93139648438</ele>
        <time>2016-05-28T07:41:36Z</time>
      </trkpt>
      <trkpt lat="45.62168" lon="6.80168">
        <ele>900.892578125</ele>
        <time>2016-05-28T07:41:41Z</time>
      </trkpt>
      <trkpt lat="45.62175" lon="6.80188">
        <ele>901.37329101562</ele>
        <time>2016-05-28T07:41:47Z</time>
      </trkpt>
      <trkpt lat="45.62171" lon="6.80207">
        <ele>901.85400390625</ele>
        <time>2016-05-28T07:41:51Z</time>
      </trkpt>
      <trkpt lat="45.62157" lon="6.80244">
        <ele>903.77661132812</ele>
        <time>2016-05-28T07:41:59Z</time>
      </trkpt>
      <trkpt lat="45.62156" lon="6.80249">
        <ele>904.25732421875</ele>
        <time>2016-05-28T07:42:00Z</time>
      </trkpt>
      <trkpt lat="45.62148" lon="6.80275">
        <ele>906.1796875</ele>
        <time>2016-05-28T07:42:06Z</time>
      </trkpt>
      <trkpt lat="45.62146" lon="6.80283">
        <ele>907.14111328125</ele>
        <time>2016-05-28T07:42:08Z</time>
      </trkpt>
      <trkpt lat="45.6214" lon="6.80304">
        <ele>907.14111328125</ele>
        <time>2016-05-28T07:42:13Z</time>
      </trkpt>
      <trkpt lat="45.62135" lon="6.80322">
        <ele>907.62182617188</ele>
        <time>2016-05-28T07:42:18Z</time>
      </trkpt>
      <trkpt lat="45.62129" lon="6.80338">
        <ele>908.10278320312</ele>
        <time>2016-05-28T07:42:23Z</time>
      </trkpt>
      <trkpt lat="45.62125" lon="6.80349">
        <ele>910.02514648438</ele>
        <time>2016-05-28T07:42:26Z</time>
      </trkpt>
      <trkpt lat="45.62115" lon="6.80381">
        <ele>910.505859375</ele>
        <time>2016-05-28T07:42:33Z</time>
      </trkpt>
      <trkpt lat="45.62103" lon="6.80424">
        <ele>911.46728515625</ele>
        <time>2016-05-28T07:42:41Z</time>
      </trkpt>
      <trkpt lat="45.62095" lon="6.80469">
        <ele>912.9091796875</ele>
        <time>2016-05-28T07:42:49Z</time>
      </trkpt>
      <trkpt lat="45.62092" lon="6.80493">
        <ele>914.35107421875</ele>
        <time>2016-05-28T07:42:53Z</time>
      </trkpt>
      <trkpt lat="45.62092" lon="6.80505">
        <ele>914.83178710938</ele>
        <time>2016-05-28T07:42:55Z</time>
      </trkpt>
      <trkpt lat="45.62093" lon="6.80561">
        <ele>918.1962890625</ele>
        <time>2016-05-28T07:43:04Z</time>
      </trkpt>
      <trkpt lat="45.62097" lon="6.80622">
        <ele>919.63842773438</ele>
        <time>2016-05-28T07:43:14Z</time>
      </trkpt>
      <trkpt lat="45.62102" lon="6.80681">
        <ele>922.04150390625</ele>
        <time>2016-05-28T07:43:24Z</time>
      </trkpt>
      <trkpt lat="45.62105" lon="6.80728">
        <ele>922.52221679688</ele>
        <time>2016-05-28T07:43:32Z</time>
      </trkpt>
      <trkpt lat="45.62109" lon="6.80781">
        <ele>924.44506835938</ele>
        <time>2016-05-28T07:43:41Z</time>
      </trkpt>
      <trkpt lat="45.62114" lon="6.80851">
        <ele>926.84838867188</ele>
        <time>2016-05-28T07:43:53Z</time>
      </trkpt>
      <trkpt lat="45.62119" lon="6.80921">
        <ele>929.25146484375</ele>
        <time>2016-05-28T07:44:05Z</time>
      </trkpt>
      <trkpt lat="45.62123" lon="6.80986">
        <ele>931.17431640625</ele>
        <time>2016-05-28T07:44:16Z</time>
      </trkpt>
      <trkpt lat="45.62126" lon="6.81031">
        <ele>933.57739257812</ele>
        <time>2016-05-28T07:44:24Z</time>
      </trkpt>
      <trkpt lat="45.62131" lon="6.81052">
        <ele>934.53881835938</ele>
        <time>2016-05-28T07:44:28Z</time>
      </trkpt>
      <trkpt lat="45.62145" lon="6.8107">
        <ele>935.98071289062</ele>
        <time>2016-05-28T07:44:33Z</time>
      </trkpt>
      <trkpt lat="45.62164" lon="6.81072">
        <ele>936.46142578125</ele>
        <time>2016-05-28T07:44:38Z</time>
      </trkpt>
      <trkpt lat="45.6218" lon="6.81055">
        <ele>937.42260742188</ele>
        <time>2016-05-28T07:44:43Z</time>
      </trkpt>
      <trkpt lat="45.62187" lon="6.81034">
        <ele>937.42260742188</ele>
        <time>2016-05-28T07:44:47Z</time>
      </trkpt>
      <trkpt lat="45.62203" lon="6.80961">
        <ele>939.82592773438</ele>
        <time>2016-05-28T07:45:00Z</time>
      </trkpt>
      <trkpt lat="45.62215" lon="6.80905">
        <ele>941.74877929688</ele>
        <time>2016-05-28T07:45:10Z</time>
      </trkpt>
      <trkpt lat="45.62226" lon="6.80855">
        <ele>943.67138671875</ele>
        <time>2016-05-28T07:45:19Z</time>
      </trkpt>
      <trkpt lat="45.62237" lon="6.80814">
        <ele>945.11328125</ele>
        <time>2016-05-28T07:45:27Z</time>
      </trkpt>
      <trkpt lat="45.62252" lon="6.80812">
        <ele>945.59399414062</ele>
        <time>2016-05-28T07:45:31Z</time>
      </trkpt>
      <trkpt lat="45.62256" lon="6.80821">
        <ele>946.55541992188</ele>
        <time>2016-05-28T07:45:33Z</time>
      </trkpt>
      <trkpt lat="45.62262" lon="6.80862">
        <ele>947.99731445312</ele>
        <time>2016-05-28T07:45:41Z</time>
      </trkpt>
      <trkpt lat="45.62267" lon="6.80896">
        <ele>950.88110351562</ele>
        <time>2016-05-28T07:45:47Z</time>
      </trkpt>
      <trkpt lat="45.6227" lon="6.80918">
        <ele>951.36181640625</ele>
        <time>2016-05-28T07:45:51Z</time>
      </trkpt>
      <trkpt lat="45.62279" lon="6.80983">
        <ele>955.20703125</ele>
        <time>2016-05-28T07:46:03Z</time>
      </trkpt>
      <trkpt lat="45.62286" lon="6.81035">
        <ele>956.64916992188</ele>
        <time>2016-05-28T07:46:13Z</time>
      </trkpt>
      <trkpt lat="45.62296" lon="6.81091">
        <ele>959.05249023438</ele>
        <time>2016-05-28T07:46:24Z</time>
      </trkpt>
      <trkpt lat="45.62304" lon="6.811">
        <ele>959.533203125</ele>
        <time>2016-05-28T07:46:27Z</time>
      </trkpt>
      <trkpt lat="45.6232" lon="6.81089">
        <ele>960.49438476562</ele>
        <time>2016-05-28T07:46:32Z</time>
      </trkpt>
      <trkpt lat="45.62322" lon="6.81085">
        <ele>960.49438476562</ele>
        <time>2016-05-28T07:46:33Z</time>
      </trkpt>
      <trkpt lat="45.62345" lon="6.8103">
        <ele>962.89770507812</ele>
        <time>2016-05-28T07:46:45Z</time>
      </trkpt>
      <trkpt lat="45.62365" lon="6.80984">
        <ele>965.30102539062</ele>
        <time>2016-05-28T07:46:55Z</time>
      </trkpt>
      <trkpt lat="45.62382" lon="6.80944">
        <ele>967.2236328125</ele>
        <time>2016-05-28T07:47:04Z</time>
      </trkpt>
      <trkpt lat="45.62395" lon="6.80913">
        <ele>969.626953125</ele>
        <time>2016-05-28T07:47:11Z</time>
      </trkpt>
      <trkpt lat="45.62411" lon="6.80873">
        <ele>972.51098632812</ele>
        <time>2016-05-28T07:47:20Z</time>
      </trkpt>
      <trkpt lat="45.62435" lon="6.80816">
        <ele>974.43359375</ele>
        <time>2016-05-28T07:47:33Z</time>
      </trkpt>
      <trkpt lat="45.6245" lon="6.80802">
        <ele>975.87548828125</ele>
        <time>2016-05-28T07:47:38Z</time>
      </trkpt>
      <trkpt lat="45.62462" lon="6.80809">
        <ele>977.31762695312</ele>
        <time>2016-05-28T07:47:42Z</time>
      </trkpt>
      <trkpt lat="45.62469" lon="6.8083">
        <ele>978.27880859375</ele>
        <time>2016-05-28T07:47:47Z</time>
      </trkpt>
      <trkpt lat="45.62475" lon="6.80869">
        <ele>980.68212890625</ele>
        <time>2016-05-28T07:47:55Z</time>
      </trkpt>
      <trkpt lat="45.62483" lon="6.80915">
        <ele>982.1240234375</ele>
        <time>2016-05-28T07:48:04Z</time>
      </trkpt>
      <trkpt lat="45.62493" lon="6.80982">
        <ele>985.48852539062</ele>
        <time>2016-05-28T07:48:18Z</time>
      </trkpt>
      <trkpt lat="45.62497" lon="6.81011">
        <ele>986.93041992188</ele>
        <time>2016-05-28T07:48:24Z</time>
      </trkpt>
      <trkpt lat="45.62501" lon="6.81041">
        <ele>989.81469726562</ele>
        <time>2016-05-28T07:48:30Z</time>
      </trkpt>
      <trkpt lat="45.62507" lon="6.81086">
        <ele>991.25659179688</ele>
        <time>2016-05-28T07:48:39Z</time>
      </trkpt>
      <trkpt lat="45.62513" lon="6.81121">
        <ele>993.65991210938</ele>
        <time>2016-05-28T07:48:46Z</time>
      </trkpt>
      <trkpt lat="45.62522" lon="6.81163">
        <ele>995.58251953125</ele>
        <time>2016-05-28T07:48:55Z</time>
      </trkpt>
      <trkpt lat="45.62525" lon="6.81166">
        <ele>995.58251953125</ele>
        <time>2016-05-28T07:48:56Z</time>
      </trkpt>
      <trkpt lat="45.62541" lon="6.81161">
        <ele>996.5439453125</ele>
        <time>2016-05-28T07:49:01Z</time>
      </trkpt>
      <trkpt lat="45.62549" lon="6.81143">
        <ele>997.0244140625</ele>
        <time>2016-05-28T07:49:05Z</time>
      </trkpt>
      <trkpt lat="45.62566" lon="6.81088">
        <ele>997.98583984375</ele>
        <time>2016-05-28T07:49:16Z</time>
      </trkpt>
      <trkpt lat="45.62575" lon="6.81065">
        <ele>999.90844726562</ele>
        <time>2016-05-28T07:49:21Z</time>
      </trkpt>
      <trkpt lat="45.62595" lon="6.81008">
        <ele>1002.3115234375</ele>
        <time>2016-05-28T07:49:33Z</time>
      </trkpt>
      <trkpt lat="45.62598" lon="6.80998">
        <ele>1002.7922363281</ele>
        <time>2016-05-28T07:49:35Z</time>
      </trkpt>
      <trkpt lat="45.62612" lon="6.80973">
        <ele>1004.7150878906</ele>
        <time>2016-05-28T07:49:41Z</time>
      </trkpt>
      <trkpt lat="45.62641" lon="6.80928">
        <ele>1006.1569824219</ele>
        <time>2016-05-28T07:49:52Z</time>
      </trkpt>
      <trkpt lat="45.62651" lon="6.80911">
        <ele>1006.6376953125</ele>
        <time>2016-05-28T07:49:56Z</time>
      </trkpt>
      <trkpt lat="45.62671" lon="6.80907">
        <ele>1007.5991210938</ele>
        <time>2016-05-28T07:50:01Z</time>
      </trkpt>
      <trkpt lat="45.62679" lon="6.80919">
        <ele>1009.041015625</ele>
        <time>2016-05-28T07:50:04Z</time>
      </trkpt>
      <trkpt lat="45.6268" lon="6.80943">
        <ele>1010.0021972656</ele>
        <time>2016-05-28T07:50:08Z</time>
      </trkpt>
      <trkpt lat="45.62679" lon="6.81004">
        <ele>1013.3669433594</ele>
        <time>2016-05-28T07:50:19Z</time>
      </trkpt>
      <trkpt lat="45.62676" lon="6.81063">
        <ele>1016.2507324219</ele>
        <time>2016-05-28T07:50:30Z</time>
      </trkpt>
      <trkpt lat="45.62678" lon="6.81099">
        <ele>1017.6926269531</ele>
        <time>2016-05-28T07:50:37Z</time>
      </trkpt>
      <trkpt lat="45.62683" lon="6.81124">
        <ele>1018.6540527344</ele>
        <time>2016-05-28T07:50:42Z</time>
      </trkpt>
      <trkpt lat="45.62687" lon="6.81159">
        <ele>1020.0961914062</ele>
        <time>2016-05-28T07:50:49Z</time>
      </trkpt>
      <trkpt lat="45.62685" lon="6.812">
        <ele>1021.5380859375</ele>
        <time>2016-05-28T07:50:57Z</time>
      </trkpt>
      <trkpt lat="45.62682" lon="6.8122">
        <ele>1022.4995117188</ele>
        <time>2016-05-28T07:51:01Z</time>
      </trkpt>
      <trkpt lat="45.62674" lon="6.81242">
        <ele>1022.9802246094</ele>
        <time>2016-05-28T07:51:06Z</time>
      </trkpt>
      <trkpt lat="45.62656" lon="6.8126">
        <ele>1024.4221191406</ele>
        <time>2016-05-28T07:51:12Z</time>
      </trkpt>
      <trkpt lat="45.62639" lon="6.81277">
        <ele>1025.8640136719</ele>
        <time>2016-05-28T07:51:18Z</time>
      </trkpt>
      <trkpt lat="45.62633" lon="6.81282">
        <ele>1026.8254394531</ele>
        <time>2016-05-28T07:51:20Z</time>
      </trkpt>
      <trkpt lat="45.62616" lon="6.81297">
        <ele>1028.2673339844</ele>
        <time>2016-05-28T07:51:26Z</time>
      </trkpt>
      <trkpt lat="45.62595" lon="6.81306">
        <ele>1030.6706542969</ele>
        <time>2016-05-28T07:51:32Z</time>
      </trkpt>
      <trkpt lat="45.62575" lon="6.81299">
        <ele>1032.1125488281</ele>
        <time>2016-05-28T07:51:38Z</time>
      </trkpt>
      <trkpt lat="45.6255" lon="6.8128">
        <ele>1033.5544433594</ele>
        <time>2016-05-28T07:51:46Z</time>
      </trkpt>
      <trkpt lat="45.62527" lon="6.81272">
        <ele>1035.4770507812</ele>
        <time>2016-05-28T07:51:53Z</time>
      </trkpt>
      <trkpt lat="45.62513" lon="6.81282">
        <ele>1036.4387207031</ele>
        <time>2016-05-28T07:51:57Z</time>
      </trkpt>
      <trkpt lat="45.62496" lon="6.81299">
        <ele>1036.4387207031</ele>
        <time>2016-05-28T07:52:03Z</time>
      </trkpt>
      <trkpt lat="45.62478" lon="6.81313">
        <ele>1037.3999023438</ele>
        <time>2016-05-28T07:52:09Z</time>
      </trkpt>
      <trkpt lat="45.6246" lon="6.81325">
        <ele>1038.8420410156</ele>
        <time>2016-05-28T07:52:15Z</time>
      </trkpt>
      <trkpt lat="45.62439" lon="6.81344">
        <ele>1039.3225097656</ele>
        <time>2016-05-28T07:52:22Z</time>
      </trkpt>
      <trkpt lat="45.62426" lon="6.81368">
        <ele>1041.2451171875</ele>
        <time>2016-05-28T07:52:28Z</time>
      </trkpt>
      <trkpt lat="45.6241" lon="6.81404">
        <ele>1043.1677246094</ele>
        <time>2016-05-28T07:52:36Z</time>
      </trkpt>
      <trkpt lat="45.62397" lon="6.81422">
        <ele>1044.6096191406</ele>
        <time>2016-05-28T07:52:41Z</time>
      </trkpt>
      <trkpt lat="45.62378" lon="6.81436">
        <ele>1045.0903320312</ele>
        <time>2016-05-28T07:52:47Z</time>
      </trkpt>
      <trkpt lat="45.62358" lon="6.81445">
        <ele>1046.5324707031</ele>
        <time>2016-05-28T07:52:53Z</time>
      </trkpt>
      <trkpt lat="45.62341" lon="6.81453">
        <ele>1047.4936523438</ele>
        <time>2016-05-28T07:52:58Z</time>
      </trkpt>
      <trkpt lat="45.62317" lon="6.81469">
        <ele>1049.4162597656</ele>
        <time>2016-05-28T07:53:05Z</time>
      </trkpt>
      <trkpt lat="45.62292" lon="6.8149">
        <ele>1050.8581542969</ele>
        <time>2016-05-28T07:53:13Z</time>
      </trkpt>
      <trkpt lat="45.62269" lon="6.81508">
        <ele>1052.3002929688</ele>
        <time>2016-05-28T07:53:20Z</time>
      </trkpt>
      <trkpt lat="45.6225" lon="6.81533">
        <ele>1053.7424316406</ele>
        <time>2016-05-28T07:53:27Z</time>
      </trkpt>
      <trkpt lat="45.62238" lon="6.81565">
        <ele>1054.7036132812</ele>
        <time>2016-05-28T07:53:34Z</time>
      </trkpt>
      <trkpt lat="45.62231" lon="6.81601">
        <ele>1056.1455078125</ele>
        <time>2016-05-28T07:53:41Z</time>
      </trkpt>
      <trkpt lat="45.62221" lon="6.81627">
        <ele>1057.5876464844</ele>
        <time>2016-05-28T07:53:47Z</time>
      </trkpt>
      <trkpt lat="45.62205" lon="6.81642">
        <ele>1058.548828125</ele>
        <time>2016-05-28T07:53:52Z</time>
      </trkpt>
      <trkpt lat="45.62174" lon="6.81668">
        <ele>1061.4328613281</ele>
        <time>2016-05-28T07:54:02Z</time>
      </trkpt>
      <trkpt lat="45.6215" lon="6.81694">
        <ele>1062.8747558594</ele>
        <time>2016-05-28T07:54:10Z</time>
      </trkpt>
      <trkpt lat="45.62123" lon="6.81734">
        <ele>1063.8359375</ele>
        <time>2016-05-28T07:54:20Z</time>
      </trkpt>
      <trkpt lat="45.62101" lon="6.8178">
        <ele>1065.7587890625</ele>
        <time>2016-05-28T07:54:30Z</time>
      </trkpt>
      <trkpt lat="45.62091" lon="6.81816">
        <ele>1067.6811523438</ele>
        <time>2016-05-28T07:54:37Z</time>
      </trkpt>
      <trkpt lat="45.62082" lon="6.81853">
        <ele>1069.1235351562</ele>
        <time>2016-05-28T07:54:44Z</time>
      </trkpt>
      <trkpt lat="45.62078" lon="6.81876">
        <ele>1070.5654296875</ele>
        <time>2016-05-28T07:54:48Z</time>
      </trkpt>
      <trkpt lat="45.62069" lon="6.81928">
        <ele>1072.4880371094</ele>
        <time>2016-05-28T07:54:57Z</time>
      </trkpt>
      <trkpt lat="45.62056" lon="6.81964">
        <ele>1073.4494628906</ele>
        <time>2016-05-28T07:55:04Z</time>
      </trkpt>
      <trkpt lat="45.62028" lon="6.82015">
        <ele>1076.3332519531</ele>
        <time>2016-05-28T07:55:15Z</time>
      </trkpt>
      <trkpt lat="45.62004" lon="6.82059">
        <ele>1078.255859375</ele>
        <time>2016-05-28T07:55:25Z</time>
      </trkpt>
      <trkpt lat="45.61987" lon="6.82092">
        <ele>1080.1784667969</ele>
        <time>2016-05-28T07:55:33Z</time>
      </trkpt>
      <trkpt lat="45.6197" lon="6.82126">
        <ele>1081.1398925781</ele>
        <time>2016-05-28T07:55:41Z</time>
      </trkpt>
      <trkpt lat="45.61952" lon="6.82162">
        <ele>1082.1010742188</ele>
        <time>2016-05-28T07:55:50Z</time>
      </trkpt>
      <trkpt lat="45.61939" lon="6.82188">
        <ele>1083.0622558594</ele>
        <time>2016-05-28T07:55:56Z</time>
      </trkpt>
      <trkpt lat="45.61924" lon="6.82222">
        <ele>1084.9853515625</ele>
        <time>2016-05-28T07:56:03Z</time>
      </trkpt>
      <trkpt lat="45.61907" lon="6.82263">
        <ele>1086.9077148438</ele>
        <time>2016-05-28T07:56:12Z</time>
      </trkpt>
      <trkpt lat="45.61894" lon="6.82301">
        <ele>1089.3110351562</ele>
        <time>2016-05-28T07:56:20Z</time>
      </trkpt>
      <trkpt lat="45.61893" lon="6.82316">
        <ele>1090.7529296875</ele>
        <time>2016-05-28T07:56:23Z</time>
      </trkpt>
      <trkpt lat="45.61902" lon="6.82325">
        <ele>1091.2336425781</ele>
        <time>2016-05-28T07:56:27Z</time>
      </trkpt>
      <trkpt lat="45.6191" lon="6.82316">
        <ele>1091.7143554688</ele>
        <time>2016-05-28T07:56:30Z</time>
      </trkpt>
      <trkpt lat="45.61913" lon="6.82305">
        <ele>1091.2336425781</ele>
        <time>2016-05-28T07:56:32Z</time>
      </trkpt>
      <trkpt lat="45.61925" lon="6.82264">
        <ele>1091.7143554688</ele>
        <time>2016-05-28T07:56:39Z</time>
      </trkpt>
      <trkpt lat="45.61945" lon="6.82234">
        <ele>1093.15625</ele>
        <time>2016-05-28T07:56:46Z</time>
      </trkpt>
      <trkpt lat="45.61956" lon="6.82224">
        <ele>1095.0788574219</ele>
        <time>2016-05-28T07:56:49Z</time>
      </trkpt>
      <trkpt lat="45.61994" lon="6.82188">
        <ele>1097.4821777344</ele>
        <time>2016-05-28T07:57:00Z</time>
      </trkpt>
      <trkpt lat="45.62018" lon="6.82146">
        <ele>1099.8854980469</ele>
        <time>2016-05-28T07:57:09Z</time>
      </trkpt>
      <trkpt lat="45.62042" lon="6.82111">
        <ele>1100.3664550781</ele>
        <time>2016-05-28T07:57:17Z</time>
      </trkpt>
      <trkpt lat="45.6207" lon="6.82086">
        <ele>1101.8083496094</ele>
        <time>2016-05-28T07:57:25Z</time>
      </trkpt>
      <trkpt lat="45.62101" lon="6.82048">
        <ele>1103.7309570312</ele>
        <time>2016-05-28T07:57:35Z</time>
      </trkpt>
      <trkpt lat="45.62107" lon="6.82039">
        <ele>1105.1728515625</ele>
        <time>2016-05-28T07:57:37Z</time>
      </trkpt>
      <trkpt lat="45.6214" lon="6.81995">
        <ele>1108.0568847656</ele>
        <time>2016-05-28T07:57:48Z</time>
      </trkpt>
      <trkpt lat="45.6217" lon="6.81956">
        <ele>1109.9792480469</ele>
        <time>2016-05-28T07:57:58Z</time>
      </trkpt>
      <trkpt lat="45.62196" lon="6.81922">
        <ele>1112.3825683594</ele>
        <time>2016-05-28T07:58:07Z</time>
      </trkpt>
      <trkpt lat="45.62199" lon="6.81918">
        <ele>1111.9020996094</ele>
        <time>2016-05-28T07:58:08Z</time>
      </trkpt>
      <trkpt lat="45.62228" lon="6.819">
        <ele>1114.3051757812</ele>
        <time>2016-05-28T07:58:16Z</time>
      </trkpt>
      <trkpt lat="45.6226" lon="6.8189">
        <ele>1116.2280273438</ele>
        <time>2016-05-28T07:58:24Z</time>
      </trkpt>
      <trkpt lat="45.62288" lon="6.81866">
        <ele>1117.669921875</ele>
        <time>2016-05-28T07:58:32Z</time>
      </trkpt>
      <trkpt lat="45.62316" lon="6.81824">
        <ele>1120.0732421875</ele>
        <time>2016-05-28T07:58:42Z</time>
      </trkpt>
      <trkpt lat="45.62342" lon="6.81789">
        <ele>1122.4765625</ele>
        <time>2016-05-28T07:58:51Z</time>
      </trkpt>
      <trkpt lat="45.62367" lon="6.81773">
        <ele>1124.3991699219</ele>
        <time>2016-05-28T07:58:58Z</time>
      </trkpt>
      <trkpt lat="45.62381" lon="6.81767">
        <ele>1125.3603515625</ele>
        <time>2016-05-28T07:59:02Z</time>
      </trkpt>
      <trkpt lat="45.62399" lon="6.81759">
        <ele>1126.3217773438</ele>
        <time>2016-05-28T07:59:07Z</time>
      </trkpt>
      <trkpt lat="45.62422" lon="6.81753">
        <ele>1127.283203125</ele>
        <time>2016-05-28T07:59:13Z</time>
      </trkpt>
      <trkpt lat="45.6246" lon="6.81742">
        <ele>1129.2055664062</ele>
        <time>2016-05-28T07:59:23Z</time>
      </trkpt>
      <trkpt lat="45.62499" lon="6.81741">
        <ele>1133.0510253906</ele>
        <time>2016-05-28T07:59:33Z</time>
      </trkpt>
      <trkpt lat="45.62526" lon="6.81741">
        <ele>1133.5317382812</ele>
        <time>2016-05-28T07:59:40Z</time>
      </trkpt>
      <trkpt lat="45.62534" lon="6.81741">
        <ele>1134.9738769531</ele>
        <time>2016-05-28T07:59:42Z</time>
      </trkpt>
      <trkpt lat="45.62568" lon="6.81733">
        <ele>1136.8962402344</ele>
        <time>2016-05-28T07:59:51Z</time>
      </trkpt>
      <trkpt lat="45.62588" lon="6.81718">
        <ele>1137.8576660156</ele>
        <time>2016-05-28T07:59:57Z</time>
      </trkpt>
      <trkpt lat="45.62604" lon="6.81703">
        <ele>1137.8576660156</ele>
        <time>2016-05-28T08:00:02Z</time>
      </trkpt>
      <trkpt lat="45.62625" lon="6.81681">
        <ele>1139.2995605469</ele>
        <time>2016-05-28T08:00:09Z</time>
      </trkpt>
      <trkpt lat="45.62643" lon="6.81662">
        <ele>1140.2609863281</ele>
        <time>2016-05-28T08:00:15Z</time>
      </trkpt>
      <trkpt lat="45.62671" lon="6.8162">
        <ele>1142.18359375</ele>
        <time>2016-05-28T08:00:26Z</time>
      </trkpt>
      <trkpt lat="45.62686" lon="6.81596">
        <ele>1143.1447753906</ele>
        <time>2016-05-28T08:00:32Z</time>
      </trkpt>
      <trkpt lat="45.62692" lon="6.81591">
        <ele>1143.1447753906</ele>
        <time>2016-05-28T08:00:34Z</time>
      </trkpt>
      <trkpt lat="45.62702" lon="6.81601">
        <ele>1143.1447753906</ele>
        <time>2016-05-28T08:00:38Z</time>
      </trkpt>
      <trkpt lat="45.62699" lon="6.81611">
        <ele>1145.0673828125</ele>
        <time>2016-05-28T08:00:40Z</time>
      </trkpt>
      <trkpt lat="45.62682" lon="6.81648">
        <ele>1146.5095214844</ele>
        <time>2016-05-28T08:00:48Z</time>
      </trkpt>
      <trkpt lat="45.6267" lon="6.81675">
        <ele>1146.9899902344</ele>
        <time>2016-05-28T08:00:54Z</time>
      </trkpt>
      <trkpt lat="45.62662" lon="6.81693">
        <ele>1148.4321289062</ele>
        <time>2016-05-28T08:00:58Z</time>
      </trkpt>
      <trkpt lat="45.62642" lon="6.8173">
        <ele>1150.3549804688</ele>
        <time>2016-05-28T08:01:07Z</time>
      </trkpt>
      <trkpt lat="45.62623" lon="6.81754">
        <ele>1152.27734375</ele>
        <time>2016-05-28T08:01:14Z</time>
      </trkpt>
      <trkpt lat="45.62605" lon="6.81784">
        <ele>1153.7194824219</ele>
        <time>2016-05-28T08:01:22Z</time>
      </trkpt>
      <trkpt lat="45.62586" lon="6.81805">
        <ele>1154.2001953125</ele>
        <time>2016-05-28T08:01:29Z</time>
      </trkpt>
      <trkpt lat="45.62563" lon="6.81815">
        <ele>1156.1225585938</ele>
        <time>2016-05-28T08:01:36Z</time>
      </trkpt>
      <trkpt lat="45.62556" lon="6.81816">
        <ele>1157.083984375</ele>
        <time>2016-05-28T08:01:38Z</time>
      </trkpt>
      <trkpt lat="45.62531" lon="6.81822">
        <ele>1158.5258789062</ele>
        <time>2016-05-28T08:01:45Z</time>
      </trkpt>
      <trkpt lat="45.62524" lon="6.81827">
        <ele>1159.9677734375</ele>
        <time>2016-05-28T08:01:47Z</time>
      </trkpt>
      <trkpt lat="45.62498" lon="6.81851">
        <ele>1161.4099121094</ele>
        <time>2016-05-28T08:01:55Z</time>
      </trkpt>
      <trkpt lat="45.62469" lon="6.81875">
        <ele>1162.8518066406</ele>
        <time>2016-05-28T08:02:04Z</time>
      </trkpt>
      <trkpt lat="45.62447" lon="6.81893">
        <ele>1164.2939453125</ele>
        <time>2016-05-28T08:02:11Z</time>
      </trkpt>
      <trkpt lat="45.62421" lon="6.8191">
        <ele>1165.7360839844</ele>
        <time>2016-05-28T08:02:19Z</time>
      </trkpt>
      <trkpt lat="45.62393" lon="6.8193">
        <ele>1167.6584472656</ele>
        <time>2016-05-28T08:02:28Z</time>
      </trkpt>
      <trkpt lat="45.62379" lon="6.81945">
        <ele>1169.1005859375</ele>
        <time>2016-05-28T08:02:33Z</time>
      </trkpt>
      <trkpt lat="45.62351" lon="6.81977">
        <ele>1171.5036621094</ele>
        <time>2016-05-28T08:02:42Z</time>
      </trkpt>
      <trkpt lat="45.62333" lon="6.82006">
        <ele>1172.4650878906</ele>
        <time>2016-05-28T08:02:49Z</time>
      </trkpt>
      <trkpt lat="45.62315" lon="6.82043">
        <ele>1173.9069824219</ele>
        <time>2016-05-28T08:02:58Z</time>
      </trkpt>
      <trkpt lat="45.62299" lon="6.82069">
        <ele>1175.8295898438</ele>
        <time>2016-05-28T08:03:05Z</time>
      </trkpt>
      <trkpt lat="45.62278" lon="6.82084">
        <ele>1176.3103027344</ele>
        <time>2016-05-28T08:03:11Z</time>
      </trkpt>
      <trkpt lat="45.6226" lon="6.82093">
        <ele>1177.2717285156</ele>
        <time>2016-05-28T08:03:16Z</time>
      </trkpt>
      <trkpt lat="45.62243" lon="6.82105">
        <ele>1178.2329101562</ele>
        <time>2016-05-28T08:03:21Z</time>
      </trkpt>
      <trkpt lat="45.62224" lon="6.82128">
        <ele>1179.6748046875</ele>
        <time>2016-05-28T08:03:28Z</time>
      </trkpt>
      <trkpt lat="45.62208" lon="6.82158">
        <ele>1182.0783691406</ele>
        <time>2016-05-28T08:03:35Z</time>
      </trkpt>
      <trkpt lat="45.62198" lon="6.82187">
        <ele>1183.0395507812</ele>
        <time>2016-05-28T08:03:41Z</time>
      </trkpt>
      <trkpt lat="45.62189" lon="6.82223">
        <ele>1184.0009765625</ele>
        <time>2016-05-28T08:03:48Z</time>
      </trkpt>
      <trkpt lat="45.62173" lon="6.82259">
        <ele>1185.9235839844</ele>
        <time>2016-05-28T08:03:56Z</time>
      </trkpt>
      <trkpt lat="45.62154" lon="6.8228">
        <ele>1186.404296875</ele>
        <time>2016-05-28T08:04:03Z</time>
      </trkpt>
      <trkpt lat="45.62135" lon="6.82296">
        <ele>1187.3654785156</ele>
        <time>2016-05-28T08:04:10Z</time>
      </trkpt>
      <trkpt lat="45.62121" lon="6.82318">
        <ele>1188.3269042969</ele>
        <time>2016-05-28T08:04:16Z</time>
      </trkpt>
      <trkpt lat="45.62106" lon="6.82354">
        <ele>1191.2106933594</ele>
        <time>2016-05-28T08:04:24Z</time>
      </trkpt>
      <trkpt lat="45.62093" lon="6.82389">
        <ele>1193.1333007812</ele>
        <time>2016-05-28T08:04:32Z</time>
      </trkpt>
      <trkpt lat="45.62078" lon="6.82431">
        <ele>1194.0947265625</ele>
        <time>2016-05-28T08:04:41Z</time>
      </trkpt>
      <trkpt lat="45.62066" lon="6.82469">
        <ele>1196.4982910156</ele>
        <time>2016-05-28T08:04:49Z</time>
      </trkpt>
      <trkpt lat="45.62055" lon="6.82495">
        <ele>1198.9013671875</ele>
        <time>2016-05-28T08:04:55Z</time>
      </trkpt>
      <trkpt lat="45.62033" lon="6.82533">
        <ele>1199.8627929688</ele>
        <time>2016-05-28T08:05:05Z</time>
      </trkpt>
      <trkpt lat="45.62031" lon="6.82538">
        <ele>1199.3820800781</ele>
        <time>2016-05-28T08:05:06Z</time>
      </trkpt>
      <trkpt lat="45.62038" lon="6.82554">
        <ele>1200.8239746094</ele>
        <time>2016-05-28T08:05:10Z</time>
      </trkpt>
      <trkpt lat="45.62049" lon="6.82548">
        <ele>1200.8239746094</ele>
        <time>2016-05-28T08:05:13Z</time>
      </trkpt>
      <trkpt lat="45.62051" lon="6.82544">
        <ele>1200.3435058594</ele>
        <time>2016-05-28T08:05:14Z</time>
      </trkpt>
      <trkpt lat="45.62073" lon="6.82499">
        <ele>1202.2658691406</ele>
        <time>2016-05-28T08:05:23Z</time>
      </trkpt>
      <trkpt lat="45.6209" lon="6.82451">
        <ele>1204.1887207031</ele>
        <time>2016-05-28T08:05:32Z</time>
      </trkpt>
      <trkpt lat="45.62109" lon="6.82405">
        <ele>1205.1499023438</ele>
        <time>2016-05-28T08:05:41Z</time>
      </trkpt>
      <trkpt lat="45.62136" lon="6.82375">
        <ele>1206.591796875</ele>
        <time>2016-05-28T08:05:50Z</time>
      </trkpt>
      <trkpt lat="45.62165" lon="6.82341">
        <ele>1208.5144042969</ele>
        <time>2016-05-28T08:06:00Z</time>
      </trkpt>
      <trkpt lat="45.62183" lon="6.82317">
        <ele>1210.9177246094</ele>
        <time>2016-05-28T08:06:07Z</time>
      </trkpt>
      <trkpt lat="45.62205" lon="6.82291">
        <ele>1211.8791503906</ele>
        <time>2016-05-28T08:06:15Z</time>
      </trkpt>
      <trkpt lat="45.62229" lon="6.82269">
        <ele>1213.8017578125</ele>
        <time>2016-05-28T08:06:23Z</time>
      </trkpt>
      <trkpt lat="45.62247" lon="6.82255">
        <ele>1214.2824707031</ele>
        <time>2016-05-28T08:06:29Z</time>
      </trkpt>
      <trkpt lat="45.62276" lon="6.82238">
        <ele>1216.6857910156</ele>
        <time>2016-05-28T08:06:38Z</time>
      </trkpt>
      <trkpt lat="45.62301" lon="6.82217">
        <ele>1217.6469726562</ele>
        <time>2016-05-28T08:06:46Z</time>
      </trkpt>
      <trkpt lat="45.62322" lon="6.82199">
        <ele>1219.0891113281</ele>
        <time>2016-05-28T08:06:53Z</time>
      </trkpt>
      <trkpt lat="45.62342" lon="6.82178">
        <ele>1220.5310058594</ele>
        <time>2016-05-28T08:07:00Z</time>
      </trkpt>
      <trkpt lat="45.62357" lon="6.82166">
        <ele>1221.4921875</ele>
        <time>2016-05-28T08:07:05Z</time>
      </trkpt>
      <trkpt lat="45.62364" lon="6.82162">
        <ele>1221.9729003906</ele>
        <time>2016-05-28T08:07:07Z</time>
      </trkpt>
      <trkpt lat="45.62386" lon="6.82148">
        <ele>1223.4150390625</ele>
        <time>2016-05-28T08:07:13Z</time>
      </trkpt>
      <trkpt lat="45.62406" lon="6.82134">
        <ele>1224.8569335938</ele>
        <time>2016-05-28T08:07:19Z</time>
      </trkpt>
      <trkpt lat="45.62441" lon="6.82114">
        <ele>1227.2602539062</ele>
        <time>2016-05-28T08:07:29Z</time>
      </trkpt>
      <trkpt lat="45.6247" lon="6.82107">
        <ele>1228.7023925781</ele>
        <time>2016-05-28T08:07:37Z</time>
      </trkpt>
      <trkpt lat="45.62498" lon="6.82102">
        <ele>1230.1442871094</ele>
        <time>2016-05-28T08:07:45Z</time>
      </trkpt>
      <trkpt lat="45.62522" lon="6.82095">
        <ele>1231.1057128906</ele>
        <time>2016-05-28T08:07:52Z</time>
      </trkpt>
      <trkpt lat="45.62551" lon="6.82091">
        <ele>1233.0280761719</ele>
        <time>2016-05-28T08:08:00Z</time>
      </trkpt>
      <trkpt lat="45.6258" lon="6.82088">
        <ele>1234.4702148438</ele>
        <time>2016-05-28T08:08:08Z</time>
      </trkpt>
      <trkpt lat="45.62607" lon="6.82085">
        <ele>1236.8732910156</ele>
        <time>2016-05-28T08:08:15Z</time>
      </trkpt>
      <trkpt lat="45.62639" lon="6.82075">
        <ele>1237.3540039062</ele>
        <time>2016-05-28T08:08:24Z</time>
      </trkpt>
      <trkpt lat="45.62663" lon="6.82058">
        <ele>1239.2766113281</ele>
        <time>2016-05-28T08:08:31Z</time>
      </trkpt>
      <trkpt lat="45.62686" lon="6.82034">
        <ele>1241.19921875</ele>
        <time>2016-05-28T08:08:39Z</time>
      </trkpt>
      <trkpt lat="45.62702" lon="6.82025">
        <ele>1241.19921875</ele>
        <time>2016-05-28T08:08:44Z</time>
      </trkpt>
      <trkpt lat="45.62722" lon="6.82026">
        <ele>1242.1606445312</ele>
        <time>2016-05-28T08:08:50Z</time>
      </trkpt>
      <trkpt lat="45.62745" lon="6.82032">
        <ele>1244.0834960938</ele>
        <time>2016-05-28T08:08:57Z</time>
      </trkpt>
      <trkpt lat="45.62765" lon="6.82031">
        <ele>1245.525390625</ele>
        <time>2016-05-28T08:09:03Z</time>
      </trkpt>
      <trkpt lat="45.62786" lon="6.82029">
        <ele>1246.0061035156</ele>
        <time>2016-05-28T08:09:09Z</time>
      </trkpt>
      <trkpt lat="45.62811" lon="6.82025">
        <ele>1248.8898925781</ele>
        <time>2016-05-28T08:09:16Z</time>
      </trkpt>
      <trkpt lat="45.62836" lon="6.82014">
        <ele>1249.8513183594</ele>
        <time>2016-05-28T08:09:23Z</time>
      </trkpt>
      <trkpt lat="45.62861" lon="6.81998">
        <ele>1250.8125</ele>
        <time>2016-05-28T08:09:31Z</time>
      </trkpt>
      <trkpt lat="45.62872" lon="6.82008">
        <ele>1251.7739257812</ele>
        <time>2016-05-28T08:09:35Z</time>
      </trkpt>
      <trkpt lat="45.62868" lon="6.8202">
        <ele>1252.2543945312</ele>
        <time>2016-05-28T08:09:38Z</time>
      </trkpt>
      <trkpt lat="45.62865" lon="6.82022">
        <ele>1251.7739257812</ele>
        <time>2016-05-28T08:09:39Z</time>
      </trkpt>
      <trkpt lat="45.62836" lon="6.82038">
        <ele>1253.6965332031</ele>
        <time>2016-05-28T08:09:48Z</time>
      </trkpt>
      <trkpt lat="45.62814" lon="6.82045">
        <ele>1255.1384277344</ele>
        <time>2016-05-28T08:09:55Z</time>
      </trkpt>
      <trkpt lat="45.62796" lon="6.82052">
        <ele>1256.099609375</ele>
        <time>2016-05-28T08:10:01Z</time>
      </trkpt>
      <trkpt lat="45.62784" lon="6.82058">
        <ele>1257.0610351562</ele>
        <time>2016-05-28T08:10:06Z</time>
      </trkpt>
      <trkpt lat="45.62771" lon="6.82064">
        <ele>1258.0224609375</ele>
        <time>2016-05-28T08:10:11Z</time>
      </trkpt>
      <trkpt lat="45.62757" lon="6.82069">
        <ele>1259.4643554688</ele>
        <time>2016-05-28T08:10:16Z</time>
      </trkpt>
      <trkpt lat="45.6274" lon="6.82075">
        <ele>1259.9448242188</ele>
        <time>2016-05-28T08:10:21Z</time>
      </trkpt>
      <trkpt lat="45.62722" lon="6.82083">
        <ele>1261.8679199219</ele>
        <time>2016-05-28T08:10:26Z</time>
      </trkpt>
      <trkpt lat="45.62709" lon="6.82099">
        <ele>1262.8291015625</ele>
        <time>2016-05-28T08:10:31Z</time>
      </trkpt>
      <trkpt lat="45.62701" lon="6.82115">
        <ele>1264.2709960938</ele>
        <time>2016-05-28T08:10:35Z</time>
      </trkpt>
      <trkpt lat="45.62699" lon="6.82119">
        <ele>1264.7517089844</ele>
        <time>2016-05-28T08:10:36Z</time>
      </trkpt>
      <trkpt lat="45.6269" lon="6.82132">
        <ele>1265.7131347656</ele>
        <time>2016-05-28T08:10:40Z</time>
      </trkpt>
      <trkpt lat="45.62671" lon="6.8215">
        <ele>1267.1550292969</ele>
        <time>2016-05-28T08:10:46Z</time>
      </trkpt>
      <trkpt lat="45.62644" lon="6.82167">
        <ele>1268.5969238281</ele>
        <time>2016-05-28T08:10:54Z</time>
      </trkpt>
      <trkpt lat="45.6262" lon="6.8218">
        <ele>1270.0388183594</ele>
        <time>2016-05-28T08:11:01Z</time>
      </trkpt>
      <trkpt lat="45.62599" lon="6.82183">
        <ele>1270.51953125</ele>
        <time>2016-05-28T08:11:07Z</time>
      </trkpt>
      <trkpt lat="45.62585" lon="6.82181">
        <ele>1271.4807128906</ele>
        <time>2016-05-28T08:11:11Z</time>
      </trkpt>
      <trkpt lat="45.62564" lon="6.82182">
        <ele>1273.8840332031</ele>
        <time>2016-05-28T08:11:17Z</time>
      </trkpt>
      <trkpt lat="45.6254" lon="6.82189">
        <ele>1273.8840332031</ele>
        <time>2016-05-28T08:11:24Z</time>
      </trkpt>
      <trkpt lat="45.62517" lon="6.82203">
        <ele>1276.2875976562</ele>
        <time>2016-05-28T08:11:31Z</time>
      </trkpt>
      <trkpt lat="45.62495" lon="6.82212">
        <ele>1277.7294921875</ele>
        <time>2016-05-28T08:11:37Z</time>
      </trkpt>
      <trkpt lat="45.6248" lon="6.82217">
        <ele>1277.7294921875</ele>
        <time>2016-05-28T08:11:42Z</time>
      </trkpt>
      <trkpt lat="45.62455" lon="6.82222">
        <ele>1279.6520996094</ele>
        <time>2016-05-28T08:11:49Z</time>
      </trkpt>
      <trkpt lat="45.62432" lon="6.82237">
        <ele>1281.5747070312</ele>
        <time>2016-05-28T08:11:56Z</time>
      </trkpt>
      <trkpt lat="45.62415" lon="6.82255">
        <ele>1282.5361328125</ele>
        <time>2016-05-28T08:12:02Z</time>
      </trkpt>
      <trkpt lat="45.624" lon="6.82277">
        <ele>1283.4973144531</ele>
        <time>2016-05-28T08:12:08Z</time>
      </trkpt>
      <trkpt lat="45.62385" lon="6.823">
        <ele>1285.419921875</ele>
        <time>2016-05-28T08:12:14Z</time>
      </trkpt>
      <trkpt lat="45.62374" lon="6.8232">
        <ele>1286.3813476562</ele>
        <time>2016-05-28T08:12:19Z</time>
      </trkpt>
      <trkpt lat="45.6236" lon="6.82354">
        <ele>1287.8232421875</ele>
        <time>2016-05-28T08:12:27Z</time>
      </trkpt>
      <trkpt lat="45.62354" lon="6.82367">
        <ele>1289.7458496094</ele>
        <time>2016-05-28T08:12:30Z</time>
      </trkpt>
      <trkpt lat="45.62335" lon="6.82405">
        <ele>1292.6301269531</ele>
        <time>2016-05-28T08:12:39Z</time>
      </trkpt>
      <trkpt lat="45.62314" lon="6.82457">
        <ele>1294.5524902344</ele>
        <time>2016-05-28T08:12:51Z</time>
      </trkpt>
      <trkpt lat="45.62298" lon="6.82501">
        <ele>1295.5139160156</ele>
        <time>2016-05-28T08:13:01Z</time>
      </trkpt>
      <trkpt lat="45.62289" lon="6.82532">
        <ele>1296.9558105469</ele>
        <time>2016-05-28T08:13:08Z</time>
      </trkpt>
      <trkpt lat="45.62279" lon="6.82574">
        <ele>1299.3591308594</ele>
        <time>2016-05-28T08:13:17Z</time>
      </trkpt>
      <trkpt lat="45.62277" lon="6.82615">
        <ele>1300.3205566406</ele>
        <time>2016-05-28T08:13:25Z</time>
      </trkpt>
      <trkpt lat="45.62285" lon="6.82642">
        <ele>1301.7624511719</ele>
        <time>2016-05-28T08:13:31Z</time>
      </trkpt>
      <trkpt lat="45.62289" lon="6.82656">
        <ele>1303.2043457031</ele>
        <time>2016-05-28T08:13:34Z</time>
      </trkpt>
      <trkpt lat="45.62301" lon="6.82703">
        <ele>1304.1657714844</ele>
        <time>2016-05-28T08:13:43Z</time>
      </trkpt>
      <trkpt lat="45.623" lon="6.82743">
        <ele>1304.6462402344</ele>
        <time>2016-05-28T08:13:50Z</time>
      </trkpt>
      <trkpt lat="45.62298" lon="6.82754">
        <ele>1304.6462402344</ele>
        <time>2016-05-28T08:13:52Z</time>
      </trkpt>
      <trkpt lat="45.6228" lon="6.82809">
        <ele>1305.126953125</ele>
        <time>2016-05-28T08:14:02Z</time>
      </trkpt>
      <trkpt lat="45.62277" lon="6.82831">
        <ele>1305.126953125</ele>
        <time>2016-05-28T08:14:06Z</time>
      </trkpt>
      <trkpt lat="45.62289" lon="6.82836">
        <ele>1305.6076660156</ele>
        <time>2016-05-28T08:14:10Z</time>
      </trkpt>
      <trkpt lat="45.62298" lon="6.82818">
        <ele>1307.0495605469</ele>
        <time>2016-05-28T08:14:14Z</time>
      </trkpt>
      <trkpt lat="45.62311" lon="6.82769">
        <ele>1308.9724121094</ele>
        <time>2016-05-28T08:14:24Z</time>
      </trkpt>
      <trkpt lat="45.62319" lon="6.82724">
        <ele>1310.4143066406</ele>
        <time>2016-05-28T08:14:33Z</time>
      </trkpt>
      <trkpt lat="45.6232" lon="6.82678">
        <ele>1312.8176269531</ele>
        <time>2016-05-28T08:14:42Z</time>
      </trkpt>
      <trkpt lat="45.62316" lon="6.82636">
        <ele>1315.2209472656</ele>
        <time>2016-05-28T08:14:50Z</time>
      </trkpt>
      <trkpt lat="45.62316" lon="6.82586">
        <ele>1316.6628417969</ele>
        <time>2016-05-28T08:15:00Z</time>
      </trkpt>
      <trkpt lat="45.62328" lon="6.82544">
        <ele>1319.0661621094</ele>
        <time>2016-05-28T08:15:09Z</time>
      </trkpt>
      <trkpt lat="45.6234" lon="6.82515">
        <ele>1319.546875</ele>
        <time>2016-05-28T08:15:16Z</time>
      </trkpt>
      <trkpt lat="45.62356" lon="6.82489">
        <ele>1320.5080566406</ele>
        <time>2016-05-28T08:15:23Z</time>
      </trkpt>
      <trkpt lat="45.62368" lon="6.82473">
        <ele>1321.9499511719</ele>
        <time>2016-05-28T08:15:28Z</time>
      </trkpt>
      <trkpt lat="45.62391" lon="6.82451">
        <ele>1324.353515625</ele>
        <time>2016-05-28T08:15:36Z</time>
      </trkpt>
      <trkpt lat="45.62411" lon="6.82431">
        <ele>1325.3146972656</ele>
        <time>2016-05-28T08:15:43Z</time>
      </trkpt>
      <trkpt lat="45.62427" lon="6.82404">
        <ele>1326.7568359375</ele>
        <time>2016-05-28T08:15:50Z</time>
      </trkpt>
      <trkpt lat="45.62442" lon="6.82383">
        <ele>1327.2375488281</ele>
        <time>2016-05-28T08:15:57Z</time>
      </trkpt>
      <trkpt lat="45.62459" lon="6.82383">
        <ele>1328.6794433594</ele>
        <time>2016-05-28T08:16:02Z</time>
      </trkpt>
      <trkpt lat="45.6248" lon="6.82394">
        <ele>1329.1599121094</ele>
        <time>2016-05-28T08:16:08Z</time>
      </trkpt>
      <trkpt lat="45.625" lon="6.82395">
        <ele>1331.0827636719</ele>
        <time>2016-05-28T08:16:14Z</time>
      </trkpt>
      <trkpt lat="45.62513" lon="6.8239">
        <ele>1332.0439453125</ele>
        <time>2016-05-28T08:16:18Z</time>
      </trkpt>
      <trkpt lat="45.62538" lon="6.82379">
        <ele>1333.0051269531</ele>
        <time>2016-05-28T08:16:26Z</time>
      </trkpt>
      <trkpt lat="45.62557" lon="6.82372">
        <ele>1333.4858398438</ele>
        <time>2016-05-28T08:16:32Z</time>
      </trkpt>
      <trkpt lat="45.62574" lon="6.82372">
        <ele>1335.8891601562</ele>
        <time>2016-05-28T08:16:37Z</time>
      </trkpt>
      <trkpt lat="45.62597" lon="6.82361">
        <ele>1336.3698730469</ele>
        <time>2016-05-28T08:16:44Z</time>
      </trkpt>
      <trkpt lat="45.62616" lon="6.82348">
        <ele>1338.2924804688</ele>
        <time>2016-05-28T08:16:50Z</time>
      </trkpt>
      <trkpt lat="45.62629" lon="6.82347">
        <ele>1339.2536621094</ele>
        <time>2016-05-28T08:16:54Z</time>
      </trkpt>
      <trkpt lat="45.62646" lon="6.82357">
        <ele>1340.2153320312</ele>
        <time>2016-05-28T08:16:59Z</time>
      </trkpt>
      <trkpt lat="45.62669" lon="6.82365">
        <ele>1340.6958007812</ele>
        <time>2016-05-28T08:17:06Z</time>
      </trkpt>
      <trkpt lat="45.62689" lon="6.82361">
        <ele>1342.6186523438</ele>
        <time>2016-05-28T08:17:12Z</time>
      </trkpt>
      <trkpt lat="45.62713" lon="6.82353">
        <ele>1344.060546875</ele>
        <time>2016-05-28T08:17:19Z</time>
      </trkpt>
      <trkpt lat="45.62741" lon="6.82356">
        <ele>1345.5024414062</ele>
        <time>2016-05-28T08:17:27Z</time>
      </trkpt>
      <trkpt lat="45.62767" lon="6.82361">
        <ele>1346.9443359375</ele>
        <time>2016-05-28T08:17:35Z</time>
      </trkpt>
      <trkpt lat="45.62791" lon="6.82357">
        <ele>1347.4250488281</ele>
        <time>2016-05-28T08:17:42Z</time>
      </trkpt>
      <trkpt lat="45.62811" lon="6.82352">
        <ele>1349.34765625</ele>
        <time>2016-05-28T08:17:48Z</time>
      </trkpt>
      <trkpt lat="45.62842" lon="6.82348">
        <ele>1351.2702636719</ele>
        <time>2016-05-28T08:17:57Z</time>
      </trkpt>
      <trkpt lat="45.62859" lon="6.82344">
        <ele>1353.1928710938</ele>
        <time>2016-05-28T08:18:02Z</time>
      </trkpt>
      <trkpt lat="45.62877" lon="6.82334">
        <ele>1354.154296875</ele>
        <time>2016-05-28T08:18:07Z</time>
      </trkpt>
      <trkpt lat="45.62896" lon="6.8231">
        <ele>1355.5961914062</ele>
        <time>2016-05-28T08:18:14Z</time>
      </trkpt>
      <trkpt lat="45.62915" lon="6.8228">
        <ele>1357.5190429688</ele>
        <time>2016-05-28T08:18:22Z</time>
      </trkpt>
      <trkpt lat="45.62939" lon="6.82258">
        <ele>1358.9609375</ele>
        <time>2016-05-28T08:18:30Z</time>
      </trkpt>
      <trkpt lat="45.62963" lon="6.82251">
        <ele>1359.9221191406</ele>
        <time>2016-05-28T08:18:36Z</time>
      </trkpt>
      <trkpt lat="45.62971" lon="6.82268">
        <ele>1360.4028320312</ele>
        <time>2016-05-28T08:18:40Z</time>
      </trkpt>
      <trkpt lat="45.62964" lon="6.82275">
        <ele>1360.4028320312</ele>
        <time>2016-05-28T08:18:42Z</time>
      </trkpt>
      <trkpt lat="45.62939" lon="6.82282">
        <ele>1361.8449707031</ele>
        <time>2016-05-28T08:18:48Z</time>
      </trkpt>
      <trkpt lat="45.62921" lon="6.82296">
        <ele>1362.3254394531</ele>
        <time>2016-05-28T08:18:53Z</time>
      </trkpt>
      <trkpt lat="45.62915" lon="6.82304">
        <ele>1363.2868652344</ele>
        <time>2016-05-28T08:18:55Z</time>
      </trkpt>
      <trkpt lat="45.62903" lon="6.82333">
        <ele>1365.2094726562</ele>
        <time>2016-05-28T08:19:01Z</time>
      </trkpt>
      <trkpt lat="45.62889" lon="6.82365">
        <ele>1367.1320800781</ele>
        <time>2016-05-28T08:19:08Z</time>
      </trkpt>
      <trkpt lat="45.62874" lon="6.82377">
        <ele>1367.6125488281</ele>
        <time>2016-05-28T08:19:13Z</time>
      </trkpt>
      <trkpt lat="45.62856" lon="6.82382">
        <ele>1369.0546875</ele>
        <time>2016-05-28T08:19:18Z</time>
      </trkpt>
      <trkpt lat="45.62835" lon="6.82388">
        <ele>1370.4965820312</ele>
        <time>2016-05-28T08:19:24Z</time>
      </trkpt>
      <trkpt lat="45.62813" lon="6.82396">
        <ele>1371.4577636719</ele>
        <time>2016-05-28T08:19:30Z</time>
      </trkpt>
      <trkpt lat="45.62792" lon="6.82404">
        <ele>1372.4194335938</ele>
        <time>2016-05-28T08:19:36Z</time>
      </trkpt>
      <trkpt lat="45.62764" lon="6.82418">
        <ele>1374.8227539062</ele>
        <time>2016-05-28T08:19:44Z</time>
      </trkpt>
      <trkpt lat="45.6274" lon="6.82429">
        <ele>1375.3032226562</ele>
        <time>2016-05-28T08:19:51Z</time>
      </trkpt>
      <trkpt lat="45.62724" lon="6.82432">
        <ele>1377.7065429688</ele>
        <time>2016-05-28T08:19:56Z</time>
      </trkpt>
      <trkpt lat="45.62707" lon="6.82433">
        <ele>1378.66796875</ele>
        <time>2016-05-28T08:20:01Z</time>
      </trkpt>
      <trkpt lat="45.62701" lon="6.82434">
        <ele>1380.1098632812</ele>
        <time>2016-05-28T08:20:03Z</time>
      </trkpt>
      <trkpt lat="45.62677" lon="6.82443">
        <ele>1382.5131835938</ele>
        <time>2016-05-28T08:20:10Z</time>
      </trkpt>
      <trkpt lat="45.62659" lon="6.82457">
        <ele>1383.4743652344</ele>
        <time>2016-05-28T08:20:16Z</time>
      </trkpt>
      <trkpt lat="45.62635" lon="6.82475">
        <ele>1384.4357910156</ele>
        <time>2016-05-28T08:20:24Z</time>
      </trkpt>
      <trkpt lat="45.62606" lon="6.82496">
        <ele>1385.3969726562</ele>
        <time>2016-05-28T08:20:33Z</time>
      </trkpt>
      <trkpt lat="45.62599" lon="6.825">
        <ele>1386.3583984375</ele>
        <time>2016-05-28T08:20:35Z</time>
      </trkpt>
      <trkpt lat="45.62579" lon="6.82517">
        <ele>1388.28125</ele>
        <time>2016-05-28T08:20:41Z</time>
      </trkpt>
      <trkpt lat="45.62559" lon="6.8254">
        <ele>1390.2038574219</ele>
        <time>2016-05-28T08:20:48Z</time>
      </trkpt>
      <trkpt lat="45.62541" lon="6.82564">
        <ele>1392.1264648438</ele>
        <time>2016-05-28T08:20:55Z</time>
      </trkpt>
      <trkpt lat="45.62525" lon="6.82588">
        <ele>1392.6071777344</ele>
        <time>2016-05-28T08:21:01Z</time>
      </trkpt>
      <trkpt lat="45.62517" lon="6.82605">
        <ele>1393.568359375</ele>
        <time>2016-05-28T08:21:05Z</time>
      </trkpt>
      <trkpt lat="45.62498" lon="6.82641">
        <ele>1395.0102539062</ele>
        <time>2016-05-28T08:21:14Z</time>
      </trkpt>
      <trkpt lat="45.62484" lon="6.82673">
        <ele>1395.4909667969</ele>
        <time>2016-05-28T08:21:21Z</time>
      </trkpt>
      <trkpt lat="45.62479" lon="6.82703">
        <ele>1395.9716796875</ele>
        <time>2016-05-28T08:21:27Z</time>
      </trkpt>
      <trkpt lat="45.62486" lon="6.82727">
        <ele>1398.3747558594</ele>
        <time>2016-05-28T08:21:32Z</time>
      </trkpt>
      <trkpt lat="45.62507" lon="6.82766">
        <ele>1399.8168945312</ele>
        <time>2016-05-28T08:21:41Z</time>
      </trkpt>
      <trkpt lat="45.62517" lon="6.82799">
        <ele>1400.2976074219</ele>
        <time>2016-05-28T08:21:48Z</time>
      </trkpt>
      <trkpt lat="45.62518" lon="6.82844">
        <ele>1402.2199707031</ele>
        <time>2016-05-28T08:21:57Z</time>
      </trkpt>
      <trkpt lat="45.62513" lon="6.82883">
        <ele>1404.1430664062</ele>
        <time>2016-05-28T08:22:05Z</time>
      </trkpt>
      <trkpt lat="45.6251" lon="6.82927">
        <ele>1407.0268554688</ele>
        <time>2016-05-28T08:22:14Z</time>
      </trkpt>
      <trkpt lat="45.62508" lon="6.82974">
        <ele>1408.9494628906</ele>
        <time>2016-05-28T08:22:23Z</time>
      </trkpt>
      <trkpt lat="45.62509" lon="6.82995">
        <ele>1410.3913574219</ele>
        <time>2016-05-28T08:22:27Z</time>
      </trkpt>
      <trkpt lat="45.62516" lon="6.83014">
        <ele>1410.8720703125</ele>
        <time>2016-05-28T08:22:31Z</time>
      </trkpt>
      <trkpt lat="45.62535" lon="6.83043">
        <ele>1412.7946777344</ele>
        <time>2016-05-28T08:22:38Z</time>
      </trkpt>
      <trkpt lat="45.62549" lon="6.83079">
        <ele>1413.275390625</ele>
        <time>2016-05-28T08:22:45Z</time>
      </trkpt>
      <trkpt lat="45.62555" lon="6.83107">
        <ele>1414.7172851562</ele>
        <time>2016-05-28T08:22:50Z</time>
      </trkpt>
      <trkpt lat="45.6255" lon="6.83135">
        <ele>1414.7172851562</ele>
        <time>2016-05-28T08:22:55Z</time>
      </trkpt>
      <trkpt lat="45.62535" lon="6.83154">
        <ele>1417.1206054688</ele>
        <time>2016-05-28T08:23:00Z</time>
      </trkpt>
      <trkpt lat="45.62527" lon="6.83159">
        <ele>1416.1591796875</ele>
        <time>2016-05-28T08:23:02Z</time>
      </trkpt>
      <trkpt lat="45.6252" lon="6.83164">
        <ele>1415.6787109375</ele>
        <time>2016-05-28T08:23:04Z</time>
      </trkpt>
      <trkpt lat="45.62508" lon="6.83181">
        <ele>1417.1206054688</ele>
        <time>2016-05-28T08:23:08Z</time>
      </trkpt>
      <trkpt lat="45.62513" lon="6.83196">
        <ele>1417.6010742188</ele>
        <time>2016-05-28T08:23:11Z</time>
      </trkpt>
      <trkpt lat="45.62524" lon="6.83194">
        <ele>1417.6010742188</ele>
        <time>2016-05-28T08:23:14Z</time>
      </trkpt>
      <trkpt lat="45.62527" lon="6.83191">
        <ele>1418.5625</ele>
        <time>2016-05-28T08:23:15Z</time>
      </trkpt>
      <trkpt lat="45.62551" lon="6.83172">
        <ele>1419.5239257812</ele>
        <time>2016-05-28T08:23:22Z</time>
      </trkpt>
      <trkpt lat="45.62568" lon="6.83149">
        <ele>1420.0046386719</ele>
        <time>2016-05-28T08:23:28Z</time>
      </trkpt>
      <trkpt lat="45.62576" lon="6.83122">
        <ele>1421.4465332031</ele>
        <time>2016-05-28T08:23:33Z</time>
      </trkpt>
      <trkpt lat="45.62576" lon="6.83088">
        <ele>1423.8498535156</ele>
        <time>2016-05-28T08:23:39Z</time>
      </trkpt>
      <trkpt lat="45.6257" lon="6.83032">
        <ele>1425.2917480469</ele>
        <time>2016-05-28T08:23:49Z</time>
      </trkpt>
      <trkpt lat="45.62567" lon="6.82978">
        <ele>1427.2145996094</ele>
        <time>2016-05-28T08:23:59Z</time>
      </trkpt>
      <trkpt lat="45.62572" lon="6.82932">
        <ele>1428.6564941406</ele>
        <time>2016-05-28T08:24:08Z</time>
      </trkpt>
      <trkpt lat="45.62579" lon="6.82903">
        <ele>1430.0983886719</ele>
        <time>2016-05-28T08:24:14Z</time>
      </trkpt>
      <trkpt lat="45.62579" lon="6.82873">
        <ele>1430.5791015625</ele>
        <time>2016-05-28T08:24:20Z</time>
      </trkpt>
      <trkpt lat="45.62572" lon="6.8284">
        <ele>1431.0598144531</ele>
        <time>2016-05-28T08:24:26Z</time>
      </trkpt>
      <trkpt lat="45.6257" lon="6.82808">
        <ele>1433.462890625</ele>
        <time>2016-05-28T08:24:32Z</time>
      </trkpt>
      <trkpt lat="45.62574" lon="6.82768">
        <ele>1435.8662109375</ele>
        <time>2016-05-28T08:24:40Z</time>
      </trkpt>
      <trkpt lat="45.62586" lon="6.82742">
        <ele>1437.7890625</ele>
        <time>2016-05-28T08:24:46Z</time>
      </trkpt>
      <trkpt lat="45.62602" lon="6.82723">
        <ele>1438.2697753906</ele>
        <time>2016-05-28T08:24:52Z</time>
      </trkpt>
      <trkpt lat="45.62623" lon="6.82707">
        <ele>1438.7504882812</ele>
        <time>2016-05-28T08:24:59Z</time>
      </trkpt>
      <trkpt lat="45.6265" lon="6.82697">
        <ele>1440.6728515625</ele>
        <time>2016-05-28T08:25:07Z</time>
      </trkpt>
      <trkpt lat="45.62678" lon="6.82697">
        <ele>1443.5568847656</ele>
        <time>2016-05-28T08:25:15Z</time>
      </trkpt>
      <trkpt lat="45.62695" lon="6.82693">
        <ele>1444.5180664062</ele>
        <time>2016-05-28T08:25:20Z</time>
      </trkpt>
      <trkpt lat="45.62715" lon="6.82681">
        <ele>1445.4794921875</ele>
        <time>2016-05-28T08:25:26Z</time>
      </trkpt>
      <trkpt lat="45.62739" lon="6.82669">
        <ele>1446.4409179688</ele>
        <time>2016-05-28T08:25:33Z</time>
      </trkpt>
      <trkpt lat="45.62761" lon="6.82671">
        <ele>1447.4020996094</ele>
        <time>2016-05-28T08:25:39Z</time>
      </trkpt>
      <trkpt lat="45.6279" lon="6.82675">
        <ele>1449.3247070312</ele>
        <time>2016-05-28T08:25:47Z</time>
      </trkpt>
      <trkpt lat="45.62806" lon="6.82678">
        <ele>1449.8054199219</ele>
        <time>2016-05-28T08:25:51Z</time>
      </trkpt>
      <trkpt lat="45.62815" lon="6.82696">
        <ele>1450.2861328125</ele>
        <time>2016-05-28T08:25:55Z</time>
      </trkpt>
      <trkpt lat="45.62807" lon="6.82706">
        <ele>1450.7666015625</ele>
        <time>2016-05-28T08:25:58Z</time>
      </trkpt>
      <trkpt lat="45.628" lon="6.82705">
        <ele>1452.2087402344</ele>
        <time>2016-05-28T08:26:00Z</time>
      </trkpt>
      <trkpt lat="45.62792" lon="6.82703">
        <ele>1452.689453125</ele>
        <time>2016-05-28T08:26:02Z</time>
      </trkpt>
      <trkpt lat="45.62762" lon="6.82692">
        <ele>1453.1701660156</ele>
        <time>2016-05-28T08:26:10Z</time>
      </trkpt>
      <trkpt lat="45.62743" lon="6.82699">
        <ele>1453.6508789062</ele>
        <time>2016-05-28T08:26:15Z</time>
      </trkpt>
      <trkpt lat="45.62736" lon="6.82705">
        <ele>1454.1315917969</ele>
        <time>2016-05-28T08:26:17Z</time>
      </trkpt>
      <trkpt lat="45.62718" lon="6.82737">
        <ele>1454.6120605469</ele>
        <time>2016-05-28T08:26:24Z</time>
      </trkpt>
      <trkpt lat="45.627" lon="6.82754">
        <ele>1456.5346679688</ele>
        <time>2016-05-28T08:26:30Z</time>
      </trkpt>
      <trkpt lat="45.62667" lon="6.82768">
        <ele>1457.49609375</ele>
        <time>2016-05-28T08:26:39Z</time>
      </trkpt>
      <trkpt lat="45.62643" lon="6.82785">
        <ele>1459.8991699219</ele>
        <time>2016-05-28T08:26:46Z</time>
      </trkpt>
      <trkpt lat="45.62631" lon="6.82815">
        <ele>1461.3413085938</ele>
        <time>2016-05-28T08:26:52Z</time>
      </trkpt>
      <trkpt lat="45.62633" lon="6.82831">
        <ele>1461.3413085938</ele>
        <time>2016-05-28T08:26:55Z</time>
      </trkpt>
      <trkpt lat="45.62648" lon="6.8287">
        <ele>1462.783203125</ele>
        <time>2016-05-28T08:27:03Z</time>
      </trkpt>
      <trkpt lat="45.62663" lon="6.82913">
        <ele>1465.6672363281</ele>
        <time>2016-05-28T08:27:12Z</time>
      </trkpt>
      <trkpt lat="45.62676" lon="6.82947">
        <ele>1467.1091308594</ele>
        <time>2016-05-28T08:27:19Z</time>
      </trkpt>
      <trkpt lat="45.62691" lon="6.82986">
        <ele>1467.1091308594</ele>
        <time>2016-05-28T08:27:27Z</time>
      </trkpt>
      <trkpt lat="45.62704" lon="6.83032">
        <ele>1469.0319824219</ele>
        <time>2016-05-28T08:27:36Z</time>
      </trkpt>
      <trkpt lat="45.627" lon="6.83062">
        <ele>1469.0319824219</ele>
        <time>2016-05-28T08:27:42Z</time>
      </trkpt>
      <trkpt lat="45.62689" lon="6.83104">
        <ele>1471.9157714844</ele>
        <time>2016-05-28T08:27:50Z</time>
      </trkpt>
      <trkpt lat="45.62684" lon="6.83148">
        <ele>1473.8383789062</ele>
        <time>2016-05-28T08:27:58Z</time>
      </trkpt>
      <trkpt lat="45.62677" lon="6.83184">
        <ele>1474.3190917969</ele>
        <time>2016-05-28T08:28:05Z</time>
      </trkpt>
      <trkpt lat="45.62666" lon="6.83212">
        <ele>1475.7609863281</ele>
        <time>2016-05-28T08:28:11Z</time>
      </trkpt>
      <trkpt lat="45.62651" lon="6.83246">
        <ele>1477.203125</ele>
        <time>2016-05-28T08:28:18Z</time>
      </trkpt>
      <trkpt lat="45.6264" lon="6.83282">
        <ele>1478.6450195312</ele>
        <time>2016-05-28T08:28:25Z</time>
      </trkpt>
      <trkpt lat="45.62626" lon="6.83317">
        <ele>1480.5676269531</ele>
        <time>2016-05-28T08:28:32Z</time>
      </trkpt>
      <trkpt lat="45.62611" lon="6.83335">
        <ele>1480.5676269531</ele>
        <time>2016-05-28T08:28:37Z</time>
      </trkpt>
      <trkpt lat="45.62596" lon="6.83351">
        <ele>1482.0095214844</ele>
        <time>2016-05-28T08:28:42Z</time>
      </trkpt>
      <trkpt lat="45.62579" lon="6.83374">
        <ele>1482.970703125</ele>
        <time>2016-05-28T08:28:48Z</time>
      </trkpt>
      <trkpt lat="45.62578" lon="6.83379">
        <ele>1482.970703125</ele>
        <time>2016-05-28T08:28:49Z</time>
      </trkpt>
      <trkpt lat="45.62575" lon="6.83391">
        <ele>1482.970703125</ele>
        <time>2016-05-28T08:28:51Z</time>
      </trkpt>
      <trkpt lat="45.62568" lon="6.83443">
        <ele>1483.4514160156</ele>
        <time>2016-05-28T08:29:00Z</time>
      </trkpt>
      <trkpt lat="45.62562" lon="6.83469">
        <ele>1484.4130859375</ele>
        <time>2016-05-28T08:29:05Z</time>
      </trkpt>
      <trkpt lat="45.6255" lon="6.83486">
        <ele>1485.8549804688</ele>
        <time>2016-05-28T08:29:09Z</time>
      </trkpt>
      <trkpt lat="45.62534" lon="6.83503">
        <ele>1487.7775878906</ele>
        <time>2016-05-28T08:29:14Z</time>
      </trkpt>
      <trkpt lat="45.62501" lon="6.83532">
        <ele>1489.7001953125</ele>
        <time>2016-05-28T08:29:24Z</time>
      </trkpt>
      <trkpt lat="45.62494" lon="6.83538">
        <ele>1490.6613769531</ele>
        <time>2016-05-28T08:29:26Z</time>
      </trkpt>
      <trkpt lat="45.6247" lon="6.83558">
        <ele>1492.103515625</ele>
        <time>2016-05-28T08:29:33Z</time>
      </trkpt>
      <trkpt lat="45.62443" lon="6.83583">
        <ele>1493.0646972656</ele>
        <time>2016-05-28T08:29:41Z</time>
      </trkpt>
      <trkpt lat="45.62434" lon="6.83594">
        <ele>1493.5454101562</ele>
        <time>2016-05-28T08:29:44Z</time>
      </trkpt>
      <trkpt lat="45.62425" lon="6.83625">
        <ele>1494.5065917969</ele>
        <time>2016-05-28T08:29:50Z</time>
      </trkpt>
      <trkpt lat="45.62422" lon="6.83642">
        <ele>1494.9873046875</ele>
        <time>2016-05-28T08:29:53Z</time>
      </trkpt>
      <trkpt lat="45.6241" lon="6.83688">
        <ele>1496.4294433594</ele>
        <time>2016-05-28T08:30:02Z</time>
      </trkpt>
      <trkpt lat="45.62398" lon="6.83702">
        <ele>1496.9099121094</ele>
        <time>2016-05-28T08:30:06Z</time>
      </trkpt>
      <trkpt lat="45.62374" lon="6.83728">
        <ele>1499.3132324219</ele>
        <time>2016-05-28T08:30:14Z</time>
      </trkpt>
      <trkpt lat="45.62366" lon="6.83754">
        <ele>1499.7939453125</ele>
        <time>2016-05-28T08:30:19Z</time>
      </trkpt>
      <trkpt lat="45.62352" lon="6.83774">
        <ele>1500.7553710938</ele>
        <time>2016-05-28T08:30:24Z</time>
      </trkpt>
      <trkpt lat="45.62329" lon="6.83786">
        <ele>1501.2360839844</ele>
        <time>2016-05-28T08:30:30Z</time>
      </trkpt>
      <trkpt lat="45.62305" lon="6.83801">
        <ele>1502.6779785156</ele>
        <time>2016-05-28T08:30:36Z</time>
      </trkpt>
      <trkpt lat="45.62288" lon="6.83827">
        <ele>1504.1201171875</ele>
        <time>2016-05-28T08:30:42Z</time>
      </trkpt>
      <trkpt lat="45.62271" lon="6.83876">
        <ele>1505.5620117188</ele>
        <time>2016-05-28T08:30:51Z</time>
      </trkpt>
      <trkpt lat="45.62267" lon="6.83888">
        <ele>1506.5231933594</ele>
        <time>2016-05-28T08:30:53Z</time>
      </trkpt>
      <trkpt lat="45.62258" lon="6.83909">
        <ele>1506.5231933594</ele>
        <time>2016-05-28T08:30:57Z</time>
      </trkpt>
      <trkpt lat="45.62236" lon="6.83952">
        <ele>1508.9265136719</ele>
        <time>2016-05-28T08:31:06Z</time>
      </trkpt>
      <trkpt lat="45.62213" lon="6.83984">
        <ele>1510.8491210938</ele>
        <time>2016-05-28T08:31:14Z</time>
      </trkpt>
      <trkpt lat="45.62196" lon="6.8401">
        <ele>1512.7717285156</ele>
        <time>2016-05-28T08:31:21Z</time>
      </trkpt>
      <trkpt lat="45.62178" lon="6.84036">
        <ele>1514.6943359375</ele>
        <time>2016-05-28T08:31:28Z</time>
      </trkpt>
      <trkpt lat="45.62158" lon="6.84059">
        <ele>1516.6171875</ele>
        <time>2016-05-28T08:31:35Z</time>
      </trkpt>
      <trkpt lat="45.62142" lon="6.84085">
        <ele>1518.5397949219</ele>
        <time>2016-05-28T08:31:42Z</time>
      </trkpt>
      <trkpt lat="45.6212" lon="6.84117">
        <ele>1520.4624023438</ele>
        <time>2016-05-28T08:31:50Z</time>
      </trkpt>
      <trkpt lat="45.62097" lon="6.84145">
        <ele>1521.4235839844</ele>
        <time>2016-05-28T08:31:58Z</time>
      </trkpt>
      <trkpt lat="45.62082" lon="6.84176">
        <ele>1522.8657226562</ele>
        <time>2016-05-28T08:32:05Z</time>
      </trkpt>
      <trkpt lat="45.62078" lon="6.84186">
        <ele>1523.3464355469</ele>
        <time>2016-05-28T08:32:07Z</time>
      </trkpt>
      <trkpt lat="45.62067" lon="6.84216">
        <ele>1524.7883300781</ele>
        <time>2016-05-28T08:32:13Z</time>
      </trkpt>
      <trkpt lat="45.62054" lon="6.84251">
        <ele>1525.7495117188</ele>
        <time>2016-05-28T08:32:20Z</time>
      </trkpt>
      <trkpt lat="45.62051" lon="6.84262">
        <ele>1526.2302246094</ele>
        <time>2016-05-28T08:32:22Z</time>
      </trkpt>
      <trkpt lat="45.62038" lon="6.84303">
        <ele>1527.6721191406</ele>
        <time>2016-05-28T08:32:30Z</time>
      </trkpt>
      <trkpt lat="45.62025" lon="6.84355">
        <ele>1529.5947265625</ele>
        <time>2016-05-28T08:32:40Z</time>
      </trkpt>
      <trkpt lat="45.62022" lon="6.84365">
        <ele>1529.1140136719</ele>
        <time>2016-05-28T08:32:42Z</time>
      </trkpt>
      <trkpt lat="45.62014" lon="6.84394">
        <ele>1529.5947265625</ele>
        <time>2016-05-28T08:32:47Z</time>
      </trkpt>
      <trkpt lat="45.61985" lon="6.84449">
        <ele>1532.4790039062</ele>
        <time>2016-05-28T08:32:58Z</time>
      </trkpt>
      <trkpt lat="45.61969" lon="6.84486">
        <ele>1531.998046875</ele>
        <time>2016-05-28T08:33:05Z</time>
      </trkpt>
      <trkpt lat="45.61966" lon="6.84512">
        <ele>1532.9594726562</ele>
        <time>2016-05-28T08:33:10Z</time>
      </trkpt>
      <trkpt lat="45.61973" lon="6.84516">
        <ele>1533.4401855469</ele>
        <time>2016-05-28T08:33:13Z</time>
      </trkpt>
      <trkpt lat="45.6198" lon="6.84505">
        <ele>1533.9208984375</ele>
        <time>2016-05-28T08:33:16Z</time>
      </trkpt>
      <trkpt lat="45.61998" lon="6.84459">
        <ele>1535.3627929688</ele>
        <time>2016-05-28T08:33:25Z</time>
      </trkpt>
      <trkpt lat="45.62013" lon="6.84433">
        <ele>1537.2854003906</ele>
        <time>2016-05-28T08:33:31Z</time>
      </trkpt>
      <trkpt lat="45.62036" lon="6.84392">
        <ele>1538.7275390625</ele>
        <time>2016-05-28T08:33:40Z</time>
      </trkpt>
      <trkpt lat="45.62048" lon="6.84355">
        <ele>1540.1694335938</ele>
        <time>2016-05-28T08:33:47Z</time>
      </trkpt>
      <trkpt lat="45.62067" lon="6.84311">
        <ele>1541.1306152344</ele>
        <time>2016-05-28T08:33:56Z</time>
      </trkpt>
      <trkpt lat="45.62093" lon="6.84259">
        <ele>1543.5339355469</ele>
        <time>2016-05-28T08:34:07Z</time>
      </trkpt>
      <trkpt lat="45.62111" lon="6.84222">
        <ele>1544.0146484375</ele>
        <time>2016-05-28T08:34:15Z</time>
      </trkpt>
      <trkpt lat="45.62135" lon="6.84191">
        <ele>1545.4565429688</ele>
        <time>2016-05-28T08:34:23Z</time>
      </trkpt>
      <trkpt lat="45.62168" lon="6.84154">
        <ele>1546.41796875</ele>
        <time>2016-05-28T08:34:33Z</time>
      </trkpt>
      <trkpt lat="45.62174" lon="6.84145">
        <ele>1546.8984375</ele>
        <time>2016-05-28T08:34:35Z</time>
      </trkpt>
      <trkpt lat="45.62188" lon="6.84116">
        <ele>1548.8212890625</ele>
        <time>2016-05-28T08:34:41Z</time>
      </trkpt>
      <trkpt lat="45.62193" lon="6.84107">
        <ele>1548.8212890625</ele>
        <time>2016-05-28T08:34:43Z</time>
      </trkpt>
      <trkpt lat="45.62222" lon="6.8408">
        <ele>1549.3020019531</ele>
        <time>2016-05-28T08:34:51Z</time>
      </trkpt>
      <trkpt lat="45.62226" lon="6.84077">
        <ele>1548.8212890625</ele>
        <time>2016-05-28T08:34:52Z</time>
      </trkpt>
      <trkpt lat="45.62275" lon="6.84056">
        <ele>1551.224609375</ele>
        <time>2016-05-28T08:35:03Z</time>
      </trkpt>
      <trkpt lat="45.62316" lon="6.8404">
        <ele>1552.6665039062</ele>
        <time>2016-05-28T08:35:13Z</time>
      </trkpt>
      <trkpt lat="45.62336" lon="6.84018">
        <ele>1553.6279296875</ele>
        <time>2016-05-28T08:35:19Z</time>
      </trkpt>
      <trkpt lat="45.62362" lon="6.83982">
        <ele>1554.5891113281</ele>
        <time>2016-05-28T08:35:28Z</time>
      </trkpt>
      <trkpt lat="45.62381" lon="6.83954">
        <ele>1556.0310058594</ele>
        <time>2016-05-28T08:35:35Z</time>
      </trkpt>
      <trkpt lat="45.62399" lon="6.83927">
        <ele>1557.4731445312</ele>
        <time>2016-05-28T08:35:42Z</time>
      </trkpt>
      <trkpt lat="45.62416" lon="6.83911">
        <ele>1558.4343261719</ele>
        <time>2016-05-28T08:35:48Z</time>
      </trkpt>
      <trkpt lat="45.62437" lon="6.83895">
        <ele>1560.8376464844</ele>
        <time>2016-05-28T08:35:55Z</time>
      </trkpt>
      <trkpt lat="45.62456" lon="6.83886">
        <ele>1562.7602539062</ele>
        <time>2016-05-28T08:36:01Z</time>
      </trkpt>
      <trkpt lat="45.62478" lon="6.83883">
        <ele>1564.6831054688</ele>
        <time>2016-05-28T08:36:08Z</time>
      </trkpt>
      <trkpt lat="45.62501" lon="6.83884">
        <ele>1565.1638183594</ele>
        <time>2016-05-28T08:36:15Z</time>
      </trkpt>
      <trkpt lat="45.62507" lon="6.83883">
        <ele>1566.6057128906</ele>
        <time>2016-05-28T08:36:17Z</time>
      </trkpt>
      <trkpt lat="45.62529" lon="6.83875">
        <ele>1567.0864257812</ele>
        <time>2016-05-28T08:36:23Z</time>
      </trkpt>
      <trkpt lat="45.62549" lon="6.8386">
        <ele>1569.0090332031</ele>
        <time>2016-05-28T08:36:29Z</time>
      </trkpt>
      <trkpt lat="45.62566" lon="6.83837">
        <ele>1569.4897460938</ele>
        <time>2016-05-28T08:36:35Z</time>
      </trkpt>
      <trkpt lat="45.62584" lon="6.83806">
        <ele>1571.412109375</ele>
        <time>2016-05-28T08:36:42Z</time>
      </trkpt>
      <trkpt lat="45.62607" lon="6.83781">
        <ele>1571.412109375</ele>
        <time>2016-05-28T08:36:50Z</time>
      </trkpt>
      <trkpt lat="45.62622" lon="6.83759">
        <ele>1574.2961425781</ele>
        <time>2016-05-28T08:36:56Z</time>
      </trkpt>
      <trkpt lat="45.62638" lon="6.83721">
        <ele>1575.2573242188</ele>
        <time>2016-05-28T08:37:04Z</time>
      </trkpt>
      <trkpt lat="45.62651" lon="6.83697">
        <ele>1575.7380371094</ele>
        <time>2016-05-28T08:37:10Z</time>
      </trkpt>
      <trkpt lat="45.62655" lon="6.83689">
        <ele>1577.1801757812</ele>
        <time>2016-05-28T08:37:12Z</time>
      </trkpt>
      <trkpt lat="45.62672" lon="6.8367">
        <ele>1579.1025390625</ele>
        <time>2016-05-28T08:37:18Z</time>
      </trkpt>
      <trkpt lat="45.62691" lon="6.83656">
        <ele>1580.0642089844</ele>
        <time>2016-05-28T08:37:24Z</time>
      </trkpt>
      <trkpt lat="45.62711" lon="6.83643">
        <ele>1581.0256347656</ele>
        <time>2016-05-28T08:37:30Z</time>
      </trkpt>
      <trkpt lat="45.62737" lon="6.8362">
        <ele>1581.5061035156</ele>
        <time>2016-05-28T08:37:38Z</time>
      </trkpt>
      <trkpt lat="45.62759" lon="6.836">
        <ele>1582.4675292969</ele>
        <time>2016-05-28T08:37:45Z</time>
      </trkpt>
      <trkpt lat="45.62774" lon="6.83577">
        <ele>1584.3901367188</ele>
        <time>2016-05-28T08:37:51Z</time>
      </trkpt>
      <trkpt lat="45.62795" lon="6.83534">
        <ele>1585.83203125</ele>
        <time>2016-05-28T08:38:01Z</time>
      </trkpt>
      <trkpt lat="45.62811" lon="6.83506">
        <ele>1587.7546386719</ele>
        <time>2016-05-28T08:38:08Z</time>
      </trkpt>
      <trkpt lat="45.62821" lon="6.8351">
        <ele>1587.2739257812</ele>
        <time>2016-05-28T08:38:12Z</time>
      </trkpt>
      <trkpt lat="45.62819" lon="6.83522">
        <ele>1587.7546386719</ele>
        <time>2016-05-28T08:38:15Z</time>
      </trkpt>
      <trkpt lat="45.62816" lon="6.83526">
        <ele>1588.2353515625</ele>
        <time>2016-05-28T08:38:16Z</time>
      </trkpt>
      <trkpt lat="45.62798" lon="6.83555">
        <ele>1589.6772460938</ele>
        <time>2016-05-28T08:38:23Z</time>
      </trkpt>
      <trkpt lat="45.62783" lon="6.83591">
        <ele>1591.5998535156</ele>
        <time>2016-05-28T08:38:31Z</time>
      </trkpt>
      <trkpt lat="45.62765" lon="6.83622">
        <ele>1592.5612792969</ele>
        <time>2016-05-28T08:38:39Z</time>
      </trkpt>
      <trkpt lat="45.62741" lon="6.8364">
        <ele>1593.5224609375</ele>
        <time>2016-05-28T08:38:46Z</time>
      </trkpt>
      <trkpt lat="45.62732" lon="6.8365">
        <ele>1594.9643554688</ele>
        <time>2016-05-28T08:38:49Z</time>
      </trkpt>
      <trkpt lat="45.62722" lon="6.83666">
        <ele>1595.92578125</ele>
        <time>2016-05-28T08:38:53Z</time>
      </trkpt>
      <trkpt lat="45.62707" lon="6.83701">
        <ele>1597.3679199219</ele>
        <time>2016-05-28T08:39:01Z</time>
      </trkpt>
      <trkpt lat="45.627" lon="6.83718">
        <ele>1598.3291015625</ele>
        <time>2016-05-28T08:39:05Z</time>
      </trkpt>
      <trkpt lat="45.62687" lon="6.83748">
        <ele>1600.251953125</ele>
        <time>2016-05-28T08:39:12Z</time>
      </trkpt>
      <trkpt lat="45.62668" lon="6.83786">
        <ele>1602.6550292969</ele>
        <time>2016-05-28T08:39:21Z</time>
      </trkpt>
      <trkpt lat="45.62649" lon="6.83814">
        <ele>1604.0971679688</ele>
        <time>2016-05-28T08:39:29Z</time>
      </trkpt>
      <trkpt lat="45.62625" lon="6.83843">
        <ele>1605.5390625</ele>
        <time>2016-05-28T08:39:38Z</time>
      </trkpt>
      <trkpt lat="45.62607" lon="6.83875">
        <ele>1606.5002441406</ele>
        <time>2016-05-28T08:39:46Z</time>
      </trkpt>
      <trkpt lat="45.62595" lon="6.83905">
        <ele>1608.4228515625</ele>
        <time>2016-05-28T08:39:53Z</time>
      </trkpt>
      <trkpt lat="45.62578" lon="6.83937">
        <ele>1610.3454589844</ele>
        <time>2016-05-28T08:40:01Z</time>
      </trkpt>
      <trkpt lat="45.62563" lon="6.83973">
        <ele>1612.7490234375</ele>
        <time>2016-05-28T08:40:09Z</time>
      </trkpt>
      <trkpt lat="45.62551" lon="6.83991">
        <ele>1614.1909179688</ele>
        <time>2016-05-28T08:40:14Z</time>
      </trkpt>
      <trkpt lat="45.62536" lon="6.83999">
        <ele>1614.6716308594</ele>
        <time>2016-05-28T08:40:19Z</time>
      </trkpt>
      <trkpt lat="45.62515" lon="6.84009">
        <ele>1615.6330566406</ele>
        <time>2016-05-28T08:40:25Z</time>
      </trkpt>
      <trkpt lat="45.62487" lon="6.84039">
        <ele>1616.1135253906</ele>
        <time>2016-05-28T08:40:34Z</time>
      </trkpt>
      <trkpt lat="45.62463" lon="6.84072">
        <ele>1618.9975585938</ele>
        <time>2016-05-28T08:40:43Z</time>
      </trkpt>
      <trkpt lat="45.62443" lon="6.8411">
        <ele>1620.9201660156</ele>
        <time>2016-05-28T08:40:52Z</time>
      </trkpt>
      <trkpt lat="45.62427" lon="6.84136">
        <ele>1622.3620605469</ele>
        <time>2016-05-28T08:40:59Z</time>
      </trkpt>
      <trkpt lat="45.62405" lon="6.84152">
        <ele>1624.7653808594</ele>
        <time>2016-05-28T08:41:06Z</time>
      </trkpt>
      <trkpt lat="45.62374" lon="6.84172">
        <ele>1627.1687011719</ele>
        <time>2016-05-28T08:41:15Z</time>
      </trkpt>
      <trkpt lat="45.62351" lon="6.84198">
        <ele>1629.0913085938</ele>
        <time>2016-05-28T08:41:23Z</time>
      </trkpt>
      <trkpt lat="45.62339" lon="6.84219">
        <ele>1630.052734375</ele>
        <time>2016-05-28T08:41:28Z</time>
      </trkpt>
      <trkpt lat="45.62318" lon="6.84279">
        <ele>1631.0141601562</ele>
        <time>2016-05-28T08:41:39Z</time>
      </trkpt>
      <trkpt lat="45.62315" lon="6.84291">
        <ele>1632.4560546875</ele>
        <time>2016-05-28T08:41:41Z</time>
      </trkpt>
      <trkpt lat="45.62312" lon="6.84341">
        <ele>1633.8979492188</ele>
        <time>2016-05-28T08:41:49Z</time>
      </trkpt>
      <trkpt lat="45.62303" lon="6.84375">
        <ele>1633.8979492188</ele>
        <time>2016-05-28T08:41:55Z</time>
      </trkpt>
      <trkpt lat="45.62277" lon="6.84432">
        <ele>1635.8205566406</ele>
        <time>2016-05-28T08:42:06Z</time>
      </trkpt>
      <trkpt lat="45.6226" lon="6.84475">
        <ele>1637.2624511719</ele>
        <time>2016-05-28T08:42:14Z</time>
      </trkpt>
      <trkpt lat="45.62251" lon="6.84496">
        <ele>1638.7045898438</ele>
        <time>2016-05-28T08:42:18Z</time>
      </trkpt>
      <trkpt lat="45.62229" lon="6.84528">
        <ele>1640.626953125</ele>
        <time>2016-05-28T08:42:26Z</time>
      </trkpt>
      <trkpt lat="45.62211" lon="6.84554">
        <ele>1641.5883789062</ele>
        <time>2016-05-28T08:42:33Z</time>
      </trkpt>
      <trkpt lat="45.622" lon="6.84584">
        <ele>1642.5498046875</ele>
        <time>2016-05-28T08:42:39Z</time>
      </trkpt>
      <trkpt lat="45.62181" lon="6.8462">
        <ele>1644.4724121094</ele>
        <time>2016-05-28T08:42:47Z</time>
      </trkpt>
      <trkpt lat="45.6217" lon="6.84648">
        <ele>1644.953125</ele>
        <time>2016-05-28T08:42:53Z</time>
      </trkpt>
      <trkpt lat="45.62171" lon="6.84683">
        <ele>1645.4338378906</ele>
        <time>2016-05-28T08:42:59Z</time>
      </trkpt>
      <trkpt lat="45.62174" lon="6.84725">
        <ele>1646.3952636719</ele>
        <time>2016-05-28T08:43:06Z</time>
      </trkpt>
      <trkpt lat="45.62175" lon="6.84742">
        <ele>1648.3176269531</ele>
        <time>2016-05-28T08:43:09Z</time>
      </trkpt>
      <trkpt lat="45.62177" lon="6.84794">
        <ele>1649.759765625</ele>
        <time>2016-05-28T08:43:18Z</time>
      </trkpt>
      <trkpt lat="45.62176" lon="6.8484">
        <ele>1652.1628417969</ele>
        <time>2016-05-28T08:43:26Z</time>
      </trkpt>
      <trkpt lat="45.62173" lon="6.84892">
        <ele>1653.1242675781</ele>
        <time>2016-05-28T08:43:35Z</time>
      </trkpt>
      <trkpt lat="45.62174" lon="6.8494">
        <ele>1655.046875</ele>
        <time>2016-05-28T08:43:43Z</time>
      </trkpt>
      <trkpt lat="45.62174" lon="6.84959">
        <ele>1655.5275878906</ele>
        <time>2016-05-28T08:43:46Z</time>
      </trkpt>
      <trkpt lat="45.62181" lon="6.85024">
        <ele>1657.9309082031</ele>
        <time>2016-05-28T08:43:57Z</time>
      </trkpt>
      <trkpt lat="45.62181" lon="6.85036">
        <ele>1657.4501953125</ele>
        <time>2016-05-28T08:43:59Z</time>
      </trkpt>
      <trkpt lat="45.62174" lon="6.85072">
        <ele>1658.8920898438</ele>
        <time>2016-05-28T08:44:05Z</time>
      </trkpt>
      <trkpt lat="45.62159" lon="6.85113">
        <ele>1659.3728027344</ele>
        <time>2016-05-28T08:44:12Z</time>
      </trkpt>
      <trkpt lat="45.62148" lon="6.85177">
        <ele>1660.8149414062</ele>
        <time>2016-05-28T08:44:23Z</time>
      </trkpt>
      <trkpt lat="45.62142" lon="6.85225">
        <ele>1663.6987304688</ele>
        <time>2016-05-28T08:44:31Z</time>
      </trkpt>
      <trkpt lat="45.62142" lon="6.85272">
        <ele>1665.1408691406</ele>
        <time>2016-05-28T08:44:39Z</time>
      </trkpt>
      <trkpt lat="45.62146" lon="6.85351">
        <ele>1666.1020507812</ele>
        <time>2016-05-28T08:44:52Z</time>
      </trkpt>
      <trkpt lat="45.6215" lon="6.85406">
        <ele>1668.5053710938</ele>
        <time>2016-05-28T08:45:01Z</time>
      </trkpt>
      <trkpt lat="45.62152" lon="6.85423">
        <ele>1669.466796875</ele>
        <time>2016-05-28T08:45:04Z</time>
      </trkpt>
      <trkpt lat="45.62154" lon="6.85429">
        <ele>1668.5053710938</ele>
        <time>2016-05-28T08:45:05Z</time>
      </trkpt>
      <trkpt lat="45.6217" lon="6.85476">
        <ele>1670.9086914062</ele>
        <time>2016-05-28T08:45:14Z</time>
      </trkpt>
      <trkpt lat="45.62172" lon="6.85511">
        <ele>1672.8312988281</ele>
        <time>2016-05-28T08:45:20Z</time>
      </trkpt>
      <trkpt lat="45.62171" lon="6.85516">
        <ele>1672.8312988281</ele>
        <time>2016-05-28T08:45:21Z</time>
      </trkpt>
      <trkpt lat="45.62157" lon="6.85569">
        <ele>1674.2731933594</ele>
        <time>2016-05-28T08:45:30Z</time>
      </trkpt>
      <trkpt lat="45.62146" lon="6.85617">
        <ele>1676.1960449219</ele>
        <time>2016-05-28T08:45:38Z</time>
      </trkpt>
      <trkpt lat="45.6214" lon="6.85651">
        <ele>1677.1574707031</ele>
        <time>2016-05-28T08:45:44Z</time>
      </trkpt>
      <trkpt lat="45.62145" lon="6.85696">
        <ele>1679.0798339844</ele>
        <time>2016-05-28T08:45:52Z</time>
      </trkpt>
      <trkpt lat="45.62141" lon="6.8573">
        <ele>1680.0412597656</ele>
        <time>2016-05-28T08:45:58Z</time>
      </trkpt>
      <trkpt lat="45.62139" lon="6.85735">
        <ele>1680.5219726562</ele>
        <time>2016-05-28T08:45:59Z</time>
      </trkpt>
      <trkpt lat="45.62121" lon="6.85774">
        <ele>1681.4831542969</ele>
        <time>2016-05-28T08:46:07Z</time>
      </trkpt>
      <trkpt lat="45.62116" lon="6.85807">
        <ele>1681.9638671875</ele>
        <time>2016-05-28T08:46:12Z</time>
      </trkpt>
      <trkpt lat="45.62112" lon="6.85862">
        <ele>1685.3283691406</ele>
        <time>2016-05-28T08:46:20Z</time>
      </trkpt>
      <trkpt lat="45.62111" lon="6.85881">
        <ele>1685.3283691406</ele>
        <time>2016-05-28T08:46:23Z</time>
      </trkpt>
      <trkpt lat="45.62106" lon="6.85925">
        <ele>1686.2897949219</ele>
        <time>2016-05-28T08:46:30Z</time>
      </trkpt>
      <trkpt lat="45.62098" lon="6.85962">
        <ele>1687.2509765625</ele>
        <time>2016-05-28T08:46:36Z</time>
      </trkpt>
      <trkpt lat="45.62105" lon="6.8598">
        <ele>1687.7316894531</ele>
        <time>2016-05-28T08:46:40Z</time>
      </trkpt>
      <trkpt lat="45.62117" lon="6.85971">
        <ele>1689.1735839844</ele>
        <time>2016-05-28T08:46:43Z</time>
      </trkpt>
      <trkpt lat="45.62122" lon="6.85952">
        <ele>1689.654296875</ele>
        <time>2016-05-28T08:46:46Z</time>
      </trkpt>
      <trkpt lat="45.62132" lon="6.85883">
        <ele>1692.0578613281</ele>
        <time>2016-05-28T08:46:57Z</time>
      </trkpt>
      <trkpt lat="45.62138" lon="6.85843">
        <ele>1693.98046875</ele>
        <time>2016-05-28T08:47:04Z</time>
      </trkpt>
      <trkpt lat="45.6214" lon="6.85831">
        <ele>1694.9416503906</ele>
        <time>2016-05-28T08:47:06Z</time>
      </trkpt>
      <trkpt lat="45.62142" lon="6.85808">
        <ele>1694.9416503906</ele>
        <time>2016-05-28T08:47:10Z</time>
      </trkpt>
      <trkpt lat="45.6215" lon="6.85766">
        <ele>1695.9030761719</ele>
        <time>2016-05-28T08:47:18Z</time>
      </trkpt>
      <trkpt lat="45.62157" lon="6.85753">
        <ele>1695.9030761719</ele>
        <time>2016-05-28T08:47:21Z</time>
      </trkpt>
      <trkpt lat="45.62182" lon="6.85725">
        <ele>1699.267578125</ele>
        <time>2016-05-28T08:47:29Z</time>
      </trkpt>
      <trkpt lat="45.62186" lon="6.85721">
        <ele>1698.7868652344</ele>
        <time>2016-05-28T08:47:30Z</time>
      </trkpt>
      <trkpt lat="45.622" lon="6.85697">
        <ele>1699.7482910156</ele>
        <time>2016-05-28T08:47:36Z</time>
      </trkpt>
      <trkpt lat="45.62201" lon="6.85669">
        <ele>1700.2290039062</ele>
        <time>2016-05-28T08:47:41Z</time>
      </trkpt>
      <trkpt lat="45.62199" lon="6.85623">
        <ele>1702.6320800781</ele>
        <time>2016-05-28T08:47:49Z</time>
      </trkpt>
      <trkpt lat="45.6221" lon="6.85592">
        <ele>1703.1127929688</ele>
        <time>2016-05-28T08:47:55Z</time>
      </trkpt>
      <trkpt lat="45.62232" lon="6.85562">
        <ele>1705.0354003906</ele>
        <time>2016-05-28T08:48:03Z</time>
      </trkpt>
      <trkpt lat="45.62239" lon="6.85551">
        <ele>1706.4772949219</ele>
        <time>2016-05-28T08:48:06Z</time>
      </trkpt>
      <trkpt lat="45.62248" lon="6.85522">
        <ele>1707.4387207031</ele>
        <time>2016-05-28T08:48:12Z</time>
      </trkpt>
      <trkpt lat="45.62253" lon="6.8549">
        <ele>1708.880859375</ele>
        <time>2016-05-28T08:48:18Z</time>
      </trkpt>
      <trkpt lat="45.62262" lon="6.85456">
        <ele>1709.8420410156</ele>
        <time>2016-05-28T08:48:25Z</time>
      </trkpt>
      <trkpt lat="45.62262" lon="6.85423">
        <ele>1711.7648925781</ele>
        <time>2016-05-28T08:48:31Z</time>
      </trkpt>
      <trkpt lat="45.62261" lon="6.85417">
        <ele>1712.2453613281</ele>
        <time>2016-05-28T08:48:32Z</time>
      </trkpt>
      <trkpt lat="45.62258" lon="6.85388">
        <ele>1712.7260742188</ele>
        <time>2016-05-28T08:48:37Z</time>
      </trkpt>
      <trkpt lat="45.6226" lon="6.85348">
        <ele>1714.6486816406</ele>
        <time>2016-05-28T08:48:44Z</time>
      </trkpt>
      <trkpt lat="45.62266" lon="6.85299">
        <ele>1716.5712890625</ele>
        <time>2016-05-28T08:48:53Z</time>
      </trkpt>
      <trkpt lat="45.62278" lon="6.85259">
        <ele>1718.974609375</ele>
        <time>2016-05-28T08:49:01Z</time>
      </trkpt>
      <trkpt lat="45.6229" lon="6.85225">
        <ele>1720.8972167969</ele>
        <time>2016-05-28T08:49:08Z</time>
      </trkpt>
      <trkpt lat="45.62308" lon="6.85178">
        <ele>1721.8583984375</ele>
        <time>2016-05-28T08:49:18Z</time>
      </trkpt>
      <trkpt lat="45.62316" lon="6.85143">
        <ele>1722.3391113281</ele>
        <time>2016-05-28T08:49:25Z</time>
      </trkpt>
      <trkpt lat="45.6232" lon="6.85097">
        <ele>1724.2619628906</ele>
        <time>2016-05-28T08:49:33Z</time>
      </trkpt>
      <trkpt lat="45.62327" lon="6.85083">
        <ele>1725.7038574219</ele>
        <time>2016-05-28T08:49:36Z</time>
      </trkpt>
      <trkpt lat="45.62333" lon="6.8509">
        <ele>1725.7038574219</ele>
        <time>2016-05-28T08:49:38Z</time>
      </trkpt>
      <trkpt lat="45.62333" lon="6.85102">
        <ele>1725.7038574219</ele>
        <time>2016-05-28T08:49:40Z</time>
      </trkpt>
      <trkpt lat="45.62322" lon="6.85152">
        <ele>1727.1459960938</ele>
        <time>2016-05-28T08:49:48Z</time>
      </trkpt>
      <trkpt lat="45.62308" lon="6.85202">
        <ele>1727.6264648438</ele>
        <time>2016-05-28T08:49:55Z</time>
      </trkpt>
      <trkpt lat="45.62292" lon="6.85267">
        <ele>1729.068359375</ele>
        <time>2016-05-28T08:50:03Z</time>
      </trkpt>
      <trkpt lat="45.62284" lon="6.85325">
        <ele>1730.0297851562</ele>
        <time>2016-05-28T08:50:10Z</time>
      </trkpt>
      <trkpt lat="45.62283" lon="6.85333">
        <ele>1730.5104980469</ele>
        <time>2016-05-28T08:50:11Z</time>
      </trkpt>
      <trkpt lat="45.62288" lon="6.85391">
        <ele>1731.4716796875</ele>
        <time>2016-05-28T08:50:18Z</time>
      </trkpt>
      <trkpt lat="45.62298" lon="6.8546">
        <ele>1733.3942871094</ele>
        <time>2016-05-28T08:50:27Z</time>
      </trkpt>
      <trkpt lat="45.62304" lon="6.85519">
        <ele>1736.2783203125</ele>
        <time>2016-05-28T08:50:35Z</time>
      </trkpt>
      <trkpt lat="45.62305" lon="6.85534">
        <ele>1737.7202148438</ele>
        <time>2016-05-28T08:50:37Z</time>
      </trkpt>
      <trkpt lat="45.62304" lon="6.85583">
        <ele>1739.6428222656</ele>
        <time>2016-05-28T08:50:44Z</time>
      </trkpt>
      <trkpt lat="45.62298" lon="6.85653">
        <ele>1741.5656738281</ele>
        <time>2016-05-28T08:50:54Z</time>
      </trkpt>
      <trkpt lat="45.62291" lon="6.85714">
        <ele>1744.9301757812</ele>
        <time>2016-05-28T08:51:03Z</time>
      </trkpt>
      <trkpt lat="45.6228" lon="6.8575">
        <ele>1746.3723144531</ele>
        <time>2016-05-28T08:51:09Z</time>
      </trkpt>
      <trkpt lat="45.62265" lon="6.85784">
        <ele>1747.8142089844</ele>
        <time>2016-05-28T08:51:15Z</time>
      </trkpt>
      <trkpt lat="45.62261" lon="6.85797">
        <ele>1748.775390625</ele>
        <time>2016-05-28T08:51:17Z</time>
      </trkpt>
      <trkpt lat="45.6226" lon="6.85811">
        <ele>1749.7368164062</ele>
        <time>2016-05-28T08:51:19Z</time>
      </trkpt>
      <trkpt lat="45.6226" lon="6.85841">
        <ele>1750.6979980469</ele>
        <time>2016-05-28T08:51:23Z</time>
      </trkpt>
      <trkpt lat="45.62263" lon="6.85891">
        <ele>1753.1013183594</ele>
        <time>2016-05-28T08:51:30Z</time>
      </trkpt>
      <trkpt lat="45.62265" lon="6.85932">
        <ele>1754.0627441406</ele>
        <time>2016-05-28T08:51:36Z</time>
      </trkpt>
      <trkpt lat="45.6227" lon="6.85984">
        <ele>1755.5046386719</ele>
        <time>2016-05-28T08:51:44Z</time>
      </trkpt>
      <trkpt lat="45.62284" lon="6.86024">
        <ele>1756.4660644531</ele>
        <time>2016-05-28T08:51:51Z</time>
      </trkpt>
      <trkpt lat="45.62291" lon="6.86039">
        <ele>1756.9467773438</ele>
        <time>2016-05-28T08:51:54Z</time>
      </trkpt>
      <trkpt lat="45.62301" lon="6.86058">
        <ele>1757.4274902344</ele>
        <time>2016-05-28T08:51:58Z</time>
      </trkpt>
      <trkpt lat="45.62305" lon="6.86067">
        <ele>1757.4274902344</ele>
        <time>2016-05-28T08:52:00Z</time>
      </trkpt>
      <trkpt lat="45.62324" lon="6.86117">
        <ele>1760.7919921875</ele>
        <time>2016-05-28T08:52:10Z</time>
      </trkpt>
      <trkpt lat="45.62336" lon="6.8617">
        <ele>1762.2338867188</ele>
        <time>2016-05-28T08:52:20Z</time>
      </trkpt>
      <trkpt lat="45.62339" lon="6.86192">
        <ele>1764.6372070312</ele>
        <time>2016-05-28T08:52:24Z</time>
      </trkpt>
      <trkpt lat="45.62347" lon="6.86229">
        <ele>1765.1179199219</ele>
        <time>2016-05-28T08:52:31Z</time>
      </trkpt>
      <trkpt lat="45.62358" lon="6.86265">
        <ele>1767.0405273438</ele>
        <time>2016-05-28T08:52:38Z</time>
      </trkpt>
      <trkpt lat="45.62364" lon="6.86296">
        <ele>1768.9631347656</ele>
        <time>2016-05-28T08:52:44Z</time>
      </trkpt>
      <trkpt lat="45.6237" lon="6.86338">
        <ele>1769.9243164062</ele>
        <time>2016-05-28T08:52:52Z</time>
      </trkpt>
      <trkpt lat="45.62375" lon="6.86371">
        <ele>1769.9243164062</ele>
        <time>2016-05-28T08:52:59Z</time>
      </trkpt>
      <trkpt lat="45.6238" lon="6.86413">
        <ele>1772.80859375</ele>
        <time>2016-05-28T08:53:08Z</time>
      </trkpt>
      <trkpt lat="45.62387" lon="6.86456">
        <ele>1774.7312011719</ele>
        <time>2016-05-28T08:53:17Z</time>
      </trkpt>
      <trkpt lat="45.62398" lon="6.86505">
        <ele>1776.6538085938</ele>
        <time>2016-05-28T08:53:27Z</time>
      </trkpt>
      <trkpt lat="45.62406" lon="6.86515">
        <ele>1776.6538085938</ele>
        <time>2016-05-28T08:53:30Z</time>
      </trkpt>
      <trkpt lat="45.62419" lon="6.86508">
        <ele>1777.1345214844</ele>
        <time>2016-05-28T08:53:34Z</time>
      </trkpt>
      <trkpt lat="45.6242" lon="6.86498">
        <ele>1778.095703125</ele>
        <time>2016-05-28T08:53:36Z</time>
      </trkpt>
      <trkpt lat="45.62416" lon="6.86483">
        <ele>1778.5764160156</ele>
        <time>2016-05-28T08:53:39Z</time>
      </trkpt>
      <trkpt lat="45.62405" lon="6.86456">
        <ele>1780.4990234375</ele>
        <time>2016-05-28T08:53:44Z</time>
      </trkpt>
      <trkpt lat="45.62403" lon="6.86415">
        <ele>1780.4990234375</ele>
        <time>2016-05-28T08:53:51Z</time>
      </trkpt>
      <trkpt lat="45.62406" lon="6.86367">
        <ele>1783.8635253906</ele>
        <time>2016-05-28T08:54:00Z</time>
      </trkpt>
      <trkpt lat="45.62408" lon="6.86337">
        <ele>1783.8635253906</ele>
        <time>2016-05-28T08:54:06Z</time>
      </trkpt>
      <trkpt lat="45.62415" lon="6.863">
        <ele>1785.3054199219</ele>
        <time>2016-05-28T08:54:13Z</time>
      </trkpt>
      <trkpt lat="45.62418" lon="6.86258">
        <ele>1787.7087402344</ele>
        <time>2016-05-28T08:54:21Z</time>
      </trkpt>
      <trkpt lat="45.62414" lon="6.86197">
        <ele>1789.6315917969</ele>
        <time>2016-05-28T08:54:33Z</time>
      </trkpt>
      <trkpt lat="45.62413" lon="6.86141">
        <ele>1792.99609375</ele>
        <time>2016-05-28T08:54:44Z</time>
      </trkpt>
      <trkpt lat="45.62407" lon="6.8609">
        <ele>1795.3994140625</ele>
        <time>2016-05-28T08:54:54Z</time>
      </trkpt>
      <trkpt lat="45.62404" lon="6.86038">
        <ele>1796.3608398438</ele>
        <time>2016-05-28T08:55:04Z</time>
      </trkpt>
      <trkpt lat="45.62404" lon="6.85991">
        <ele>1798.283203125</ele>
        <time>2016-05-28T08:55:13Z</time>
      </trkpt>
      <trkpt lat="45.62403" lon="6.85945">
        <ele>1800.2060546875</ele>
        <time>2016-05-28T08:55:22Z</time>
      </trkpt>
      <trkpt lat="45.62404" lon="6.85907">
        <ele>1802.1284179688</ele>
        <time>2016-05-28T08:55:29Z</time>
      </trkpt>
      <trkpt lat="45.62403" lon="6.8587">
        <ele>1804.5319824219</ele>
        <time>2016-05-28T08:55:36Z</time>
      </trkpt>
      <trkpt lat="45.62405" lon="6.85834">
        <ele>1805.0126953125</ele>
        <time>2016-05-28T08:55:43Z</time>
      </trkpt>
      <trkpt lat="45.62419" lon="6.85811">
        <ele>1806.9353027344</ele>
        <time>2016-05-28T08:55:49Z</time>
      </trkpt>
      <trkpt lat="45.62422" lon="6.85785">
        <ele>1806.4545898438</ele>
        <time>2016-05-28T08:55:54Z</time>
      </trkpt>
      <trkpt lat="45.62429" lon="6.85761">
        <ele>1808.8579101562</ele>
        <time>2016-05-28T08:55:59Z</time>
      </trkpt>
      <trkpt lat="45.62447" lon="6.85734">
        <ele>1809.8190917969</ele>
        <time>2016-05-28T08:56:06Z</time>
      </trkpt>
      <trkpt lat="45.62473" lon="6.85706">
        <ele>1811.2612304688</ele>
        <time>2016-05-28T08:56:15Z</time>
      </trkpt>
      <trkpt lat="45.62499" lon="6.85671">
        <ele>1813.6643066406</ele>
        <time>2016-05-28T08:56:25Z</time>
      </trkpt>
      <trkpt lat="45.62517" lon="6.8563">
        <ele>1815.1064453125</ele>
        <time>2016-05-28T08:56:34Z</time>
      </trkpt>
      <trkpt lat="45.62538" lon="6.85579">
        <ele>1817.0290527344</ele>
        <time>2016-05-28T08:56:45Z</time>
      </trkpt>
      <trkpt lat="45.62551" lon="6.85549">
        <ele>1817.990234375</ele>
        <time>2016-05-28T08:56:52Z</time>
      </trkpt>
      <trkpt lat="45.62565" lon="6.85522">
        <ele>1818.4709472656</ele>
        <time>2016-05-28T08:56:59Z</time>
      </trkpt>
      <trkpt lat="45.6257" lon="6.85492">
        <ele>1820.3937988281</ele>
        <time>2016-05-28T08:57:05Z</time>
      </trkpt>
      <trkpt lat="45.62569" lon="6.85469">
        <ele>1821.3549804688</ele>
        <time>2016-05-28T08:57:09Z</time>
      </trkpt>
      <trkpt lat="45.62569" lon="6.85431">
        <ele>1822.31640625</ele>
        <time>2016-05-28T08:57:16Z</time>
      </trkpt>
      <trkpt lat="45.62573" lon="6.85396">
        <ele>1823.2778320312</ele>
        <time>2016-05-28T08:57:23Z</time>
      </trkpt>
      <trkpt lat="45.62577" lon="6.8536">
        <ele>1826.1616210938</ele>
        <time>2016-05-28T08:57:30Z</time>
      </trkpt>
      <trkpt lat="45.62578" lon="6.85349">
        <ele>1826.6423339844</ele>
        <time>2016-05-28T08:57:32Z</time>
      </trkpt>
      <trkpt lat="45.6258" lon="6.85303">
        <ele>1827.603515625</ele>
        <time>2016-05-28T08:57:41Z</time>
      </trkpt>
      <trkpt lat="45.62583" lon="6.85273">
        <ele>1829.5261230469</ele>
        <time>2016-05-28T08:57:47Z</time>
      </trkpt>
      <trkpt lat="45.62588" lon="6.85229">
        <ele>1830.9682617188</ele>
        <time>2016-05-28T08:57:56Z</time>
      </trkpt>
      <trkpt lat="45.62598" lon="6.85194">
        <ele>1831.9294433594</ele>
        <time>2016-05-28T08:58:03Z</time>
      </trkpt>
      <trkpt lat="45.6261" lon="6.85148">
        <ele>1834.8134765625</ele>
        <time>2016-05-28T08:58:12Z</time>
      </trkpt>
      <trkpt lat="45.62629" lon="6.85106">
        <ele>1835.7746582031</ele>
        <time>2016-05-28T08:58:21Z</time>
      </trkpt>
      <trkpt lat="45.62655" lon="6.85077">
        <ele>1837.216796875</ele>
        <time>2016-05-28T08:58:29Z</time>
      </trkpt>
      <trkpt lat="45.62667" lon="6.85062">
        <ele>1837.6975097656</ele>
        <time>2016-05-28T08:58:33Z</time>
      </trkpt>
      <trkpt lat="45.62672" lon="6.85053">
        <ele>1838.1782226562</ele>
        <time>2016-05-28T08:58:35Z</time>
      </trkpt>
      <trkpt lat="45.62685" lon="6.85016">
        <ele>1839.1394042969</ele>
        <time>2016-05-28T08:58:42Z</time>
      </trkpt>
      <trkpt lat="45.62703" lon="6.8498">
        <ele>1839.6201171875</ele>
        <time>2016-05-28T08:58:49Z</time>
      </trkpt>
      <trkpt lat="45.62718" lon="6.84967">
        <ele>1840.1008300781</ele>
        <time>2016-05-28T08:58:53Z</time>
      </trkpt>
      <trkpt lat="45.62745" lon="6.84936">
        <ele>1841.5427246094</ele>
        <time>2016-05-28T08:59:01Z</time>
      </trkpt>
      <trkpt lat="45.62769" lon="6.84893">
        <ele>1842.5041503906</ele>
        <time>2016-05-28T08:59:10Z</time>
      </trkpt>
      <trkpt lat="45.62791" lon="6.84866">
        <ele>1843.9460449219</ele>
        <time>2016-05-28T08:59:17Z</time>
      </trkpt>
      <trkpt lat="45.62812" lon="6.84851">
        <ele>1843.9460449219</ele>
        <time>2016-05-28T08:59:23Z</time>
      </trkpt>
      <trkpt lat="45.6284" lon="6.84834">
        <ele>1845.3879394531</ele>
        <time>2016-05-28T08:59:31Z</time>
      </trkpt>
      <trkpt lat="45.62863" lon="6.84825">
        <ele>1846.8298339844</ele>
        <time>2016-05-28T08:59:37Z</time>
      </trkpt>
      <trkpt lat="45.62875" lon="6.8482">
        <ele>1847.310546875</ele>
        <time>2016-05-28T08:59:40Z</time>
      </trkpt>
      <trkpt lat="45.62892" lon="6.84806">
        <ele>1848.7524414062</ele>
        <time>2016-05-28T08:59:45Z</time>
      </trkpt>
      <trkpt lat="45.62899" lon="6.84799">
        <ele>1849.7138671875</ele>
        <time>2016-05-28T08:59:47Z</time>
      </trkpt>
      <trkpt lat="45.62921" lon="6.84775">
        <ele>1851.6364746094</ele>
        <time>2016-05-28T08:59:54Z</time>
      </trkpt>
      <trkpt lat="45.62942" lon="6.84749">
        <ele>1853.5593261719</ele>
        <time>2016-05-28T09:00:01Z</time>
      </trkpt>
      <trkpt lat="45.62976" lon="6.84709">
        <ele>1855.0012207031</ele>
        <time>2016-05-28T09:00:12Z</time>
      </trkpt>
      <trkpt lat="45.63005" lon="6.84672">
        <ele>1855.9624023438</ele>
        <time>2016-05-28T09:00:22Z</time>
      </trkpt>
      <trkpt lat="45.63023" lon="6.84664">
        <ele>1858.3657226562</ele>
        <time>2016-05-28T09:00:27Z</time>
      </trkpt>
      <trkpt lat="45.63036" lon="6.84674">
        <ele>1858.8464355469</ele>
        <time>2016-05-28T09:00:31Z</time>
      </trkpt>
      <trkpt lat="45.63055" lon="6.84701">
        <ele>1859.8076171875</ele>
        <time>2016-05-28T09:00:38Z</time>
      </trkpt>
      <trkpt lat="45.63077" lon="6.84717">
        <ele>1861.2497558594</ele>
        <time>2016-05-28T09:00:44Z</time>
      </trkpt>
      <trkpt lat="45.63106" lon="6.84735">
        <ele>1862.2109375</ele>
        <time>2016-05-28T09:00:52Z</time>
      </trkpt>
      <trkpt lat="45.63131" lon="6.84765">
        <ele>1864.1335449219</ele>
        <time>2016-05-28T09:01:00Z</time>
      </trkpt>
      <trkpt lat="45.63157" lon="6.84786">
        <ele>1865.0949707031</ele>
        <time>2016-05-28T09:01:07Z</time>
      </trkpt>
      <trkpt lat="45.63183" lon="6.84809">
        <ele>1868.4597167969</ele>
        <time>2016-05-28T09:01:14Z</time>
      </trkpt>
      <trkpt lat="45.63187" lon="6.84813">
        <ele>1867.9787597656</ele>
        <time>2016-05-28T09:01:15Z</time>
      </trkpt>
      <trkpt lat="45.63212" lon="6.8485">
        <ele>1869.4211425781</ele>
        <time>2016-05-28T09:01:23Z</time>
      </trkpt>
      <trkpt lat="45.63224" lon="6.84868">
        <ele>1870.3823242188</ele>
        <time>2016-05-28T09:01:27Z</time>
      </trkpt>
      <trkpt lat="45.63251" lon="6.84895">
        <ele>1870.8630371094</ele>
        <time>2016-05-28T09:01:34Z</time>
      </trkpt>
      <trkpt lat="45.63291" lon="6.8491">
        <ele>1872.7856445312</ele>
        <time>2016-05-28T09:01:43Z</time>
      </trkpt>
      <trkpt lat="45.63329" lon="6.8491">
        <ele>1874.2275390625</ele>
        <time>2016-05-28T09:01:51Z</time>
      </trkpt>
      <trkpt lat="45.63366" lon="6.84911">
        <ele>1876.630859375</ele>
        <time>2016-05-28T09:01:59Z</time>
      </trkpt>
      <trkpt lat="45.63404" lon="6.84915">
        <ele>1879.0339355469</ele>
        <time>2016-05-28T09:02:07Z</time>
      </trkpt>
      <trkpt lat="45.63428" lon="6.84921">
        <ele>1880.9567871094</ele>
        <time>2016-05-28T09:02:12Z</time>
      </trkpt>
      <trkpt lat="45.63453" lon="6.84941">
        <ele>1883.3598632812</ele>
        <time>2016-05-28T09:02:18Z</time>
      </trkpt>
      <trkpt lat="45.63471" lon="6.84977">
        <ele>1883.3598632812</ele>
        <time>2016-05-28T09:02:25Z</time>
      </trkpt>
      <trkpt lat="45.63481" lon="6.84997">
        <ele>1884.8022460938</ele>
        <time>2016-05-28T09:02:29Z</time>
      </trkpt>
      <trkpt lat="45.63499" lon="6.85017">
        <ele>1884.8022460938</ele>
        <time>2016-05-28T09:02:34Z</time>
      </trkpt>
      <trkpt lat="45.63529" lon="6.85029">
        <ele>1886.724609375</ele>
        <time>2016-05-28T09:02:41Z</time>
      </trkpt>
      <trkpt lat="45.63565" lon="6.85044">
        <ele>1887.6860351562</ele>
        <time>2016-05-28T09:02:49Z</time>
      </trkpt>
      <trkpt lat="45.63578" lon="6.85052">
        <ele>1888.6474609375</ele>
        <time>2016-05-28T09:02:52Z</time>
      </trkpt>
      <trkpt lat="45.636" lon="6.85051">
        <ele>1889.1279296875</ele>
        <time>2016-05-28T09:02:57Z</time>
      </trkpt>
      <trkpt lat="45.63607" lon="6.85044">
        <ele>1889.6086425781</ele>
        <time>2016-05-28T09:02:59Z</time>
      </trkpt>
      <trkpt lat="45.63649" lon="6.84998">
        <ele>1893.4538574219</ele>
        <time>2016-05-28T09:03:10Z</time>
      </trkpt>
      <trkpt lat="45.63692" lon="6.84954">
        <ele>1894.8957519531</ele>
        <time>2016-05-28T09:03:21Z</time>
      </trkpt>
      <trkpt lat="45.63707" lon="6.84939">
        <ele>1894.8957519531</ele>
        <time>2016-05-28T09:03:25Z</time>
      </trkpt>
      <trkpt lat="45.63719" lon="6.84918">
        <ele>1896.337890625</ele>
        <time>2016-05-28T09:03:29Z</time>
      </trkpt>
      <trkpt lat="45.63724" lon="6.84906">
        <ele>1896.337890625</ele>
        <time>2016-05-28T09:03:31Z</time>
      </trkpt>
      <trkpt lat="45.63738" lon="6.84879">
        <ele>1898.2602539062</ele>
        <time>2016-05-28T09:03:36Z</time>
      </trkpt>
      <trkpt lat="45.63742" lon="6.84874">
        <ele>1899.2216796875</ele>
        <time>2016-05-28T09:03:37Z</time>
      </trkpt>
      <trkpt lat="45.63762" lon="6.84826">
        <ele>1901.6252441406</ele>
        <time>2016-05-28T09:03:45Z</time>
      </trkpt>
      <trkpt lat="45.6377" lon="6.84785">
        <ele>1903.0671386719</ele>
        <time>2016-05-28T09:03:51Z</time>
      </trkpt>
      <trkpt lat="45.63774" lon="6.8472">
        <ele>1904.5090332031</ele>
        <time>2016-05-28T09:04:00Z</time>
      </trkpt>
      <trkpt lat="45.63789" lon="6.84689">
        <ele>1904.9897460938</ele>
        <time>2016-05-28T09:04:05Z</time>
      </trkpt>
      <trkpt lat="45.63798" lon="6.84682">
        <ele>1905.4704589844</ele>
        <time>2016-05-28T09:04:07Z</time>
      </trkpt>
      <trkpt lat="45.63812" lon="6.84674">
        <ele>1906.431640625</ele>
        <time>2016-05-28T09:04:10Z</time>
      </trkpt>
      <trkpt lat="45.63845" lon="6.84669">
        <ele>1908.3542480469</ele>
        <time>2016-05-28T09:04:17Z</time>
      </trkpt>
      <trkpt lat="45.63856" lon="6.84668">
        <ele>1909.3156738281</ele>
        <time>2016-05-28T09:04:19Z</time>
      </trkpt>
      <trkpt lat="45.63881" lon="6.84661">
        <ele>1910.7575683594</ele>
        <time>2016-05-28T09:04:24Z</time>
      </trkpt>
      <trkpt lat="45.63925" lon="6.84643">
        <ele>1913.1608886719</ele>
        <time>2016-05-28T09:04:33Z</time>
      </trkpt>
      <trkpt lat="45.6393" lon="6.8464">
        <ele>1913.1608886719</ele>
        <time>2016-05-28T09:04:34Z</time>
      </trkpt>
      <trkpt lat="45.63946" lon="6.84622">
        <ele>1913.6413574219</ele>
        <time>2016-05-28T09:04:38Z</time>
      </trkpt>
      <trkpt lat="45.63965" lon="6.84597">
        <ele>1915.0834960938</ele>
        <time>2016-05-28T09:04:43Z</time>
      </trkpt>
      <trkpt lat="45.64008" lon="6.84557">
        <ele>1917.0063476562</ele>
        <time>2016-05-28T09:04:53Z</time>
      </trkpt>
      <trkpt lat="45.64012" lon="6.84554">
        <ele>1917.4868164062</ele>
        <time>2016-05-28T09:04:54Z</time>
      </trkpt>
      <trkpt lat="45.64028" lon="6.84539">
        <ele>1918.4482421875</ele>
        <time>2016-05-28T09:04:58Z</time>
      </trkpt>
      <trkpt lat="45.64065" lon="6.84518">
        <ele>1920.3708496094</ele>
        <time>2016-05-28T09:05:06Z</time>
      </trkpt>
      <trkpt lat="45.64098" lon="6.84487">
        <ele>1922.2934570312</ele>
        <time>2016-05-28T09:05:14Z</time>
      </trkpt>
      <trkpt lat="45.64134" lon="6.84452">
        <ele>1925.1772460938</ele>
        <time>2016-05-28T09:05:23Z</time>
      </trkpt>
      <trkpt lat="45.6416" lon="6.84434">
        <ele>1926.138671875</ele>
        <time>2016-05-28T09:05:29Z</time>
      </trkpt>
      <trkpt lat="45.64179" lon="6.84437">
        <ele>1929.9838867188</ele>
        <time>2016-05-28T09:05:33Z</time>
      </trkpt>
      <trkpt lat="45.64187" lon="6.84451">
        <ele>1927.5805664062</ele>
        <time>2016-05-28T09:05:36Z</time>
      </trkpt>
      <trkpt lat="45.64188" lon="6.84457">
        <ele>1928.0612792969</ele>
        <time>2016-05-28T09:05:37Z</time>
      </trkpt>
      <trkpt lat="45.64206" lon="6.8452">
        <ele>1929.5031738281</ele>
        <time>2016-05-28T09:05:49Z</time>
      </trkpt>
      <trkpt lat="45.64212" lon="6.84537">
        <ele>1931.9064941406</ele>
        <time>2016-05-28T09:05:52Z</time>
      </trkpt>
      <trkpt lat="45.64223" lon="6.84558">
        <ele>1933.8293457031</ele>
        <time>2016-05-28T09:05:56Z</time>
      </trkpt>
      <trkpt lat="45.64261" lon="6.84616">
        <ele>1934.7907714844</ele>
        <time>2016-05-28T09:06:08Z</time>
      </trkpt>
      <trkpt lat="45.64292" lon="6.84664">
        <ele>1936.2326660156</ele>
        <time>2016-05-28T09:06:18Z</time>
      </trkpt>
      <trkpt lat="45.64317" lon="6.84705">
        <ele>1936.7131347656</ele>
        <time>2016-05-28T09:06:27Z</time>
      </trkpt>
      <trkpt lat="45.64333" lon="6.84724">
        <ele>1938.1552734375</ele>
        <time>2016-05-28T09:06:32Z</time>
      </trkpt>
      <trkpt lat="45.64361" lon="6.84754">
        <ele>1940.0778808594</ele>
        <time>2016-05-28T09:06:41Z</time>
      </trkpt>
      <trkpt lat="45.64385" lon="6.8477">
        <ele>1943.4423828125</ele>
        <time>2016-05-28T09:06:48Z</time>
      </trkpt>
      <trkpt lat="45.64394" lon="6.84772">
        <ele>1944.4035644531</ele>
        <time>2016-05-28T09:06:50Z</time>
      </trkpt>
      <trkpt lat="45.64399" lon="6.84773">
        <ele>1944.4035644531</ele>
        <time>2016-05-28T09:06:51Z</time>
      </trkpt>
      <trkpt lat="45.64429" lon="6.84792">
        <ele>1944.8842773438</ele>
        <time>2016-05-28T09:06:59Z</time>
      </trkpt>
      <trkpt lat="45.64453" lon="6.8482">
        <ele>1948.7297363281</ele>
        <time>2016-05-28T09:07:07Z</time>
      </trkpt>
      <trkpt lat="45.64456" lon="6.84824">
        <ele>1948.2490234375</ele>
        <time>2016-05-28T09:07:08Z</time>
      </trkpt>
      <trkpt lat="45.64459" lon="6.84828">
        <ele>1946.8068847656</ele>
        <time>2016-05-28T09:07:09Z</time>
      </trkpt>
      <trkpt lat="45.64481" lon="6.84875">
        <ele>1947.2875976562</ele>
        <time>2016-05-28T09:07:19Z</time>
      </trkpt>
      <trkpt lat="45.64503" lon="6.84915">
        <ele>1949.6911621094</ele>
        <time>2016-05-28T09:07:28Z</time>
      </trkpt>
      <trkpt lat="45.6453" lon="6.84942">
        <ele>1951.6137695312</ele>
        <time>2016-05-28T09:07:36Z</time>
      </trkpt>
      <trkpt lat="45.64533" lon="6.84946">
        <ele>1951.1330566406</ele>
        <time>2016-05-28T09:07:37Z</time>
      </trkpt>
      <trkpt lat="45.64541" lon="6.84957">
        <ele>1953.5363769531</ele>
        <time>2016-05-28T09:07:40Z</time>
      </trkpt>
      <trkpt lat="45.64558" lon="6.84993">
        <ele>1956.4201660156</ele>
        <time>2016-05-28T09:07:48Z</time>
      </trkpt>
      <trkpt lat="45.64563" lon="6.85002">
        <ele>1954.4975585938</ele>
        <time>2016-05-28T09:07:50Z</time>
      </trkpt>
      <trkpt lat="45.64583" lon="6.85034">
        <ele>1955.939453125</ele>
        <time>2016-05-28T09:07:57Z</time>
      </trkpt>
      <trkpt lat="45.64618" lon="6.85073">
        <ele>1958.8234863281</ele>
        <time>2016-05-28T09:08:07Z</time>
      </trkpt>
      <trkpt lat="45.64647" lon="6.85111">
        <ele>1959.7846679688</ele>
        <time>2016-05-28T09:08:16Z</time>
      </trkpt>
      <trkpt lat="45.64674" lon="6.8515">
        <ele>1961.2268066406</ele>
        <time>2016-05-28T09:08:25Z</time>
      </trkpt>
      <trkpt lat="45.64696" lon="6.85184">
        <ele>1963.1494140625</ele>
        <time>2016-05-28T09:08:33Z</time>
      </trkpt>
      <trkpt lat="45.6471" lon="6.85204">
        <ele>1965.5529785156</ele>
        <time>2016-05-28T09:08:38Z</time>
      </trkpt>
      <trkpt lat="45.64714" lon="6.85207">
        <ele>1965.072265625</ele>
        <time>2016-05-28T09:08:39Z</time>
      </trkpt>
      <trkpt lat="45.6474" lon="6.85215">
        <ele>1966.5141601562</ele>
        <time>2016-05-28T09:08:45Z</time>
      </trkpt>
      <trkpt lat="45.64767" lon="6.85219">
        <ele>1967.4753417969</ele>
        <time>2016-05-28T09:08:51Z</time>
      </trkpt>
      <trkpt lat="45.6482" lon="6.85249">
        <ele>1968.9174804688</ele>
        <time>2016-05-28T09:09:04Z</time>
      </trkpt>
      <trkpt lat="45.64859" lon="6.85269">
        <ele>1969.3981933594</ele>
        <time>2016-05-28T09:09:13Z</time>
      </trkpt>
      <trkpt lat="45.6489" lon="6.85286">
        <ele>1970.8400878906</ele>
        <time>2016-05-28T09:09:20Z</time>
      </trkpt>
      <trkpt lat="45.64898" lon="6.85292">
        <ele>1971.3205566406</ele>
        <time>2016-05-28T09:09:22Z</time>
      </trkpt>
      <trkpt lat="45.64918" lon="6.85324">
        <ele>1972.2819824219</ele>
        <time>2016-05-28T09:09:29Z</time>
      </trkpt>
      <trkpt lat="45.64936" lon="6.85365">
        <ele>1973.2434082031</ele>
        <time>2016-05-28T09:09:37Z</time>
      </trkpt>
      <trkpt lat="45.64959" lon="6.85413">
        <ele>1976.1271972656</ele>
        <time>2016-05-28T09:09:47Z</time>
      </trkpt>
      <trkpt lat="45.64963" lon="6.85424">
        <ele>1976.6079101562</ele>
        <time>2016-05-28T09:09:49Z</time>
      </trkpt>
      <trkpt lat="45.64969" lon="6.85468">
        <ele>1976.6079101562</ele>
        <time>2016-05-28T09:09:57Z</time>
      </trkpt>
      <trkpt lat="45.64981" lon="6.85503">
        <ele>1978.0498046875</ele>
        <time>2016-05-28T09:10:04Z</time>
      </trkpt>
      <trkpt lat="45.65" lon="6.85537">
        <ele>1980.9340820312</ele>
        <time>2016-05-28T09:10:12Z</time>
      </trkpt>
      <trkpt lat="45.65008" lon="6.85548">
        <ele>1984.2985839844</ele>
        <time>2016-05-28T09:10:15Z</time>
      </trkpt>
      <trkpt lat="45.65011" lon="6.85551">
        <ele>1983.3371582031</ele>
        <time>2016-05-28T09:10:16Z</time>
      </trkpt>
      <trkpt lat="45.65021" lon="6.85569">
        <ele>1985.259765625</ele>
        <time>2016-05-28T09:10:20Z</time>
      </trkpt>
      <trkpt lat="45.65023" lon="6.85575">
        <ele>1984.2985839844</ele>
        <time>2016-05-28T09:10:21Z</time>
      </trkpt>
      <trkpt lat="45.65042" lon="6.85621">
        <ele>1985.7404785156</ele>
        <time>2016-05-28T09:10:30Z</time>
      </trkpt>
      <trkpt lat="45.6505" lon="6.85635">
        <ele>1985.7404785156</ele>
        <time>2016-05-28T09:10:33Z</time>
      </trkpt>
      <trkpt lat="45.65064" lon="6.85649">
        <ele>1986.2211914062</ele>
        <time>2016-05-28T09:10:37Z</time>
      </trkpt>
      <trkpt lat="45.65082" lon="6.8566">
        <ele>1987.1823730469</ele>
        <time>2016-05-28T09:10:41Z</time>
      </trkpt>
      <trkpt lat="45.65122" lon="6.85685">
        <ele>1987.1823730469</ele>
        <time>2016-05-28T09:10:49Z</time>
      </trkpt>
      <trkpt lat="45.65169" lon="6.85718">
        <ele>1990.06640625</ele>
        <time>2016-05-28T09:10:59Z</time>
      </trkpt>
      <trkpt lat="45.65186" lon="6.85733">
        <ele>1990.546875</ele>
        <time>2016-05-28T09:11:03Z</time>
      </trkpt>
      <trkpt lat="45.65216" lon="6.85769">
        <ele>1991.5083007812</ele>
        <time>2016-05-28T09:11:11Z</time>
      </trkpt>
      <trkpt lat="45.65239" lon="6.85794">
        <ele>1994.3920898438</ele>
        <time>2016-05-28T09:11:17Z</time>
      </trkpt>
      <trkpt lat="45.65244" lon="6.85797">
        <ele>1993.9116210938</ele>
        <time>2016-05-28T09:11:18Z</time>
      </trkpt>
      <trkpt lat="45.65258" lon="6.85805">
        <ele>1995.353515625</ele>
        <time>2016-05-28T09:11:21Z</time>
      </trkpt>
      <trkpt lat="45.65294" lon="6.85821">
        <ele>1996.7956542969</ele>
        <time>2016-05-28T09:11:28Z</time>
      </trkpt>
      <trkpt lat="45.65327" lon="6.85843">
        <ele>1998.2375488281</ele>
        <time>2016-05-28T09:11:35Z</time>
      </trkpt>
      <trkpt lat="45.65351" lon="6.8587">
        <ele>1998.7182617188</ele>
        <time>2016-05-28T09:11:41Z</time>
      </trkpt>
      <trkpt lat="45.65378" lon="6.85907">
        <ele>2000.6408691406</ele>
        <time>2016-05-28T09:11:49Z</time>
      </trkpt>
      <trkpt lat="45.65392" lon="6.85926">
        <ele>2002.5634765625</ele>
        <time>2016-05-28T09:11:53Z</time>
      </trkpt>
      <trkpt lat="45.65417" lon="6.85956">
        <ele>2003.5249023438</ele>
        <time>2016-05-28T09:12:00Z</time>
      </trkpt>
      <trkpt lat="45.65452" lon="6.8597">
        <ele>2005.9279785156</ele>
        <time>2016-05-28T09:12:07Z</time>
      </trkpt>
      <trkpt lat="45.65463" lon="6.85973">
        <ele>2006.4086914062</ele>
        <time>2016-05-28T09:12:09Z</time>
      </trkpt>
      <trkpt lat="45.65482" lon="6.85985">
        <ele>2006.4086914062</ele>
        <time>2016-05-28T09:12:13Z</time>
      </trkpt>
      <trkpt lat="45.65489" lon="6.85993">
        <ele>2008.8120117188</ele>
        <time>2016-05-28T09:12:15Z</time>
      </trkpt>
      <trkpt lat="45.65507" lon="6.86025">
        <ele>2006.8894042969</ele>
        <time>2016-05-28T09:12:22Z</time>
      </trkpt>
      <trkpt lat="45.65521" lon="6.86062">
        <ele>2009.7731933594</ele>
        <time>2016-05-28T09:12:30Z</time>
      </trkpt>
      <trkpt lat="45.65538" lon="6.86094">
        <ele>2011.6960449219</ele>
        <time>2016-05-28T09:12:37Z</time>
      </trkpt>
      <trkpt lat="45.65551" lon="6.86111">
        <ele>2012.6574707031</ele>
        <time>2016-05-28T09:12:41Z</time>
      </trkpt>
      <trkpt lat="45.65559" lon="6.86118">
        <ele>2013.1381835938</ele>
        <time>2016-05-28T09:12:43Z</time>
      </trkpt>
      <trkpt lat="45.6559" lon="6.86131">
        <ele>2014.0993652344</ele>
        <time>2016-05-28T09:12:50Z</time>
      </trkpt>
      <trkpt lat="45.65619" lon="6.86142">
        <ele>2016.5026855469</ele>
        <time>2016-05-28T09:12:57Z</time>
      </trkpt>
      <trkpt lat="45.65639" lon="6.86162">
        <ele>2017.4638671875</ele>
        <time>2016-05-28T09:13:03Z</time>
      </trkpt>
      <trkpt lat="45.65664" lon="6.86199">
        <ele>2017.9445800781</ele>
        <time>2016-05-28T09:13:12Z</time>
      </trkpt>
      <trkpt lat="45.6567" lon="6.8622">
        <ele>2019.38671875</ele>
        <time>2016-05-28T09:13:16Z</time>
      </trkpt>
      <trkpt lat="45.65684" lon="6.86262">
        <ele>2020.3479003906</ele>
        <time>2016-05-28T09:13:24Z</time>
      </trkpt>
      <trkpt lat="45.65709" lon="6.86294">
        <ele>2021.7897949219</ele>
        <time>2016-05-28T09:13:32Z</time>
      </trkpt>
      <trkpt lat="45.6573" lon="6.86316">
        <ele>2024.1931152344</ele>
        <time>2016-05-28T09:13:38Z</time>
      </trkpt>
      <trkpt lat="45.65759" lon="6.8634">
        <ele>2025.154296875</ele>
        <time>2016-05-28T09:13:45Z</time>
      </trkpt>
      <trkpt lat="45.65769" lon="6.86345">
        <ele>2026.1157226562</ele>
        <time>2016-05-28T09:13:47Z</time>
      </trkpt>
      <trkpt lat="45.65798" lon="6.86362">
        <ele>2028.0385742188</ele>
        <time>2016-05-28T09:13:53Z</time>
      </trkpt>
      <trkpt lat="45.65832" lon="6.86397">
        <ele>2028.5192871094</ele>
        <time>2016-05-28T09:14:01Z</time>
      </trkpt>
      <trkpt lat="45.65861" lon="6.86409">
        <ele>2029.48046875</ele>
        <time>2016-05-28T09:14:07Z</time>
      </trkpt>
      <trkpt lat="45.65892" lon="6.86423">
        <ele>2033.3256835938</ele>
        <time>2016-05-28T09:14:13Z</time>
      </trkpt>
      <trkpt lat="45.65908" lon="6.86439">
        <ele>2031.4030761719</ele>
        <time>2016-05-28T09:14:17Z</time>
      </trkpt>
      <trkpt lat="45.65925" lon="6.86472">
        <ele>2031.4030761719</ele>
        <time>2016-05-28T09:14:24Z</time>
      </trkpt>
      <trkpt lat="45.6594" lon="6.86505">
        <ele>2032.3645019531</ele>
        <time>2016-05-28T09:14:31Z</time>
      </trkpt>
      <trkpt lat="45.65948" lon="6.86525">
        <ele>2036.2097167969</ele>
        <time>2016-05-28T09:14:35Z</time>
      </trkpt>
      <trkpt lat="45.6595" lon="6.8653">
        <ele>2035.7290039062</ele>
        <time>2016-05-28T09:14:36Z</time>
      </trkpt>
      <trkpt lat="45.65965" lon="6.86569">
        <ele>2034.287109375</ele>
        <time>2016-05-28T09:14:44Z</time>
      </trkpt>
      <trkpt lat="45.65982" lon="6.86598">
        <ele>2036.2097167969</ele>
        <time>2016-05-28T09:14:51Z</time>
      </trkpt>
      <trkpt lat="45.65991" lon="6.86608">
        <ele>2039.57421875</ele>
        <time>2016-05-28T09:14:54Z</time>
      </trkpt>
      <trkpt lat="45.65994" lon="6.86611">
        <ele>2039.57421875</ele>
        <time>2016-05-28T09:14:55Z</time>
      </trkpt>
      <trkpt lat="45.66018" lon="6.86638">
        <ele>2041.0161132812</ele>
        <time>2016-05-28T09:15:03Z</time>
      </trkpt>
      <trkpt lat="45.66028" lon="6.86654">
        <ele>2042.9387207031</ele>
        <time>2016-05-28T09:15:07Z</time>
      </trkpt>
      <trkpt lat="45.66053" lon="6.86691">
        <ele>2043.4194335938</ele>
        <time>2016-05-28T09:15:16Z</time>
      </trkpt>
      <trkpt lat="45.66073" lon="6.86716">
        <ele>2044.8615722656</ele>
        <time>2016-05-28T09:15:23Z</time>
      </trkpt>
      <trkpt lat="45.66082" lon="6.86727">
        <ele>2046.3037109375</ele>
        <time>2016-05-28T09:15:26Z</time>
      </trkpt>
      <trkpt lat="45.661" lon="6.86747">
        <ele>2046.3037109375</ele>
        <time>2016-05-28T09:15:32Z</time>
      </trkpt>
      <trkpt lat="45.66115" lon="6.86764">
        <ele>2048.2260742188</ele>
        <time>2016-05-28T09:15:37Z</time>
      </trkpt>
      <trkpt lat="45.66135" lon="6.8679">
        <ele>2050.1489257812</ele>
        <time>2016-05-28T09:15:44Z</time>
      </trkpt>
      <trkpt lat="45.66159" lon="6.86826">
        <ele>2052.5520019531</ele>
        <time>2016-05-28T09:15:53Z</time>
      </trkpt>
      <trkpt lat="45.66169" lon="6.86849">
        <ele>2053.0327148438</ele>
        <time>2016-05-28T09:15:58Z</time>
      </trkpt>
      <trkpt lat="45.66172" lon="6.86859">
        <ele>2053.994140625</ele>
        <time>2016-05-28T09:16:00Z</time>
      </trkpt>
      <trkpt lat="45.66185" lon="6.86891">
        <ele>2055.4360351562</ele>
        <time>2016-05-28T09:16:07Z</time>
      </trkpt>
      <trkpt lat="45.66202" lon="6.86907">
        <ele>2055.4360351562</ele>
        <time>2016-05-28T09:16:13Z</time>
      </trkpt>
      <trkpt lat="45.66224" lon="6.86921">
        <ele>2056.8779296875</ele>
        <time>2016-05-28T09:16:20Z</time>
      </trkpt>
      <trkpt lat="45.66239" lon="6.86945">
        <ele>2057.8393554688</ele>
        <time>2016-05-28T09:16:27Z</time>
      </trkpt>
      <trkpt lat="45.66244" lon="6.86978">
        <ele>2060.2426757812</ele>
        <time>2016-05-28T09:16:34Z</time>
      </trkpt>
      <trkpt lat="45.6624" lon="6.87013">
        <ele>2061.6848144531</ele>
        <time>2016-05-28T09:16:42Z</time>
      </trkpt>
      <trkpt lat="45.6623" lon="6.87042">
        <ele>2061.6848144531</ele>
        <time>2016-05-28T09:16:49Z</time>
      </trkpt>
      <trkpt lat="45.66231" lon="6.87062">
        <ele>2061.6848144531</ele>
        <time>2016-05-28T09:16:53Z</time>
      </trkpt>
      <trkpt lat="45.66247" lon="6.87078">
        <ele>2062.1652832031</ele>
        <time>2016-05-28T09:16:58Z</time>
      </trkpt>
      <trkpt lat="45.66256" lon="6.87075">
        <ele>2062.1652832031</ele>
        <time>2016-05-28T09:17:00Z</time>
      </trkpt>
      <trkpt lat="45.66295" lon="6.87055">
        <ele>2063.1267089844</ele>
        <time>2016-05-28T09:17:09Z</time>
      </trkpt>
      <trkpt lat="45.66331" lon="6.87044">
        <ele>2065.0493164062</ele>
        <time>2016-05-28T09:17:17Z</time>
      </trkpt>
      <trkpt lat="45.66335" lon="6.87044">
        <ele>2065.0493164062</ele>
        <time>2016-05-28T09:17:18Z</time>
      </trkpt>
      <trkpt lat="45.66361" lon="6.87052">
        <ele>2067.4523925781</ele>
        <time>2016-05-28T09:17:24Z</time>
      </trkpt>
      <trkpt lat="45.6637" lon="6.87053">
        <ele>2068.89453125</ele>
        <time>2016-05-28T09:17:26Z</time>
      </trkpt>
      <trkpt lat="45.6639" lon="6.87056">
        <ele>2070.8171386719</ele>
        <time>2016-05-28T09:17:31Z</time>
      </trkpt>
      <trkpt lat="45.66401" lon="6.87059">
        <ele>2071.7783203125</ele>
        <time>2016-05-28T09:17:34Z</time>
      </trkpt>
      <trkpt lat="45.66424" lon="6.8707">
        <ele>2073.2204589844</ele>
        <time>2016-05-28T09:17:41Z</time>
      </trkpt>
      <trkpt lat="45.66439" lon="6.87079">
        <ele>2074.6623535156</ele>
        <time>2016-05-28T09:17:46Z</time>
      </trkpt>
      <trkpt lat="45.66468" lon="6.87101">
        <ele>2077.0659179688</ele>
        <time>2016-05-28T09:17:56Z</time>
      </trkpt>
      <trkpt lat="45.6649" lon="6.87124">
        <ele>2078.5078125</ele>
        <time>2016-05-28T09:18:05Z</time>
      </trkpt>
      <trkpt lat="45.66514" lon="6.87137">
        <ele>2080.4304199219</ele>
        <time>2016-05-28T09:18:13Z</time>
      </trkpt>
      <trkpt lat="45.6653" lon="6.8714">
        <ele>2082.3530273438</ele>
        <time>2016-05-28T09:18:18Z</time>
      </trkpt>
      <trkpt lat="45.66557" lon="6.87145">
        <ele>2084.7563476562</ele>
        <time>2016-05-28T09:18:27Z</time>
      </trkpt>
      <trkpt lat="45.6659" lon="6.87157">
        <ele>2087.1594238281</ele>
        <time>2016-05-28T09:18:38Z</time>
      </trkpt>
      <trkpt lat="45.66616" lon="6.87176">
        <ele>2088.1208496094</ele>
        <time>2016-05-28T09:18:47Z</time>
      </trkpt>
      <trkpt lat="45.66639" lon="6.8719">
        <ele>2089.08203125</ele>
        <time>2016-05-28T09:18:55Z</time>
      </trkpt>
      <trkpt lat="45.66658" lon="6.87195">
        <ele>2092.4470214844</ele>
        <time>2016-05-28T09:19:01Z</time>
      </trkpt>
      <trkpt lat="45.66683" lon="6.872">
        <ele>2093.8889160156</ele>
        <time>2016-05-28T09:19:09Z</time>
      </trkpt>
      <trkpt lat="45.66707" lon="6.87209">
        <ele>2095.3308105469</ele>
        <time>2016-05-28T09:19:17Z</time>
      </trkpt>
      <trkpt lat="45.6673" lon="6.87222">
        <ele>2096.7727050781</ele>
        <time>2016-05-28T09:19:25Z</time>
      </trkpt>
      <trkpt lat="45.66753" lon="6.87234">
        <ele>2098.2145996094</ele>
        <time>2016-05-28T09:19:33Z</time>
      </trkpt>
      <trkpt lat="45.66776" lon="6.87238">
        <ele>2100.6179199219</ele>
        <time>2016-05-28T09:19:40Z</time>
      </trkpt>
      <trkpt lat="45.66791" lon="6.87237">
        <ele>2101.5793457031</ele>
        <time>2016-05-28T09:19:44Z</time>
      </trkpt>
      <trkpt lat="45.66814" lon="6.87228">
        <ele>2103.501953125</ele>
        <time>2016-05-28T09:19:51Z</time>
      </trkpt>
      <trkpt lat="45.66818" lon="6.87228">
        <ele>2103.501953125</ele>
        <time>2016-05-28T09:19:52Z</time>
      </trkpt>
      <trkpt lat="45.66839" lon="6.87232">
        <ele>2106.3857421875</ele>
        <time>2016-05-28T09:19:58Z</time>
      </trkpt>
      <trkpt lat="45.66844" lon="6.87236">
        <ele>2104.9438476562</ele>
        <time>2016-05-28T09:20:00Z</time>
      </trkpt>
      <trkpt lat="45.66855" lon="6.87252">
        <ele>2105.9050292969</ele>
        <time>2016-05-28T09:20:05Z</time>
      </trkpt>
      <trkpt lat="45.6687" lon="6.87271">
        <ele>2106.8664550781</ele>
        <time>2016-05-28T09:20:11Z</time>
      </trkpt>
      <trkpt lat="45.66884" lon="6.87274">
        <ele>2108.30859375</ele>
        <time>2016-05-28T09:20:15Z</time>
      </trkpt>
      <trkpt lat="45.66905" lon="6.87266">
        <ele>2108.7893066406</ele>
        <time>2016-05-28T09:20:21Z</time>
      </trkpt>
      <trkpt lat="45.66931" lon="6.87252">
        <ele>2110.7119140625</ele>
        <time>2016-05-28T09:20:29Z</time>
      </trkpt>
      <trkpt lat="45.66947" lon="6.87257">
        <ele>2112.1538085938</ele>
        <time>2016-05-28T09:20:34Z</time>
      </trkpt>
      <trkpt lat="45.66973" lon="6.87278">
        <ele>2114.5571289062</ele>
        <time>2016-05-28T09:20:43Z</time>
      </trkpt>
      <trkpt lat="45.66987" lon="6.87284">
        <ele>2116.4797363281</ele>
        <time>2016-05-28T09:20:47Z</time>
      </trkpt>
      <trkpt lat="45.67012" lon="6.87298">
        <ele>2115.9990234375</ele>
        <time>2016-05-28T09:20:55Z</time>
      </trkpt>
      <trkpt lat="45.67037" lon="6.87319">
        <ele>2118.8830566406</ele>
        <time>2016-05-28T09:21:03Z</time>
      </trkpt>
      <trkpt lat="45.67046" lon="6.87327">
        <ele>2119.8442382812</ele>
        <time>2016-05-28T09:21:06Z</time>
      </trkpt>
      <trkpt lat="45.67065" lon="6.8735">
        <ele>2119.8442382812</ele>
        <time>2016-05-28T09:21:13Z</time>
      </trkpt>
      <trkpt lat="45.67065" lon="6.87368">
        <ele>2119.8442382812</ele>
        <time>2016-05-28T09:21:17Z</time>
      </trkpt>
      <trkpt lat="45.67055" lon="6.87376">
        <ele>2120.8056640625</ele>
        <time>2016-05-28T09:21:20Z</time>
      </trkpt>
      <trkpt lat="45.67042" lon="6.87375">
        <ele>2122.2475585938</ele>
        <time>2016-05-28T09:21:23Z</time>
      </trkpt>
      <trkpt lat="45.67032" lon="6.87371">
        <ele>2122.2475585938</ele>
        <time>2016-05-28T09:21:25Z</time>
      </trkpt>
      <trkpt lat="45.67019" lon="6.87362">
        <ele>2124.1704101562</ele>
        <time>2016-05-28T09:21:28Z</time>
      </trkpt>
      <trkpt lat="45.66999" lon="6.8734">
        <ele>2125.6123046875</ele>
        <time>2016-05-28T09:21:33Z</time>
      </trkpt>
      <trkpt lat="45.66991" lon="6.87332">
        <ele>2126.0930175781</ele>
        <time>2016-05-28T09:21:35Z</time>
      </trkpt>
      <trkpt lat="45.66973" lon="6.8732">
        <ele>2128.015625</ele>
        <time>2016-05-28T09:21:39Z</time>
      </trkpt>
      <trkpt lat="45.66957" lon="6.87316">
        <ele>2128.015625</ele>
        <time>2016-05-28T09:21:42Z</time>
      </trkpt>
      <trkpt lat="45.66941" lon="6.87328">
        <ele>2128.015625</ele>
        <time>2016-05-28T09:21:46Z</time>
      </trkpt>
      <trkpt lat="45.66944" lon="6.87348">
        <ele>2129.4575195312</ele>
        <time>2016-05-28T09:21:49Z</time>
      </trkpt>
      <trkpt lat="45.66951" lon="6.87358">
        <ele>2129.9382324219</ele>
        <time>2016-05-28T09:21:51Z</time>
      </trkpt>
      <trkpt lat="45.66976" lon="6.87385">
        <ele>2129.9382324219</ele>
        <time>2016-05-28T09:21:58Z</time>
      </trkpt>
      <trkpt lat="45.67007" lon="6.87418">
        <ele>2133.302734375</ele>
        <time>2016-05-28T09:22:08Z</time>
      </trkpt>
      <trkpt lat="45.67028" lon="6.87441">
        <ele>2134.7448730469</ele>
        <time>2016-05-28T09:22:15Z</time>
      </trkpt>
      <trkpt lat="45.67043" lon="6.87458">
        <ele>2138.109375</ele>
        <time>2016-05-28T09:22:20Z</time>
      </trkpt>
      <trkpt lat="45.6707" lon="6.87488">
        <ele>2139.5512695312</ele>
        <time>2016-05-28T09:22:29Z</time>
      </trkpt>
      <trkpt lat="45.67092" lon="6.87511">
        <ele>2142.916015625</ele>
        <time>2016-05-28T09:22:36Z</time>
      </trkpt>
      <trkpt lat="45.67115" lon="6.87538">
        <ele>2144.3579101562</ele>
        <time>2016-05-28T09:22:43Z</time>
      </trkpt>
      <trkpt lat="45.67131" lon="6.87557">
        <ele>2147.2419433594</ele>
        <time>2016-05-28T09:22:48Z</time>
      </trkpt>
      <trkpt lat="45.67155" lon="6.87585">
        <ele>2146.7612304688</ele>
        <time>2016-05-28T09:22:55Z</time>
      </trkpt>
      <trkpt lat="45.67182" lon="6.87614">
        <ele>2148.203125</ele>
        <time>2016-05-28T09:23:02Z</time>
      </trkpt>
      <trkpt lat="45.67215" lon="6.87653">
        <ele>2149.6452636719</ele>
        <time>2016-05-28T09:23:11Z</time>
      </trkpt>
      <trkpt lat="45.67256" lon="6.87698">
        <ele>2151.0871582031</ele>
        <time>2016-05-28T09:23:21Z</time>
      </trkpt>
      <trkpt lat="45.67286" lon="6.87732">
        <ele>2152.0483398438</ele>
        <time>2016-05-28T09:23:28Z</time>
      </trkpt>
      <trkpt lat="45.67314" lon="6.87762">
        <ele>2152.0483398438</ele>
        <time>2016-05-28T09:23:34Z</time>
      </trkpt>
      <trkpt lat="45.67341" lon="6.87792">
        <ele>2154.9323730469</ele>
        <time>2016-05-28T09:23:40Z</time>
      </trkpt>
      <trkpt lat="45.67346" lon="6.87797">
        <ele>2155.4130859375</ele>
        <time>2016-05-28T09:23:41Z</time>
      </trkpt>
      <trkpt lat="45.67387" lon="6.87843">
        <ele>2156.8552246094</ele>
        <time>2016-05-28T09:23:50Z</time>
      </trkpt>
      <trkpt lat="45.67416" lon="6.87876">
        <ele>2160.2197265625</ele>
        <time>2016-05-28T09:23:56Z</time>
      </trkpt>
      <trkpt lat="45.67454" lon="6.87917">
        <ele>2159.7390136719</ele>
        <time>2016-05-28T09:24:03Z</time>
      </trkpt>
      <trkpt lat="45.67499" lon="6.87968">
        <ele>2160.2197265625</ele>
        <time>2016-05-28T09:24:11Z</time>
      </trkpt>
      <trkpt lat="45.67545" lon="6.8802">
        <ele>2161.6618652344</ele>
        <time>2016-05-28T09:24:19Z</time>
      </trkpt>
      <trkpt lat="45.67591" lon="6.88072">
        <ele>2162.623046875</ele>
        <time>2016-05-28T09:24:27Z</time>
      </trkpt>
      <trkpt lat="45.67647" lon="6.88133">
        <ele>2163.1037597656</ele>
        <time>2016-05-28T09:24:37Z</time>
      </trkpt>
      <trkpt lat="45.67662" lon="6.88149">
        <ele>2163.5842285156</ele>
        <time>2016-05-28T09:24:40Z</time>
      </trkpt>
      <trkpt lat="45.67698" lon="6.88172">
        <ele>2164.0649414062</ele>
        <time>2016-05-28T09:24:48Z</time>
      </trkpt>
      <trkpt lat="45.67739" lon="6.88193">
        <ele>2167.91015625</ele>
        <time>2016-05-28T09:24:57Z</time>
      </trkpt>
      <trkpt lat="45.67744" lon="6.88195">
        <ele>2167.91015625</ele>
        <time>2016-05-28T09:24:58Z</time>
      </trkpt>
      <trkpt lat="45.67776" lon="6.88211">
        <ele>2170.3134765625</ele>
        <time>2016-05-28T09:25:05Z</time>
      </trkpt>
      <trkpt lat="45.67822" lon="6.88234">
        <ele>2174.1589355469</ele>
        <time>2016-05-28T09:25:15Z</time>
      </trkpt>
      <trkpt lat="45.67827" lon="6.88236">
        <ele>2174.6396484375</ele>
        <time>2016-05-28T09:25:16Z</time>
      </trkpt>
      <trkpt lat="45.67857" lon="6.8825">
        <ele>2177.5234375</ele>
        <time>2016-05-28T09:25:22Z</time>
      </trkpt>
      <trkpt lat="45.67894" lon="6.8827">
        <ele>2178.0041503906</ele>
        <time>2016-05-28T09:25:30Z</time>
      </trkpt>
      <trkpt lat="45.67923" lon="6.88293">
        <ele>2181.3686523438</ele>
        <time>2016-05-28T09:25:37Z</time>
      </trkpt>
      <trkpt lat="45.67926" lon="6.88296">
        <ele>2180.8881835938</ele>
        <time>2016-05-28T09:25:38Z</time>
      </trkpt>
      <trkpt lat="45.67944" lon="6.88315">
        <ele>2180.8881835938</ele>
        <time>2016-05-28T09:25:44Z</time>
      </trkpt>
      <trkpt lat="45.67974" lon="6.88339">
        <ele>2180.8881835938</ele>
        <time>2016-05-28T09:25:53Z</time>
      </trkpt>
      <trkpt lat="45.67982" lon="6.88357">
        <ele>2181.3686523438</ele>
        <time>2016-05-28T09:25:57Z</time>
      </trkpt>
      <trkpt lat="45.67986" lon="6.8837">
        <ele>2179.9267578125</ele>
        <time>2016-05-28T09:26:01Z</time>
      </trkpt>
      <trkpt lat="45.67989" lon="6.88366">
        <ele>2180.8881835938</ele>
        <time>2016-05-28T09:26:05Z</time>
      </trkpt>
      <trkpt lat="45.67983" lon="6.88348">
        <ele>2180.8881835938</ele>
        <time>2016-05-28T09:26:09Z</time>
      </trkpt>
      <trkpt lat="45.67975" lon="6.88335">
        <ele>2180.8881835938</ele>
        <time>2016-05-28T09:26:12Z</time>
      </trkpt>
      <trkpt lat="45.67958" lon="6.88314">
        <ele>2180.4074707031</ele>
        <time>2016-05-28T09:26:17Z</time>
      </trkpt>
      <trkpt lat="45.67935" lon="6.88301">
        <ele>2180.8881835938</ele>
        <time>2016-05-28T09:26:23Z</time>
      </trkpt>
      <trkpt lat="45.6793" lon="6.883">
        <ele>2180.8881835938</ele>
        <time>2016-05-28T09:26:25Z</time>
      </trkpt>
      <trkpt lat="45.67929" lon="6.88305">
        <ele>2180.8881835938</ele>
        <time>2016-05-28T09:26:29Z</time>
      </trkpt>
      <trkpt lat="45.67939" lon="6.8831">
        <ele>2180.8881835938</ele>
        <time>2016-05-28T09:26:33Z</time>
      </trkpt>
      <trkpt lat="45.67972" lon="6.88332">
        <ele>2181.3686523438</ele>
        <time>2016-05-28T09:26:42Z</time>
      </trkpt>
      <trkpt lat="45.67981" lon="6.88346">
        <ele>2181.3686523438</ele>
        <time>2016-05-28T09:26:46Z</time>
      </trkpt>
      <trkpt lat="45.67986" lon="6.88375">
        <ele>2181.8493652344</ele>
        <time>2016-05-28T09:26:52Z</time>
      </trkpt>
      <trkpt lat="45.6799" lon="6.88408">
        <ele>2182.330078125</ele>
        <time>2016-05-28T09:26:59Z</time>
      </trkpt>
      <trkpt lat="45.67996" lon="6.88428">
        <ele>2182.810546875</ele>
        <time>2016-05-28T09:27:04Z</time>
      </trkpt>
      <trkpt lat="45.67997" lon="6.88431">
        <ele>2182.810546875</ele>
        <time>2016-05-28T09:27:05Z</time>
      </trkpt>
      <trkpt lat="45.68002" lon="6.88444">
        <ele>2183.2912597656</ele>
        <time>2016-05-28T09:27:11Z</time>
      </trkpt>
      <trkpt lat="45.68005" lon="6.88447">
        <ele>2182.330078125</ele>
        <time>2016-05-28T09:27:15Z</time>
      </trkpt>
      <trkpt lat="45.68008" lon="6.88445">
        <ele>2182.330078125</ele>
        <time>2016-05-28T09:27:21Z</time>
      </trkpt>
      <trkpt lat="45.68007" lon="6.88444">
        <ele>2182.810546875</ele>
        <time>2016-05-28T09:27:29Z</time>
      </trkpt>
      <trkpt lat="45.67999" lon="6.88439">
        <ele>2182.330078125</ele>
        <time>2016-05-28T09:27:35Z</time>
      </trkpt>
      <trkpt lat="45.67998" lon="6.88438">
        <ele>2181.8493652344</ele>
        <time>2016-05-28T09:27:40Z</time>
      </trkpt>
      <trkpt lat="45.67995" lon="6.88437">
        <ele>2181.8493652344</ele>
        <time>2016-05-28T09:27:46Z</time>
      </trkpt>
      <trkpt lat="45.67996" lon="6.88438">
        <ele>2181.8493652344</ele>
        <time>2016-05-28T09:27:58Z</time>
      </trkpt>
      <trkpt lat="45.67997" lon="6.8844">
        <ele>2181.8493652344</ele>
        <time>2016-05-28T09:28:00Z</time>
      </trkpt>
      <trkpt lat="45.68" lon="6.88448">
        <ele>2182.330078125</ele>
        <time>2016-05-28T09:28:09Z</time>
      </trkpt>
      <trkpt lat="45.67997" lon="6.88444">
        <ele>2182.810546875</ele>
        <time>2016-05-28T09:29:05Z</time>
      </trkpt>
      <trkpt lat="45.67997" lon="6.8844">
        <ele>2183.7719726562</ele>
        <time>2016-05-28T09:29:33Z</time>
      </trkpt>
      <trkpt lat="45.67998" lon="6.88442">
        <ele>2183.2912597656</ele>
        <time>2016-05-28T09:30:04Z</time>
      </trkpt>
      <trkpt lat="45.68" lon="6.8844">
        <ele>2183.7719726562</ele>
        <time>2016-05-28T09:30:13Z</time>
      </trkpt>
      <trkpt lat="45.68001" lon="6.88442">
        <ele>2183.7719726562</ele>
        <time>2016-05-28T09:30:21Z</time>
      </trkpt>
      <trkpt lat="45.68001" lon="6.88444">
        <ele>2184.2526855469</ele>
        <time>2016-05-28T09:30:33Z</time>
      </trkpt>
      <trkpt lat="45.68001" lon="6.88445">
        <ele>2183.7719726562</ele>
        <time>2016-05-28T09:30:46Z</time>
      </trkpt>
      <trkpt lat="45.68002" lon="6.88441">
        <ele>2186.6557617188</ele>
        <time>2016-05-28T09:31:39Z</time>
      </trkpt>
      <trkpt lat="45.68002" lon="6.88443">
        <ele>2186.6557617188</ele>
        <time>2016-05-28T09:31:56Z</time>
      </trkpt>
      <trkpt lat="45.68005" lon="6.88445">
        <ele>2186.6557617188</ele>
        <time>2016-05-28T09:32:10Z</time>
      </trkpt>
      <trkpt lat="45.68005" lon="6.88444">
        <ele>2186.6557617188</ele>
        <time>2016-05-28T09:32:12Z</time>
      </trkpt>
      <trkpt lat="45.68004" lon="6.88436">
        <ele>2186.6557617188</ele>
        <time>2016-05-28T09:32:16Z</time>
      </trkpt>
      <trkpt lat="45.67998" lon="6.8842">
        <ele>2186.6557617188</ele>
        <time>2016-05-28T09:32:20Z</time>
      </trkpt>
      <trkpt lat="45.67992" lon="6.88384">
        <ele>2185.2138671875</ele>
        <time>2016-05-28T09:32:25Z</time>
      </trkpt>
      <trkpt lat="45.67979" lon="6.88346">
        <ele>2183.7719726562</ele>
        <time>2016-05-28T09:32:30Z</time>
      </trkpt>
      <trkpt lat="45.67952" lon="6.88311">
        <ele>2184.2526855469</ele>
        <time>2016-05-28T09:32:37Z</time>
      </trkpt>
      <trkpt lat="45.67926" lon="6.88292">
        <ele>2183.2912597656</ele>
        <time>2016-05-28T09:32:44Z</time>
      </trkpt>
      <trkpt lat="45.67913" lon="6.88283">
        <ele>2183.2912597656</ele>
        <time>2016-05-28T09:32:49Z</time>
      </trkpt>
      <trkpt lat="45.67903" lon="6.88273">
        <ele>2183.7719726562</ele>
        <time>2016-05-28T09:32:54Z</time>
      </trkpt>
      <trkpt lat="45.67892" lon="6.88263">
        <ele>2182.330078125</ele>
        <time>2016-05-28T09:33:00Z</time>
      </trkpt>
      <trkpt lat="45.67887" lon="6.88261">
        <ele>2180.4074707031</ele>
        <time>2016-05-28T09:33:03Z</time>
      </trkpt>
      <trkpt lat="45.67886" lon="6.88267">
        <ele>2182.330078125</ele>
        <time>2016-05-28T09:33:07Z</time>
      </trkpt>
      <trkpt lat="45.67897" lon="6.88273">
        <ele>2183.2912597656</ele>
        <time>2016-05-28T09:33:11Z</time>
      </trkpt>
      <trkpt lat="45.67903" lon="6.8828">
        <ele>2181.3686523438</ele>
        <time>2016-05-28T09:33:15Z</time>
      </trkpt>
      <trkpt lat="45.67904" lon="6.88281">
        <ele>2182.810546875</ele>
        <time>2016-05-28T09:33:18Z</time>
      </trkpt>
      <trkpt lat="45.67904" lon="6.88283">
        <ele>2182.810546875</ele>
        <time>2016-05-28T09:33:21Z</time>
      </trkpt>
      <trkpt lat="45.67906" lon="6.88283">
        <ele>2181.8493652344</ele>
        <time>2016-05-28T09:33:43Z</time>
      </trkpt>
      <trkpt lat="45.67906" lon="6.88284">
        <ele>2182.810546875</ele>
        <time>2016-05-28T09:33:47Z</time>
      </trkpt>
      <trkpt lat="45.67907" lon="6.88282">
        <ele>2183.2912597656</ele>
        <time>2016-05-28T09:33:59Z</time>
      </trkpt>
      <trkpt lat="45.67907" lon="6.88282">
        <ele>2183.7719726562</ele>
        <time>2016-05-28T09:34:12Z</time>
      </trkpt>
      <trkpt lat="45.679" lon="6.88274">
        <ele>2183.2912597656</ele>
        <time>2016-05-28T09:34:17Z</time>
      </trkpt>
      <trkpt lat="45.67882" lon="6.88259">
        <ele>2182.330078125</ele>
        <time>2016-05-28T09:34:23Z</time>
      </trkpt>
      <trkpt lat="45.67867" lon="6.88252">
        <ele>2181.3686523438</ele>
        <time>2016-05-28T09:34:28Z</time>
      </trkpt>
      <trkpt lat="45.67856" lon="6.88247">
        <ele>2180.4074707031</ele>
        <time>2016-05-28T09:34:34Z</time>
      </trkpt>
      <trkpt lat="45.67842" lon="6.88241">
        <ele>2178.9653320312</ele>
        <time>2016-05-28T09:34:41Z</time>
      </trkpt>
      <trkpt lat="45.67827" lon="6.88235">
        <ele>2178.4848632812</ele>
        <time>2016-05-28T09:34:49Z</time>
      </trkpt>
      <trkpt lat="45.67811" lon="6.88227">
        <ele>2178.0041503906</ele>
        <time>2016-05-28T09:34:54Z</time>
      </trkpt>
      <trkpt lat="45.67789" lon="6.88214">
        <ele>2176.5622558594</ele>
        <time>2016-05-28T09:35:00Z</time>
      </trkpt>
      <trkpt lat="45.67768" lon="6.88204">
        <ele>2175.6008300781</ele>
        <time>2016-05-28T09:35:06Z</time>
      </trkpt>
      <trkpt lat="45.67757" lon="6.88199">
        <ele>2176.0815429688</ele>
        <time>2016-05-28T09:35:09Z</time>
      </trkpt>
      <trkpt lat="45.67724" lon="6.88182">
        <ele>2172.7170410156</ele>
        <time>2016-05-28T09:35:17Z</time>
      </trkpt>
      <trkpt lat="45.67696" lon="6.88168">
        <ele>2171.2746582031</ele>
        <time>2016-05-28T09:35:22Z</time>
      </trkpt>
      <trkpt lat="45.67667" lon="6.8815">
        <ele>2168.8715820312</ele>
        <time>2016-05-28T09:35:27Z</time>
      </trkpt>
      <trkpt lat="45.67651" lon="6.88135">
        <ele>2168.3908691406</ele>
        <time>2016-05-28T09:35:32Z</time>
      </trkpt>
      <trkpt lat="45.67628" lon="6.8811">
        <ele>2166.9489746094</ele>
        <time>2016-05-28T09:35:38Z</time>
      </trkpt>
      <trkpt lat="45.67597" lon="6.88075">
        <ele>2167.4294433594</ele>
        <time>2016-05-28T09:35:45Z</time>
      </trkpt>
      <trkpt lat="45.67556" lon="6.88028">
        <ele>2166.4682617188</ele>
        <time>2016-05-28T09:35:54Z</time>
      </trkpt>
      <trkpt lat="45.67517" lon="6.87985">
        <ele>2166.4682617188</ele>
        <time>2016-05-28T09:36:02Z</time>
      </trkpt>
      <trkpt lat="45.67507" lon="6.87974">
        <ele>2165.5070800781</ele>
        <time>2016-05-28T09:36:04Z</time>
      </trkpt>
      <trkpt lat="45.67462" lon="6.87923">
        <ele>2165.5070800781</ele>
        <time>2016-05-28T09:36:13Z</time>
      </trkpt>
      <trkpt lat="45.67415" lon="6.87871">
        <ele>2164.0649414062</ele>
        <time>2016-05-28T09:36:22Z</time>
      </trkpt>
      <trkpt lat="45.67372" lon="6.87824">
        <ele>2163.5842285156</ele>
        <time>2016-05-28T09:36:30Z</time>
      </trkpt>
      <trkpt lat="45.67359" lon="6.8781">
        <ele>2163.5842285156</ele>
        <time>2016-05-28T09:36:33Z</time>
      </trkpt>
      <trkpt lat="45.67348" lon="6.87802">
        <ele>2162.1423339844</ele>
        <time>2016-05-28T09:36:36Z</time>
      </trkpt>
      <trkpt lat="45.67344" lon="6.87799">
        <ele>2162.1423339844</ele>
        <time>2016-05-28T09:36:39Z</time>
      </trkpt>
      <trkpt lat="45.67343" lon="6.87799">
        <ele>2162.1423339844</ele>
        <time>2016-05-28T09:36:41Z</time>
      </trkpt>
      <trkpt lat="45.67344" lon="6.87799">
        <ele>2162.623046875</ele>
        <time>2016-05-28T09:36:46Z</time>
      </trkpt>
      <trkpt lat="45.67343" lon="6.87798">
        <ele>2161.1811523438</ele>
        <time>2016-05-28T09:36:54Z</time>
      </trkpt>
      <trkpt lat="45.67343" lon="6.87794">
        <ele>2161.1811523438</ele>
        <time>2016-05-28T09:37:04Z</time>
      </trkpt>
      <trkpt lat="45.67343" lon="6.87788">
        <ele>2160.7004394531</ele>
        <time>2016-05-28T09:37:14Z</time>
      </trkpt>
      <trkpt lat="45.67342" lon="6.87788">
        <ele>2161.6618652344</ele>
        <time>2016-05-28T09:37:19Z</time>
      </trkpt>
      <trkpt lat="45.67341" lon="6.87785">
        <ele>2162.1423339844</ele>
        <time>2016-05-28T09:37:31Z</time>
      </trkpt>
      <trkpt lat="45.6734" lon="6.87793">
        <ele>2161.1811523438</ele>
        <time>2016-05-28T09:37:49Z</time>
      </trkpt>
      <trkpt lat="45.67339" lon="6.87796">
        <ele>2161.6618652344</ele>
        <time>2016-05-28T09:38:17Z</time>
      </trkpt>
      <trkpt lat="45.67339" lon="6.87799">
        <ele>2162.1423339844</ele>
        <time>2016-05-28T09:38:31Z</time>
      </trkpt>
      <trkpt lat="45.67339" lon="6.87802">
        <ele>2162.1423339844</ele>
        <time>2016-05-28T09:38:47Z</time>
      </trkpt>
      <trkpt lat="45.67339" lon="6.87803">
        <ele>2161.6618652344</ele>
        <time>2016-05-28T09:38:56Z</time>
      </trkpt>
      <trkpt lat="45.67341" lon="6.87802">
        <ele>2162.1423339844</ele>
        <time>2016-05-28T09:39:08Z</time>
      </trkpt>
      <trkpt lat="45.67341" lon="6.87801">
        <ele>2162.1423339844</ele>
        <time>2016-05-28T09:39:13Z</time>
      </trkpt>
      <trkpt lat="45.67336" lon="6.87788">
        <ele>2161.1811523438</ele>
        <time>2016-05-28T09:39:18Z</time>
      </trkpt>
      <trkpt lat="45.67333" lon="6.87785">
        <ele>2161.1811523438</ele>
        <time>2016-05-28T09:39:19Z</time>
      </trkpt>
      <trkpt lat="45.6731" lon="6.87758">
        <ele>2161.1811523438</ele>
        <time>2016-05-28T09:39:26Z</time>
      </trkpt>
      <trkpt lat="45.67282" lon="6.87728">
        <ele>2159.7390136719</ele>
        <time>2016-05-28T09:39:32Z</time>
      </trkpt>
      <trkpt lat="45.67248" lon="6.8769">
        <ele>2157.8166503906</ele>
        <time>2016-05-28T09:39:38Z</time>
      </trkpt>
      <trkpt lat="45.67202" lon="6.87637">
        <ele>2156.8552246094</ele>
        <time>2016-05-28T09:39:45Z</time>
      </trkpt>
      <trkpt lat="45.67159" lon="6.87589">
        <ele>2155.4130859375</ele>
        <time>2016-05-28T09:39:51Z</time>
      </trkpt>
      <trkpt lat="45.67131" lon="6.87559">
        <ele>2152.5290527344</ele>
        <time>2016-05-28T09:39:55Z</time>
      </trkpt>
      <trkpt lat="45.67118" lon="6.87543">
        <ele>2150.6064453125</ele>
        <time>2016-05-28T09:39:58Z</time>
      </trkpt>
      <trkpt lat="45.6711" lon="6.87532">
        <ele>2149.6452636719</ele>
        <time>2016-05-28T09:40:02Z</time>
      </trkpt>
      <trkpt lat="45.67109" lon="6.8753">
        <ele>2149.6452636719</ele>
        <time>2016-05-28T09:40:06Z</time>
      </trkpt>
      <trkpt lat="45.6711" lon="6.87529">
        <ele>2150.6064453125</ele>
        <time>2016-05-28T09:40:11Z</time>
      </trkpt>
      <trkpt lat="45.67108" lon="6.8753">
        <ele>2149.6452636719</ele>
        <time>2016-05-28T09:40:30Z</time>
      </trkpt>
      <trkpt lat="45.67107" lon="6.8753">
        <ele>2149.1645507812</ele>
        <time>2016-05-28T09:41:06Z</time>
      </trkpt>
      <trkpt lat="45.67107" lon="6.8753">
        <ele>2152.5290527344</ele>
        <time>2016-05-28T09:41:30Z</time>
      </trkpt>
      <trkpt lat="45.67108" lon="6.8753">
        <ele>2152.5290527344</ele>
        <time>2016-05-28T09:41:47Z</time>
      </trkpt>
      <trkpt lat="45.67108" lon="6.8753">
        <ele>2153.4904785156</ele>
        <time>2016-05-28T09:42:42Z</time>
      </trkpt>
      <trkpt lat="45.67109" lon="6.87531">
        <ele>2153.9711914062</ele>
        <time>2016-05-28T09:42:51Z</time>
      </trkpt>
      <trkpt lat="45.67105" lon="6.87526">
        <ele>2153.4904785156</ele>
        <time>2016-05-28T09:42:59Z</time>
      </trkpt>
      <trkpt lat="45.67087" lon="6.87507">
        <ele>2151.5678710938</ele>
        <time>2016-05-28T09:43:04Z</time>
      </trkpt>
      <trkpt lat="45.67062" lon="6.87476">
        <ele>2150.6064453125</ele>
        <time>2016-05-28T09:43:09Z</time>
      </trkpt>
      <trkpt lat="45.67034" lon="6.87446">
        <ele>2148.6838378906</ele>
        <time>2016-05-28T09:43:13Z</time>
      </trkpt>
      <trkpt lat="45.67" lon="6.87407">
        <ele>2145.3193359375</ele>
        <time>2016-05-28T09:43:18Z</time>
      </trkpt>
      <trkpt lat="45.66976" lon="6.87381">
        <ele>2142.435546875</ele>
        <time>2016-05-28T09:43:22Z</time>
      </trkpt>
      <trkpt lat="45.66947" lon="6.87348">
        <ele>2140.0322265625</ele>
        <time>2016-05-28T09:43:28Z</time>
      </trkpt>
      <trkpt lat="45.66941" lon="6.8732">
        <ele>2139.5512695312</ele>
        <time>2016-05-28T09:43:32Z</time>
      </trkpt>
      <trkpt lat="45.66949" lon="6.87312">
        <ele>2140.5126953125</ele>
        <time>2016-05-28T09:43:34Z</time>
      </trkpt>
      <trkpt lat="45.66965" lon="6.87316">
        <ele>2139.5512695312</ele>
        <time>2016-05-28T09:43:37Z</time>
      </trkpt>
      <trkpt lat="45.67" lon="6.87343">
        <ele>2138.109375</ele>
        <time>2016-05-28T09:43:44Z</time>
      </trkpt>
      <trkpt lat="45.67009" lon="6.87353">
        <ele>2138.5900878906</ele>
        <time>2016-05-28T09:43:46Z</time>
      </trkpt>
      <trkpt lat="45.67019" lon="6.87361">
        <ele>2137.6286621094</ele>
        <time>2016-05-28T09:43:48Z</time>
      </trkpt>
      <trkpt lat="45.67036" lon="6.87372">
        <ele>2136.6672363281</ele>
        <time>2016-05-28T09:43:51Z</time>
      </trkpt>
      <trkpt lat="45.67048" lon="6.87375">
        <ele>2135.2253417969</ele>
        <time>2016-05-28T09:43:53Z</time>
      </trkpt>
      <trkpt lat="45.67062" lon="6.87365">
        <ele>2131.8608398438</ele>
        <time>2016-05-28T09:43:56Z</time>
      </trkpt>
      <trkpt lat="45.67064" lon="6.8735">
        <ele>2131.3801269531</ele>
        <time>2016-05-28T09:43:58Z</time>
      </trkpt>
      <trkpt lat="45.67051" lon="6.87328">
        <ele>2129.9382324219</ele>
        <time>2016-05-28T09:44:01Z</time>
      </trkpt>
      <trkpt lat="45.67045" lon="6.87323">
        <ele>2129.9382324219</ele>
        <time>2016-05-28T09:44:02Z</time>
      </trkpt>
      <trkpt lat="45.67001" lon="6.87288">
        <ele>2127.5349121094</ele>
        <time>2016-05-28T09:44:08Z</time>
      </trkpt>
      <trkpt lat="45.66969" lon="6.87273">
        <ele>2127.5349121094</ele>
        <time>2016-05-28T09:44:12Z</time>
      </trkpt>
      <trkpt lat="45.66941" lon="6.87252">
        <ele>2125.6123046875</ele>
        <time>2016-05-28T09:44:16Z</time>
      </trkpt>
      <trkpt lat="45.66921" lon="6.87247">
        <ele>2123.208984375</ele>
        <time>2016-05-28T09:44:19Z</time>
      </trkpt>
      <trkpt lat="45.66915" lon="6.8725">
        <ele>2122.2475585938</ele>
        <time>2016-05-28T09:44:20Z</time>
      </trkpt>
      <trkpt lat="45.66897" lon="6.87262">
        <ele>2121.7668457031</ele>
        <time>2016-05-28T09:44:23Z</time>
      </trkpt>
      <trkpt lat="45.66872" lon="6.8727">
        <ele>2118.40234375</ele>
        <time>2016-05-28T09:44:27Z</time>
      </trkpt>
      <trkpt lat="45.66859" lon="6.87261">
        <ele>2117.4409179688</ele>
        <time>2016-05-28T09:44:29Z</time>
      </trkpt>
      <trkpt lat="45.66855" lon="6.87254">
        <ele>2116.4797363281</ele>
        <time>2016-05-28T09:44:30Z</time>
      </trkpt>
      <trkpt lat="45.66825" lon="6.87226">
        <ele>2115.5185546875</ele>
        <time>2016-05-28T09:44:36Z</time>
      </trkpt>
      <trkpt lat="45.66806" lon="6.87227">
        <ele>2113.595703125</ele>
        <time>2016-05-28T09:44:39Z</time>
      </trkpt>
      <trkpt lat="45.668" lon="6.87229">
        <ele>2113.595703125</ele>
        <time>2016-05-28T09:44:40Z</time>
      </trkpt>
      <trkpt lat="45.66786" lon="6.87233">
        <ele>2113.115234375</ele>
        <time>2016-05-28T09:44:42Z</time>
      </trkpt>
      <trkpt lat="45.66747" lon="6.87229">
        <ele>2108.30859375</ele>
        <time>2016-05-28T09:44:47Z</time>
      </trkpt>
      <trkpt lat="45.66716" lon="6.87211">
        <ele>2106.8664550781</ele>
        <time>2016-05-28T09:44:51Z</time>
      </trkpt>
      <trkpt lat="45.6668" lon="6.87198">
        <ele>2104.9438476562</ele>
        <time>2016-05-28T09:44:56Z</time>
      </trkpt>
      <trkpt lat="45.66639" lon="6.87188">
        <ele>2103.0212402344</ele>
        <time>2016-05-28T09:45:02Z</time>
      </trkpt>
      <trkpt lat="45.6661" lon="6.8717">
        <ele>2099.1760253906</ele>
        <time>2016-05-28T09:45:06Z</time>
      </trkpt>
      <trkpt lat="45.66602" lon="6.87164">
        <ele>2099.1760253906</ele>
        <time>2016-05-28T09:45:07Z</time>
      </trkpt>
      <trkpt lat="45.66565" lon="6.87144">
        <ele>2097.7341308594</ele>
        <time>2016-05-28T09:45:12Z</time>
      </trkpt>
      <trkpt lat="45.66542" lon="6.87139">
        <ele>2096.2922363281</ele>
        <time>2016-05-28T09:45:15Z</time>
      </trkpt>
      <trkpt lat="45.66512" lon="6.87134">
        <ele>2093.8889160156</ele>
        <time>2016-05-28T09:45:19Z</time>
      </trkpt>
      <trkpt lat="45.66481" lon="6.87115">
        <ele>2091.0046386719</ele>
        <time>2016-05-28T09:45:23Z</time>
      </trkpt>
      <trkpt lat="45.66436" lon="6.87076">
        <ele>2087.1594238281</ele>
        <time>2016-05-28T09:45:29Z</time>
      </trkpt>
      <trkpt lat="45.66427" lon="6.87071">
        <ele>2086.6787109375</ele>
        <time>2016-05-28T09:45:30Z</time>
      </trkpt>
      <trkpt lat="45.66403" lon="6.87057">
        <ele>2083.794921875</ele>
        <time>2016-05-28T09:45:33Z</time>
      </trkpt>
      <trkpt lat="45.66368" lon="6.87049">
        <ele>2081.8723144531</ele>
        <time>2016-05-28T09:45:37Z</time>
      </trkpt>
      <trkpt lat="45.66358" lon="6.87047">
        <ele>2081.3916015625</ele>
        <time>2016-05-28T09:45:38Z</time>
      </trkpt>
      <trkpt lat="45.6634" lon="6.87042">
        <ele>2079.4689941406</ele>
        <time>2016-05-28T09:45:40Z</time>
      </trkpt>
      <trkpt lat="45.66309" lon="6.87043">
        <ele>2078.98828125</ele>
        <time>2016-05-28T09:45:44Z</time>
      </trkpt>
      <trkpt lat="45.6627" lon="6.87061">
        <ele>2078.5078125</ele>
        <time>2016-05-28T09:45:51Z</time>
      </trkpt>
      <trkpt lat="45.66244" lon="6.87075">
        <ele>2075.6235351562</ele>
        <time>2016-05-28T09:45:57Z</time>
      </trkpt>
      <trkpt lat="45.6624" lon="6.87076">
        <ele>2075.6235351562</ele>
        <time>2016-05-28T09:45:58Z</time>
      </trkpt>
      <trkpt lat="45.66235" lon="6.87073">
        <ele>2075.1428222656</ele>
        <time>2016-05-28T09:46:02Z</time>
      </trkpt>
      <trkpt lat="45.66236" lon="6.87073">
        <ele>2073.7009277344</ele>
        <time>2016-05-28T09:46:24Z</time>
      </trkpt>
      <trkpt lat="45.66232" lon="6.87069">
        <ele>2074.6623535156</ele>
        <time>2016-05-28T09:46:30Z</time>
      </trkpt>
      <trkpt lat="45.6623" lon="6.87064">
        <ele>2074.6623535156</ele>
        <time>2016-05-28T09:46:32Z</time>
      </trkpt>
      <trkpt lat="45.66232" lon="6.87041">
        <ele>2074.181640625</ele>
        <time>2016-05-28T09:46:38Z</time>
      </trkpt>
      <trkpt lat="45.66238" lon="6.87021">
        <ele>2074.181640625</ele>
        <time>2016-05-28T09:46:43Z</time>
      </trkpt>
      <trkpt lat="45.66243" lon="6.86992">
        <ele>2072.7397460938</ele>
        <time>2016-05-28T09:46:49Z</time>
      </trkpt>
      <trkpt lat="45.66241" lon="6.86955">
        <ele>2071.2976074219</ele>
        <time>2016-05-28T09:46:56Z</time>
      </trkpt>
      <trkpt lat="45.66231" lon="6.86928">
        <ele>2070.3364257812</ele>
        <time>2016-05-28T09:47:02Z</time>
      </trkpt>
      <trkpt lat="45.66205" lon="6.86905">
        <ele>2068.4138183594</ele>
        <time>2016-05-28T09:47:09Z</time>
      </trkpt>
      <trkpt lat="45.66194" lon="6.86898">
        <ele>2067.9331054688</ele>
        <time>2016-05-28T09:47:12Z</time>
      </trkpt>
      <trkpt lat="45.6618" lon="6.86881">
        <ele>2068.4138183594</ele>
        <time>2016-05-28T09:47:16Z</time>
      </trkpt>
      <trkpt lat="45.66172" lon="6.86859">
        <ele>2067.4523925781</ele>
        <time>2016-05-28T09:47:20Z</time>
      </trkpt>
      <trkpt lat="45.66161" lon="6.8683">
        <ele>2065.5300292969</ele>
        <time>2016-05-28T09:47:25Z</time>
      </trkpt>
      <trkpt lat="45.66146" lon="6.86805">
        <ele>2063.6071777344</ele>
        <time>2016-05-28T09:47:29Z</time>
      </trkpt>
      <trkpt lat="45.66119" lon="6.86768">
        <ele>2062.1652832031</ele>
        <time>2016-05-28T09:47:34Z</time>
      </trkpt>
      <trkpt lat="45.66085" lon="6.86728">
        <ele>2059.76171875</ele>
        <time>2016-05-28T09:47:39Z</time>
      </trkpt>
      <trkpt lat="45.66058" lon="6.86699">
        <ele>2057.3586425781</ele>
        <time>2016-05-28T09:47:44Z</time>
      </trkpt>
      <trkpt lat="45.66053" lon="6.86692">
        <ele>2057.3586425781</ele>
        <time>2016-05-28T09:47:45Z</time>
      </trkpt>
      <trkpt lat="45.66029" lon="6.86652">
        <ele>2054.9553222656</ele>
        <time>2016-05-28T09:47:50Z</time>
      </trkpt>
      <trkpt lat="45.66007" lon="6.8662">
        <ele>2052.5520019531</ele>
        <time>2016-05-28T09:47:55Z</time>
      </trkpt>
      <trkpt lat="45.6598" lon="6.86594">
        <ele>2051.1101074219</ele>
        <time>2016-05-28T09:48:01Z</time>
      </trkpt>
      <trkpt lat="45.65971" lon="6.86581">
        <ele>2050.1489257812</ele>
        <time>2016-05-28T09:48:03Z</time>
      </trkpt>
      <trkpt lat="45.65954" lon="6.86546">
        <ele>2047.7456054688</ele>
        <time>2016-05-28T09:48:08Z</time>
      </trkpt>
      <trkpt lat="45.65934" lon="6.86498">
        <ele>2044.380859375</ele>
        <time>2016-05-28T09:48:14Z</time>
      </trkpt>
      <trkpt lat="45.65911" lon="6.86445">
        <ele>2043.9001464844</ele>
        <time>2016-05-28T09:48:21Z</time>
      </trkpt>
      <trkpt lat="45.6589" lon="6.86422">
        <ele>2042.9387207031</ele>
        <time>2016-05-28T09:48:26Z</time>
      </trkpt>
      <trkpt lat="45.65864" lon="6.86408">
        <ele>2041.4968261719</ele>
        <time>2016-05-28T09:48:32Z</time>
      </trkpt>
      <trkpt lat="45.65836" lon="6.86395">
        <ele>2041.0161132812</ele>
        <time>2016-05-28T09:48:38Z</time>
      </trkpt>
      <trkpt lat="45.65827" lon="6.86388">
        <ele>2040.5354003906</ele>
        <time>2016-05-28T09:48:40Z</time>
      </trkpt>
      <trkpt lat="45.65814" lon="6.86374">
        <ele>2038.6130371094</ele>
        <time>2016-05-28T09:48:43Z</time>
      </trkpt>
      <trkpt lat="45.65801" lon="6.8636">
        <ele>2038.6130371094</ele>
        <time>2016-05-28T09:48:46Z</time>
      </trkpt>
      <trkpt lat="45.65761" lon="6.86336">
        <ele>2038.6130371094</ele>
        <time>2016-05-28T09:48:53Z</time>
      </trkpt>
      <trkpt lat="45.65755" lon="6.86333">
        <ele>2038.6130371094</ele>
        <time>2016-05-28T09:48:54Z</time>
      </trkpt>
      <trkpt lat="45.65736" lon="6.8632">
        <ele>2037.6516113281</ele>
        <time>2016-05-28T09:48:57Z</time>
      </trkpt>
      <trkpt lat="45.65706" lon="6.86288">
        <ele>2035.2482910156</ele>
        <time>2016-05-28T09:49:02Z</time>
      </trkpt>
      <trkpt lat="45.65688" lon="6.86266">
        <ele>2034.7678222656</ele>
        <time>2016-05-28T09:49:05Z</time>
      </trkpt>
      <trkpt lat="45.65671" lon="6.86225">
        <ele>2032.8449707031</ele>
        <time>2016-05-28T09:49:09Z</time>
      </trkpt>
      <trkpt lat="45.6566" lon="6.86191">
        <ele>2031.4030761719</ele>
        <time>2016-05-28T09:49:12Z</time>
      </trkpt>
      <trkpt lat="45.65654" lon="6.8618">
        <ele>2031.4030761719</ele>
        <time>2016-05-28T09:49:13Z</time>
      </trkpt>
      <trkpt lat="45.65632" lon="6.8615">
        <ele>2030.9226074219</ele>
        <time>2016-05-28T09:49:16Z</time>
      </trkpt>
      <trkpt lat="45.656" lon="6.86127">
        <ele>2028.9997558594</ele>
        <time>2016-05-28T09:49:20Z</time>
      </trkpt>
      <trkpt lat="45.65592" lon="6.86125">
        <ele>2029.9611816406</ele>
        <time>2016-05-28T09:49:21Z</time>
      </trkpt>
      <trkpt lat="45.65576" lon="6.86121">
        <ele>2028.5192871094</ele>
        <time>2016-05-28T09:49:23Z</time>
      </trkpt>
      <trkpt lat="45.6556" lon="6.86114">
        <ele>2027.5576171875</ele>
        <time>2016-05-28T09:49:25Z</time>
      </trkpt>
      <trkpt lat="45.65535" lon="6.86091">
        <ele>2025.154296875</ele>
        <time>2016-05-28T09:49:29Z</time>
      </trkpt>
      <trkpt lat="45.65515" lon="6.8605">
        <ele>2022.7512207031</ele>
        <time>2016-05-28T09:49:35Z</time>
      </trkpt>
      <trkpt lat="45.65497" lon="6.86007">
        <ele>2021.7897949219</ele>
        <time>2016-05-28T09:49:41Z</time>
      </trkpt>
      <trkpt lat="45.65486" lon="6.85987">
        <ele>2020.8286132812</ele>
        <time>2016-05-28T09:49:44Z</time>
      </trkpt>
      <trkpt lat="45.65459" lon="6.85965">
        <ele>2020.3479003906</ele>
        <time>2016-05-28T09:49:49Z</time>
      </trkpt>
      <trkpt lat="45.65452" lon="6.85963">
        <ele>2019.8671875</ele>
        <time>2016-05-28T09:49:50Z</time>
      </trkpt>
      <trkpt lat="45.65434" lon="6.85958">
        <ele>2018.9060058594</ele>
        <time>2016-05-28T09:49:53Z</time>
      </trkpt>
      <trkpt lat="45.65423" lon="6.85954">
        <ele>2018.4252929688</ele>
        <time>2016-05-28T09:49:55Z</time>
      </trkpt>
      <trkpt lat="45.65399" lon="6.85932">
        <ele>2016.5026855469</ele>
        <time>2016-05-28T09:50:00Z</time>
      </trkpt>
      <trkpt lat="45.6537" lon="6.8589">
        <ele>2011.6960449219</ele>
        <time>2016-05-28T09:50:06Z</time>
      </trkpt>
      <trkpt lat="45.65333" lon="6.85842">
        <ele>2010.25390625</ele>
        <time>2016-05-28T09:50:13Z</time>
      </trkpt>
      <trkpt lat="45.65326" lon="6.85835">
        <ele>2010.25390625</ele>
        <time>2016-05-28T09:50:14Z</time>
      </trkpt>
      <trkpt lat="45.65287" lon="6.85809">
        <ele>2009.7731933594</ele>
        <time>2016-05-28T09:50:19Z</time>
      </trkpt>
      <trkpt lat="45.65245" lon="6.85791">
        <ele>2006.8894042969</ele>
        <time>2016-05-28T09:50:24Z</time>
      </trkpt>
      <trkpt lat="45.65209" lon="6.85757">
        <ele>2004.966796875</ele>
        <time>2016-05-28T09:50:29Z</time>
      </trkpt>
      <trkpt lat="45.65173" lon="6.85717">
        <ele>2001.6022949219</ele>
        <time>2016-05-28T09:50:34Z</time>
      </trkpt>
      <trkpt lat="45.65164" lon="6.8571">
        <ele>2001.1215820312</ele>
        <time>2016-05-28T09:50:35Z</time>
      </trkpt>
      <trkpt lat="45.65113" lon="6.85676">
        <ele>2001.6022949219</ele>
        <time>2016-05-28T09:50:41Z</time>
      </trkpt>
      <trkpt lat="45.65087" lon="6.85658">
        <ele>1999.6796875</ele>
        <time>2016-05-28T09:50:44Z</time>
      </trkpt>
      <trkpt lat="45.65058" lon="6.85641">
        <ele>2000.1604003906</ele>
        <time>2016-05-28T09:50:48Z</time>
      </trkpt>
      <trkpt lat="45.65052" lon="6.85636">
        <ele>1999.1989746094</ele>
        <time>2016-05-28T09:50:49Z</time>
      </trkpt>
      <trkpt lat="45.65033" lon="6.85603">
        <ele>1998.7182617188</ele>
        <time>2016-05-28T09:50:53Z</time>
      </trkpt>
      <trkpt lat="45.65" lon="6.85536">
        <ele>1996.7956542969</ele>
        <time>2016-05-28T09:51:00Z</time>
      </trkpt>
      <trkpt lat="45.64981" lon="6.85504">
        <ele>1996.3151855469</ele>
        <time>2016-05-28T09:51:03Z</time>
      </trkpt>
      <trkpt lat="45.64964" lon="6.85448">
        <ele>1994.8728027344</ele>
        <time>2016-05-28T09:51:07Z</time>
      </trkpt>
      <trkpt lat="45.64953" lon="6.85402">
        <ele>1992.9501953125</ele>
        <time>2016-05-28T09:51:10Z</time>
      </trkpt>
      <trkpt lat="45.64947" lon="6.85387">
        <ele>1991.9890136719</ele>
        <time>2016-05-28T09:51:11Z</time>
      </trkpt>
      <trkpt lat="45.6491" lon="6.85306">
        <ele>1987.6630859375</ele>
        <time>2016-05-28T09:51:17Z</time>
      </trkpt>
      <trkpt lat="45.64894" lon="6.85284">
        <ele>1985.259765625</ele>
        <time>2016-05-28T09:51:19Z</time>
      </trkpt>
      <trkpt lat="45.64874" lon="6.85271">
        <ele>1984.779296875</ele>
        <time>2016-05-28T09:51:21Z</time>
      </trkpt>
      <trkpt lat="45.64824" lon="6.85246">
        <ele>1983.8178710938</ele>
        <time>2016-05-28T09:51:26Z</time>
      </trkpt>
      <trkpt lat="45.64767" lon="6.85212">
        <ele>1981.8952636719</ele>
        <time>2016-05-28T09:51:32Z</time>
      </trkpt>
      <trkpt lat="45.64727" lon="6.85205">
        <ele>1979.9724121094</ele>
        <time>2016-05-28T09:51:37Z</time>
      </trkpt>
      <trkpt lat="45.64702" lon="6.85189">
        <ele>1977.0886230469</ele>
        <time>2016-05-28T09:51:41Z</time>
      </trkpt>
      <trkpt lat="45.64697" lon="6.85181">
        <ele>1977.5690917969</ele>
        <time>2016-05-28T09:51:42Z</time>
      </trkpt>
      <trkpt lat="45.6466" lon="6.85127">
        <ele>1976.1271972656</ele>
        <time>2016-05-28T09:51:48Z</time>
      </trkpt>
      <trkpt lat="45.64608" lon="6.85057">
        <ele>1973.7238769531</ele>
        <time>2016-05-28T09:51:55Z</time>
      </trkpt>
      <trkpt lat="45.64582" lon="6.85028">
        <ele>1971.8012695312</ele>
        <time>2016-05-28T09:51:58Z</time>
      </trkpt>
      <trkpt lat="45.64555" lon="6.84981">
        <ele>1969.8786621094</ele>
        <time>2016-05-28T09:52:02Z</time>
      </trkpt>
      <trkpt lat="45.6455" lon="6.84968">
        <ele>1967.4753417969</ele>
        <time>2016-05-28T09:52:03Z</time>
      </trkpt>
      <trkpt lat="45.64517" lon="6.84925">
        <ele>1966.5141601562</ele>
        <time>2016-05-28T09:52:07Z</time>
      </trkpt>
      <trkpt lat="45.64508" lon="6.84916">
        <ele>1966.0334472656</ele>
        <time>2016-05-28T09:52:08Z</time>
      </trkpt>
      <trkpt lat="45.64478" lon="6.84866">
        <ele>1965.072265625</ele>
        <time>2016-05-28T09:52:12Z</time>
      </trkpt>
      <trkpt lat="45.64458" lon="6.84825">
        <ele>1964.1108398438</ele>
        <time>2016-05-28T09:52:15Z</time>
      </trkpt>
      <trkpt lat="45.64423" lon="6.84783">
        <ele>1959.7846679688</ele>
        <time>2016-05-28T09:52:19Z</time>
      </trkpt>
      <trkpt lat="45.64401" lon="6.84771">
        <ele>1960.74609375</ele>
        <time>2016-05-28T09:52:21Z</time>
      </trkpt>
      <trkpt lat="45.64382" lon="6.84764">
        <ele>1958.8234863281</ele>
        <time>2016-05-28T09:52:23Z</time>
      </trkpt>
      <trkpt lat="45.64346" lon="6.84734">
        <ele>1954.4975585938</ele>
        <time>2016-05-28T09:52:28Z</time>
      </trkpt>
      <trkpt lat="45.64338" lon="6.84727">
        <ele>1954.4975585938</ele>
        <time>2016-05-28T09:52:29Z</time>
      </trkpt>
      <trkpt lat="45.6433" lon="6.84719">
        <ele>1954.0170898438</ele>
        <time>2016-05-28T09:52:30Z</time>
      </trkpt>
      <trkpt lat="45.64294" lon="6.84666">
        <ele>1952.0942382812</ele>
        <time>2016-05-28T09:52:35Z</time>
      </trkpt>
      <trkpt lat="45.64264" lon="6.84618">
        <ele>1948.7297363281</ele>
        <time>2016-05-28T09:52:39Z</time>
      </trkpt>
      <trkpt lat="45.64217" lon="6.84551">
        <ele>1948.2490234375</ele>
        <time>2016-05-28T09:52:45Z</time>
      </trkpt>
      <trkpt lat="45.64193" lon="6.84488">
        <ele>1947.2875976562</ele>
        <time>2016-05-28T09:52:50Z</time>
      </trkpt>
      <trkpt lat="45.64183" lon="6.84453">
        <ele>1945.3649902344</ele>
        <time>2016-05-28T09:52:53Z</time>
      </trkpt>
      <trkpt lat="45.64162" lon="6.84427">
        <ele>1943.4423828125</ele>
        <time>2016-05-28T09:52:57Z</time>
      </trkpt>
      <trkpt lat="45.64147" lon="6.84433">
        <ele>1945.845703125</ele>
        <time>2016-05-28T09:52:59Z</time>
      </trkpt>
      <trkpt lat="45.64119" lon="6.84455">
        <ele>1942.0004882812</ele>
        <time>2016-05-28T09:53:03Z</time>
      </trkpt>
      <trkpt lat="45.64091" lon="6.84483">
        <ele>1938.6359863281</ele>
        <time>2016-05-28T09:53:07Z</time>
      </trkpt>
      <trkpt lat="45.64084" lon="6.84491">
        <ele>1938.6359863281</ele>
        <time>2016-05-28T09:53:08Z</time>
      </trkpt>
      <trkpt lat="45.64053" lon="6.84519">
        <ele>1938.1552734375</ele>
        <time>2016-05-28T09:53:12Z</time>
      </trkpt>
      <trkpt lat="45.64018" lon="6.8454">
        <ele>1936.7131347656</ele>
        <time>2016-05-28T09:53:16Z</time>
      </trkpt>
      <trkpt lat="45.63961" lon="6.84592">
        <ele>1934.3100585938</ele>
        <time>2016-05-28T09:53:23Z</time>
      </trkpt>
      <trkpt lat="45.63941" lon="6.8462">
        <ele>1932.8679199219</ele>
        <time>2016-05-28T09:53:26Z</time>
      </trkpt>
      <trkpt lat="45.63929" lon="6.84637">
        <ele>1929.9838867188</ele>
        <time>2016-05-28T09:53:28Z</time>
      </trkpt>
      <trkpt lat="45.63904" lon="6.84651">
        <ele>1929.5031738281</ele>
        <time>2016-05-28T09:53:31Z</time>
      </trkpt>
      <trkpt lat="45.63871" lon="6.84664">
        <ele>1928.5419921875</ele>
        <time>2016-05-28T09:53:35Z</time>
      </trkpt>
      <trkpt lat="45.63845" lon="6.8467">
        <ele>1926.6193847656</ele>
        <time>2016-05-28T09:53:38Z</time>
      </trkpt>
      <trkpt lat="45.63827" lon="6.84669">
        <ele>1924.6967773438</ele>
        <time>2016-05-28T09:53:40Z</time>
      </trkpt>
      <trkpt lat="45.63788" lon="6.84682">
        <ele>1922.2934570312</ele>
        <time>2016-05-28T09:53:45Z</time>
      </trkpt>
      <trkpt lat="45.6377" lon="6.84702">
        <ele>1922.2934570312</ele>
        <time>2016-05-28T09:53:48Z</time>
      </trkpt>
      <trkpt lat="45.63763" lon="6.84731">
        <ele>1921.8127441406</ele>
        <time>2016-05-28T09:53:51Z</time>
      </trkpt>
      <trkpt lat="45.63762" lon="6.84741">
        <ele>1921.33203125</ele>
        <time>2016-05-28T09:53:52Z</time>
      </trkpt>
      <trkpt lat="45.63762" lon="6.84772">
        <ele>1919.8901367188</ele>
        <time>2016-05-28T09:53:55Z</time>
      </trkpt>
      <trkpt lat="45.63758" lon="6.84824">
        <ele>1917.4868164062</ele>
        <time>2016-05-28T09:54:00Z</time>
      </trkpt>
      <trkpt lat="45.63756" lon="6.84832">
        <ele>1917.0063476562</ele>
        <time>2016-05-28T09:54:01Z</time>
      </trkpt>
      <trkpt lat="45.63747" lon="6.84856">
        <ele>1916.044921875</ele>
        <time>2016-05-28T09:54:04Z</time>
      </trkpt>
      <trkpt lat="45.63717" lon="6.84912">
        <ele>1913.6413574219</ele>
        <time>2016-05-28T09:54:12Z</time>
      </trkpt>
      <trkpt lat="45.63706" lon="6.84932">
        <ele>1913.6413574219</ele>
        <time>2016-05-28T09:54:15Z</time>
      </trkpt>
      <trkpt lat="45.63676" lon="6.84962">
        <ele>1912.1994628906</ele>
        <time>2016-05-28T09:54:21Z</time>
      </trkpt>
      <trkpt lat="45.63639" lon="6.85002">
        <ele>1910.2768554688</ele>
        <time>2016-05-28T09:54:28Z</time>
      </trkpt>
      <trkpt lat="45.63603" lon="6.85042">
        <ele>1908.8349609375</ele>
        <time>2016-05-28T09:54:34Z</time>
      </trkpt>
      <trkpt lat="45.6358" lon="6.85049">
        <ele>1906.9123535156</ele>
        <time>2016-05-28T09:54:37Z</time>
      </trkpt>
      <trkpt lat="45.63564" lon="6.8504">
        <ele>1906.431640625</ele>
        <time>2016-05-28T09:54:39Z</time>
      </trkpt>
      <trkpt lat="45.63512" lon="6.85019">
        <ele>1904.9897460938</ele>
        <time>2016-05-28T09:54:45Z</time>
      </trkpt>
      <trkpt lat="45.63479" lon="6.84992">
        <ele>1904.9897460938</ele>
        <time>2016-05-28T09:54:49Z</time>
      </trkpt>
      <trkpt lat="45.63468" lon="6.84968">
        <ele>1904.0285644531</ele>
        <time>2016-05-28T09:54:51Z</time>
      </trkpt>
      <trkpt lat="45.63431" lon="6.84917">
        <ele>1901.14453125</ele>
        <time>2016-05-28T09:54:56Z</time>
      </trkpt>
      <trkpt lat="45.63399" lon="6.84907">
        <ele>1899.2216796875</ele>
        <time>2016-05-28T09:54:59Z</time>
      </trkpt>
      <trkpt lat="45.63343" lon="6.84902">
        <ele>1897.2990722656</ele>
        <time>2016-05-28T09:55:04Z</time>
      </trkpt>
      <trkpt lat="45.63311" lon="6.84905">
        <ele>1894.8957519531</ele>
        <time>2016-05-28T09:55:07Z</time>
      </trkpt>
      <trkpt lat="45.6327" lon="6.849">
        <ele>1891.53125</ele>
        <time>2016-05-28T09:55:11Z</time>
      </trkpt>
      <trkpt lat="45.6324" lon="6.84883">
        <ele>1889.6086425781</ele>
        <time>2016-05-28T09:55:14Z</time>
      </trkpt>
      <trkpt lat="45.63231" lon="6.84874">
        <ele>1888.6474609375</ele>
        <time>2016-05-28T09:55:15Z</time>
      </trkpt>
      <trkpt lat="45.63182" lon="6.84808">
        <ele>1887.2053222656</ele>
        <time>2016-05-28T09:55:21Z</time>
      </trkpt>
      <trkpt lat="45.63142" lon="6.84776">
        <ele>1884.3215332031</ele>
        <time>2016-05-28T09:55:25Z</time>
      </trkpt>
      <trkpt lat="45.63123" lon="6.84757">
        <ele>1884.3215332031</ele>
        <time>2016-05-28T09:55:27Z</time>
      </trkpt>
      <trkpt lat="45.63074" lon="6.84715">
        <ele>1882.3986816406</ele>
        <time>2016-05-28T09:55:32Z</time>
      </trkpt>
      <trkpt lat="45.63063" lon="6.84708">
        <ele>1881.91796875</ele>
        <time>2016-05-28T09:55:33Z</time>
      </trkpt>
      <trkpt lat="45.63033" lon="6.84674">
        <ele>1877.1115722656</ele>
        <time>2016-05-28T09:55:37Z</time>
      </trkpt>
      <trkpt lat="45.63009" lon="6.84661">
        <ele>1874.7082519531</ele>
        <time>2016-05-28T09:55:41Z</time>
      </trkpt>
      <trkpt lat="45.62989" lon="6.84681">
        <ele>1875.6694335938</ele>
        <time>2016-05-28T09:55:45Z</time>
      </trkpt>
      <trkpt lat="45.62975" lon="6.84702">
        <ele>1873.7468261719</ele>
        <time>2016-05-28T09:55:48Z</time>
      </trkpt>
      <trkpt lat="45.62941" lon="6.84741">
        <ele>1870.8630371094</ele>
        <time>2016-05-28T09:55:54Z</time>
      </trkpt>
      <trkpt lat="45.62909" lon="6.84783">
        <ele>1869.4211425781</ele>
        <time>2016-05-28T09:56:00Z</time>
      </trkpt>
      <trkpt lat="45.62876" lon="6.84813">
        <ele>1867.9787597656</ele>
        <time>2016-05-28T09:56:05Z</time>
      </trkpt>
      <trkpt lat="45.62827" lon="6.84838">
        <ele>1865.5756835938</ele>
        <time>2016-05-28T09:56:11Z</time>
      </trkpt>
      <trkpt lat="45.62787" lon="6.84863">
        <ele>1864.6142578125</ele>
        <time>2016-05-28T09:56:16Z</time>
      </trkpt>
      <trkpt lat="45.62753" lon="6.84908">
        <ele>1863.1723632812</ele>
        <time>2016-05-28T09:56:21Z</time>
      </trkpt>
      <trkpt lat="45.62737" lon="6.8494">
        <ele>1861.73046875</ele>
        <time>2016-05-28T09:56:24Z</time>
      </trkpt>
      <trkpt lat="45.62711" lon="6.84966">
        <ele>1859.3271484375</ele>
        <time>2016-05-28T09:56:28Z</time>
      </trkpt>
      <trkpt lat="45.62683" lon="6.84999">
        <ele>1858.3657226562</ele>
        <time>2016-05-28T09:56:33Z</time>
      </trkpt>
      <trkpt lat="45.62673" lon="6.85027">
        <ele>1857.4045410156</ele>
        <time>2016-05-28T09:56:36Z</time>
      </trkpt>
      <trkpt lat="45.62652" lon="6.85071">
        <ele>1857.4045410156</ele>
        <time>2016-05-28T09:56:41Z</time>
      </trkpt>
      <trkpt lat="45.62617" lon="6.85115">
        <ele>1855.4819335938</ele>
        <time>2016-05-28T09:56:47Z</time>
      </trkpt>
      <trkpt lat="45.62593" lon="6.85178">
        <ele>1853.5593261719</ele>
        <time>2016-05-28T09:56:53Z</time>
      </trkpt>
      <trkpt lat="45.62578" lon="6.85238">
        <ele>1852.5979003906</ele>
        <time>2016-05-28T09:56:58Z</time>
      </trkpt>
      <trkpt lat="45.62572" lon="6.85305">
        <ele>1849.2331542969</ele>
        <time>2016-05-28T09:57:03Z</time>
      </trkpt>
      <trkpt lat="45.62572" lon="6.85342">
        <ele>1847.7912597656</ele>
        <time>2016-05-28T09:57:06Z</time>
      </trkpt>
      <trkpt lat="45.62571" lon="6.85374">
        <ele>1843.9460449219</ele>
        <time>2016-05-28T09:57:09Z</time>
      </trkpt>
      <trkpt lat="45.6257" lon="6.85384">
        <ele>1844.4265136719</ele>
        <time>2016-05-28T09:57:10Z</time>
      </trkpt>
      <trkpt lat="45.62568" lon="6.85402">
        <ele>1842.5041503906</ele>
        <time>2016-05-28T09:57:12Z</time>
      </trkpt>
      <trkpt lat="45.62564" lon="6.85429">
        <ele>1840.5812988281</ele>
        <time>2016-05-28T09:57:15Z</time>
      </trkpt>
      <trkpt lat="45.62563" lon="6.85491">
        <ele>1841.0620117188</ele>
        <time>2016-05-28T09:57:21Z</time>
      </trkpt>
      <trkpt lat="45.62555" lon="6.85532">
        <ele>1839.6201171875</ele>
        <time>2016-05-28T09:57:25Z</time>
      </trkpt>
      <trkpt lat="45.6255" lon="6.85541">
        <ele>1838.6589355469</ele>
        <time>2016-05-28T09:57:26Z</time>
      </trkpt>
      <trkpt lat="45.62522" lon="6.856">
        <ele>1835.7746582031</ele>
        <time>2016-05-28T09:57:32Z</time>
      </trkpt>
      <trkpt lat="45.62496" lon="6.85664">
        <ele>1834.8134765625</ele>
        <time>2016-05-28T09:57:38Z</time>
      </trkpt>
      <trkpt lat="45.6248" lon="6.85692">
        <ele>1833.3713378906</ele>
        <time>2016-05-28T09:57:41Z</time>
      </trkpt>
      <trkpt lat="45.62473" lon="6.857">
        <ele>1832.41015625</ele>
        <time>2016-05-28T09:57:42Z</time>
      </trkpt>
      <trkpt lat="45.62433" lon="6.85747">
        <ele>1829.5261230469</ele>
        <time>2016-05-28T09:57:48Z</time>
      </trkpt>
      <trkpt lat="45.62423" lon="6.85763">
        <ele>1827.603515625</ele>
        <time>2016-05-28T09:57:50Z</time>
      </trkpt>
      <trkpt lat="45.62414" lon="6.85785">
        <ele>1825.6809082031</ele>
        <time>2016-05-28T09:57:53Z</time>
      </trkpt>
      <trkpt lat="45.62402" lon="6.85795">
        <ele>1826.1616210938</ele>
        <time>2016-05-28T09:57:57Z</time>
      </trkpt>
      <trkpt lat="45.624" lon="6.85781">
        <ele>1825.6809082031</ele>
        <time>2016-05-28T09:58:00Z</time>
      </trkpt>
      <trkpt lat="45.62409" lon="6.85764">
        <ele>1825.6809082031</ele>
        <time>2016-05-28T09:58:04Z</time>
      </trkpt>
      <trkpt lat="45.62411" lon="6.85761">
        <ele>1825.6809082031</ele>
        <time>2016-05-28T09:58:08Z</time>
      </trkpt>
      <trkpt lat="45.62411" lon="6.8576">
        <ele>1824.7197265625</ele>
        <time>2016-05-28T09:58:10Z</time>
      </trkpt>
      <trkpt lat="45.62411" lon="6.8576">
        <ele>1825.2001953125</ele>
        <time>2016-05-28T09:58:11Z</time>
      </trkpt>
      <trkpt lat="45.62409" lon="6.85758">
        <ele>1825.6809082031</ele>
        <time>2016-05-28T09:58:20Z</time>
      </trkpt>
      <trkpt lat="45.62407" lon="6.85758">
        <ele>1825.2001953125</ele>
        <time>2016-05-28T09:58:23Z</time>
      </trkpt>
      <trkpt lat="45.62403" lon="6.85762">
        <ele>1825.2001953125</ele>
        <time>2016-05-28T09:58:27Z</time>
      </trkpt>
      <trkpt lat="45.624" lon="6.85778">
        <ele>1824.2390136719</ele>
        <time>2016-05-28T09:58:32Z</time>
      </trkpt>
      <trkpt lat="45.62397" lon="6.85793">
        <ele>1824.7197265625</ele>
        <time>2016-05-28T09:58:36Z</time>
      </trkpt>
      <trkpt lat="45.62399" lon="6.85817">
        <ele>1823.7583007812</ele>
        <time>2016-05-28T09:58:43Z</time>
      </trkpt>
      <trkpt lat="45.62399" lon="6.85846">
        <ele>1822.31640625</ele>
        <time>2016-05-28T09:58:50Z</time>
      </trkpt>
      <trkpt lat="45.62399" lon="6.85884">
        <ele>1822.31640625</ele>
        <time>2016-05-28T09:58:58Z</time>
      </trkpt>
      <trkpt lat="45.62399" lon="6.8592">
        <ele>1820.8745117188</ele>
        <time>2016-05-28T09:59:04Z</time>
      </trkpt>
      <trkpt lat="45.62397" lon="6.85972">
        <ele>1819.9128417969</ele>
        <time>2016-05-28T09:59:10Z</time>
      </trkpt>
      <trkpt lat="45.62397" lon="6.86">
        <ele>1818.4709472656</ele>
        <time>2016-05-28T09:59:13Z</time>
      </trkpt>
      <trkpt lat="45.62398" lon="6.86046">
        <ele>1817.0290527344</ele>
        <time>2016-05-28T09:59:18Z</time>
      </trkpt>
      <trkpt lat="45.62399" lon="6.86076">
        <ele>1816.0676269531</ele>
        <time>2016-05-28T09:59:21Z</time>
      </trkpt>
      <trkpt lat="45.62406" lon="6.86143">
        <ele>1814.1450195312</ele>
        <time>2016-05-28T09:59:27Z</time>
      </trkpt>
      <trkpt lat="45.62409" lon="6.86207">
        <ele>1810.7805175781</ele>
        <time>2016-05-28T09:59:32Z</time>
      </trkpt>
      <trkpt lat="45.6241" lon="6.8622">
        <ele>1810.7805175781</ele>
        <time>2016-05-28T09:59:33Z</time>
      </trkpt>
      <trkpt lat="45.62412" lon="6.8629">
        <ele>1807.8967285156</ele>
        <time>2016-05-28T09:59:38Z</time>
      </trkpt>
      <trkpt lat="45.62411" lon="6.86304">
        <ele>1808.3771972656</ele>
        <time>2016-05-28T09:59:39Z</time>
      </trkpt>
      <trkpt lat="45.62402" lon="6.86375">
        <ele>1805.9738769531</ele>
        <time>2016-05-28T09:59:44Z</time>
      </trkpt>
      <trkpt lat="45.62399" lon="6.86432">
        <ele>1804.5319824219</ele>
        <time>2016-05-28T09:59:48Z</time>
      </trkpt>
      <trkpt lat="45.62404" lon="6.8647">
        <ele>1802.1284179688</ele>
        <time>2016-05-28T09:59:51Z</time>
      </trkpt>
      <trkpt lat="45.62408" lon="6.86481">
        <ele>1801.6479492188</ele>
        <time>2016-05-28T09:59:52Z</time>
      </trkpt>
      <trkpt lat="45.62416" lon="6.86499">
        <ele>1801.1672363281</ele>
        <time>2016-05-28T09:59:54Z</time>
      </trkpt>
      <trkpt lat="45.62419" lon="6.8652">
        <ele>1798.283203125</ele>
        <time>2016-05-28T09:59:57Z</time>
      </trkpt>
      <trkpt lat="45.6241" lon="6.8652">
        <ele>1798.283203125</ele>
        <time>2016-05-28T09:59:59Z</time>
      </trkpt>
      <trkpt lat="45.62401" lon="6.86508">
        <ele>1798.283203125</ele>
        <time>2016-05-28T10:00:01Z</time>
      </trkpt>
      <trkpt lat="45.62399" lon="6.86501">
        <ele>1796.3608398438</ele>
        <time>2016-05-28T10:00:02Z</time>
      </trkpt>
      <trkpt lat="45.62395" lon="6.86484">
        <ele>1794.4379882812</ele>
        <time>2016-05-28T10:00:06Z</time>
      </trkpt>
      <trkpt lat="45.62395" lon="6.86479">
        <ele>1795.8801269531</ele>
        <time>2016-05-28T10:00:10Z</time>
      </trkpt>
      <trkpt lat="45.62392" lon="6.86469">
        <ele>1795.8801269531</ele>
        <time>2016-05-28T10:00:15Z</time>
      </trkpt>
      <trkpt lat="45.62389" lon="6.86456">
        <ele>1793.9575195312</ele>
        <time>2016-05-28T10:00:18Z</time>
      </trkpt>
      <trkpt lat="45.62387" lon="6.8645">
        <ele>1795.3994140625</ele>
        <time>2016-05-28T10:00:19Z</time>
      </trkpt>
      <trkpt lat="45.62383" lon="6.86431">
        <ele>1793.4768066406</ele>
        <time>2016-05-28T10:00:22Z</time>
      </trkpt>
      <trkpt lat="45.62375" lon="6.86369">
        <ele>1792.515625</ele>
        <time>2016-05-28T10:00:29Z</time>
      </trkpt>
      <trkpt lat="45.62371" lon="6.8634">
        <ele>1790.1123046875</ele>
        <time>2016-05-28T10:00:32Z</time>
      </trkpt>
      <trkpt lat="45.62365" lon="6.8631">
        <ele>1788.6704101562</ele>
        <time>2016-05-28T10:00:35Z</time>
      </trkpt>
      <trkpt lat="45.62362" lon="6.86291">
        <ele>1787.2280273438</ele>
        <time>2016-05-28T10:00:37Z</time>
      </trkpt>
      <trkpt lat="45.6235" lon="6.86235">
        <ele>1787.2280273438</ele>
        <time>2016-05-28T10:00:43Z</time>
      </trkpt>
      <trkpt lat="45.62341" lon="6.8619">
        <ele>1786.2668457031</ele>
        <time>2016-05-28T10:00:47Z</time>
      </trkpt>
      <trkpt lat="45.62331" lon="6.86132">
        <ele>1783.3828125</ele>
        <time>2016-05-28T10:00:52Z</time>
      </trkpt>
      <trkpt lat="45.62325" lon="6.86109">
        <ele>1782.9020996094</ele>
        <time>2016-05-28T10:00:54Z</time>
      </trkpt>
      <trkpt lat="45.62317" lon="6.86087">
        <ele>1780.4990234375</ele>
        <time>2016-05-28T10:00:56Z</time>
      </trkpt>
      <trkpt lat="45.62296" lon="6.86043">
        <ele>1778.5764160156</ele>
        <time>2016-05-28T10:01:00Z</time>
      </trkpt>
      <trkpt lat="45.6228" lon="6.86008">
        <ele>1778.095703125</ele>
        <time>2016-05-28T10:01:03Z</time>
      </trkpt>
      <trkpt lat="45.62269" lon="6.85953">
        <ele>1775.6923828125</ele>
        <time>2016-05-28T10:01:07Z</time>
      </trkpt>
      <trkpt lat="45.62262" lon="6.85848">
        <ele>1772.80859375</ele>
        <time>2016-05-28T10:01:14Z</time>
      </trkpt>
      <trkpt lat="45.6226" lon="6.85817">
        <ele>1772.80859375</ele>
        <time>2016-05-28T10:01:16Z</time>
      </trkpt>
      <trkpt lat="45.62262" lon="6.85787">
        <ele>1771.8469238281</ele>
        <time>2016-05-28T10:01:18Z</time>
      </trkpt>
      <trkpt lat="45.6228" lon="6.85747">
        <ele>1770.4050292969</ele>
        <time>2016-05-28T10:01:21Z</time>
      </trkpt>
      <trkpt lat="45.62294" lon="6.85704">
        <ele>1768.9631347656</ele>
        <time>2016-05-28T10:01:24Z</time>
      </trkpt>
      <trkpt lat="45.62296" lon="6.85689">
        <ele>1767.5209960938</ele>
        <time>2016-05-28T10:01:25Z</time>
      </trkpt>
      <trkpt lat="45.62304" lon="6.85592">
        <ele>1763.67578125</ele>
        <time>2016-05-28T10:01:31Z</time>
      </trkpt>
      <trkpt lat="45.62307" lon="6.85512">
        <ele>1760.7919921875</ele>
        <time>2016-05-28T10:01:36Z</time>
      </trkpt>
      <trkpt lat="45.62297" lon="6.85433">
        <ele>1757.4274902344</ele>
        <time>2016-05-28T10:01:41Z</time>
      </trkpt>
      <trkpt lat="45.62292" lon="6.85402">
        <ele>1756.9467773438</ele>
        <time>2016-05-28T10:01:43Z</time>
      </trkpt>
      <trkpt lat="45.62286" lon="6.85355">
        <ele>1754.5432128906</ele>
        <time>2016-05-28T10:01:46Z</time>
      </trkpt>
      <trkpt lat="45.62289" lon="6.85296">
        <ele>1753.1013183594</ele>
        <time>2016-05-28T10:01:50Z</time>
      </trkpt>
      <trkpt lat="45.62304" lon="6.85218">
        <ele>1752.1398925781</ele>
        <time>2016-05-28T10:01:56Z</time>
      </trkpt>
      <trkpt lat="45.62315" lon="6.85183">
        <ele>1750.6979980469</ele>
        <time>2016-05-28T10:01:59Z</time>
      </trkpt>
      <trkpt lat="45.62329" lon="6.85128">
        <ele>1749.7368164062</ele>
        <time>2016-05-28T10:02:04Z</time>
      </trkpt>
      <trkpt lat="45.62331" lon="6.85117">
        <ele>1749.7368164062</ele>
        <time>2016-05-28T10:02:05Z</time>
      </trkpt>
      <trkpt lat="45.62336" lon="6.85096">
        <ele>1747.8142089844</ele>
        <time>2016-05-28T10:02:07Z</time>
      </trkpt>
      <trkpt lat="45.62331" lon="6.85073">
        <ele>1747.3334960938</ele>
        <time>2016-05-28T10:02:10Z</time>
      </trkpt>
      <trkpt lat="45.62318" lon="6.8508">
        <ele>1745.4108886719</ele>
        <time>2016-05-28T10:02:12Z</time>
      </trkpt>
      <trkpt lat="45.62312" lon="6.85097">
        <ele>1744.9301757812</ele>
        <time>2016-05-28T10:02:14Z</time>
      </trkpt>
      <trkpt lat="45.62311" lon="6.85108">
        <ele>1744.9301757812</ele>
        <time>2016-05-28T10:02:15Z</time>
      </trkpt>
      <trkpt lat="45.62303" lon="6.85167">
        <ele>1744.9301757812</ele>
        <time>2016-05-28T10:02:20Z</time>
      </trkpt>
      <trkpt lat="45.62282" lon="6.85228">
        <ele>1743.0075683594</ele>
        <time>2016-05-28T10:02:25Z</time>
      </trkpt>
      <trkpt lat="45.62268" lon="6.85265">
        <ele>1741.0849609375</ele>
        <time>2016-05-28T10:02:28Z</time>
      </trkpt>
      <trkpt lat="45.62264" lon="6.85279">
        <ele>1739.6428222656</ele>
        <time>2016-05-28T10:02:29Z</time>
      </trkpt>
      <trkpt lat="45.62249" lon="6.85365">
        <ele>1737.7202148438</ele>
        <time>2016-05-28T10:02:35Z</time>
      </trkpt>
      <trkpt lat="45.62249" lon="6.85396">
        <ele>1736.7587890625</ele>
        <time>2016-05-28T10:02:37Z</time>
      </trkpt>
      <trkpt lat="45.62251" lon="6.85427">
        <ele>1735.3168945312</ele>
        <time>2016-05-28T10:02:39Z</time>
      </trkpt>
      <trkpt lat="45.62244" lon="6.85487">
        <ele>1734.3557128906</ele>
        <time>2016-05-28T10:02:43Z</time>
      </trkpt>
      <trkpt lat="45.6224" lon="6.85518">
        <ele>1732.9135742188</ele>
        <time>2016-05-28T10:02:45Z</time>
      </trkpt>
      <trkpt lat="45.62233" lon="6.85548">
        <ele>1731.4716796875</ele>
        <time>2016-05-28T10:02:47Z</time>
      </trkpt>
      <trkpt lat="45.62219" lon="6.85573">
        <ele>1730.9912109375</ele>
        <time>2016-05-28T10:02:49Z</time>
      </trkpt>
      <trkpt lat="45.62193" lon="6.8564">
        <ele>1726.6652832031</ele>
        <time>2016-05-28T10:02:54Z</time>
      </trkpt>
      <trkpt lat="45.62194" lon="6.85656">
        <ele>1726.6652832031</ele>
        <time>2016-05-28T10:02:55Z</time>
      </trkpt>
      <trkpt lat="45.62187" lon="6.85715">
        <ele>1725.2231445312</ele>
        <time>2016-05-28T10:02:59Z</time>
      </trkpt>
      <trkpt lat="45.62178" lon="6.85726">
        <ele>1724.2619628906</ele>
        <time>2016-05-28T10:03:00Z</time>
      </trkpt>
      <trkpt lat="45.6216" lon="6.85744">
        <ele>1721.3776855469</ele>
        <time>2016-05-28T10:03:02Z</time>
      </trkpt>
      <trkpt lat="45.62139" lon="6.85797">
        <ele>1719.4553222656</ele>
        <time>2016-05-28T10:03:06Z</time>
      </trkpt>
      <trkpt lat="45.62124" lon="6.8589">
        <ele>1714.6486816406</ele>
        <time>2016-05-28T10:03:12Z</time>
      </trkpt>
      <trkpt lat="45.62122" lon="6.85906">
        <ele>1714.6486816406</ele>
        <time>2016-05-28T10:03:13Z</time>
      </trkpt>
      <trkpt lat="45.62116" lon="6.85965">
        <ele>1712.2453613281</ele>
        <time>2016-05-28T10:03:17Z</time>
      </trkpt>
      <trkpt lat="45.62109" lon="6.85975">
        <ele>1711.2841796875</ele>
        <time>2016-05-28T10:03:19Z</time>
      </trkpt>
      <trkpt lat="45.62101" lon="6.85965">
        <ele>1709.3615722656</ele>
        <time>2016-05-28T10:03:21Z</time>
      </trkpt>
      <trkpt lat="45.62104" lon="6.85941">
        <ele>1708.4001464844</ele>
        <time>2016-05-28T10:03:24Z</time>
      </trkpt>
      <trkpt lat="45.6211" lon="6.85917">
        <ele>1707.4387207031</ele>
        <time>2016-05-28T10:03:27Z</time>
      </trkpt>
      <trkpt lat="45.62114" lon="6.85891">
        <ele>1706.9580078125</ele>
        <time>2016-05-28T10:03:30Z</time>
      </trkpt>
      <trkpt lat="45.62119" lon="6.85812">
        <ele>1705.9965820312</ele>
        <time>2016-05-28T10:03:38Z</time>
      </trkpt>
      <trkpt lat="45.62122" lon="6.85781">
        <ele>1705.0354003906</ele>
        <time>2016-05-28T10:03:41Z</time>
      </trkpt>
      <trkpt lat="45.62135" lon="6.85741">
        <ele>1705.0354003906</ele>
        <time>2016-05-28T10:03:45Z</time>
      </trkpt>
      <trkpt lat="45.62147" lon="6.85688">
        <ele>1702.1513671875</ele>
        <time>2016-05-28T10:03:50Z</time>
      </trkpt>
      <trkpt lat="45.62143" lon="6.85663">
        <ele>1702.6320800781</ele>
        <time>2016-05-28T10:03:52Z</time>
      </trkpt>
      <trkpt lat="45.62148" lon="6.85612">
        <ele>1699.267578125</ele>
        <time>2016-05-28T10:03:56Z</time>
      </trkpt>
      <trkpt lat="45.62172" lon="6.85508">
        <ele>1697.8256835938</ele>
        <time>2016-05-28T10:04:04Z</time>
      </trkpt>
      <trkpt lat="45.62168" lon="6.85457">
        <ele>1695.4223632812</ele>
        <time>2016-05-28T10:04:08Z</time>
      </trkpt>
      <trkpt lat="45.62158" lon="6.85434">
        <ele>1693.4997558594</ele>
        <time>2016-05-28T10:04:10Z</time>
      </trkpt>
      <trkpt lat="45.6215" lon="6.85393">
        <ele>1693.0190429688</ele>
        <time>2016-05-28T10:04:13Z</time>
      </trkpt>
      <trkpt lat="45.62146" lon="6.85308">
        <ele>1689.1735839844</ele>
        <time>2016-05-28T10:04:19Z</time>
      </trkpt>
      <trkpt lat="45.62146" lon="6.85294">
        <ele>1690.1350097656</ele>
        <time>2016-05-28T10:04:20Z</time>
      </trkpt>
      <trkpt lat="45.62144" lon="6.85252">
        <ele>1686.7702636719</ele>
        <time>2016-05-28T10:04:23Z</time>
      </trkpt>
      <trkpt lat="45.62144" lon="6.85238">
        <ele>1685.8090820312</ele>
        <time>2016-05-28T10:04:24Z</time>
      </trkpt>
      <trkpt lat="45.62153" lon="6.85153">
        <ele>1683.4057617188</ele>
        <time>2016-05-28T10:04:30Z</time>
      </trkpt>
      <trkpt lat="45.62154" lon="6.85139">
        <ele>1683.8864746094</ele>
        <time>2016-05-28T10:04:31Z</time>
      </trkpt>
      <trkpt lat="45.62157" lon="6.85125">
        <ele>1684.3671875</ele>
        <time>2016-05-28T10:04:32Z</time>
      </trkpt>
      <trkpt lat="45.62173" lon="6.85074">
        <ele>1682.9250488281</ele>
        <time>2016-05-28T10:04:36Z</time>
      </trkpt>
      <trkpt lat="45.62181" lon="6.85048">
        <ele>1682.4445800781</ele>
        <time>2016-05-28T10:04:38Z</time>
      </trkpt>
      <trkpt lat="45.62182" lon="6.85021">
        <ele>1681.4831542969</ele>
        <time>2016-05-28T10:04:40Z</time>
      </trkpt>
      <trkpt lat="45.62175" lon="6.8494">
        <ele>1677.6379394531</ele>
        <time>2016-05-28T10:04:46Z</time>
      </trkpt>
      <trkpt lat="45.62175" lon="6.84871">
        <ele>1676.1960449219</ele>
        <time>2016-05-28T10:04:51Z</time>
      </trkpt>
      <trkpt lat="45.6218" lon="6.84785">
        <ele>1673.7924804688</ele>
        <time>2016-05-28T10:04:57Z</time>
      </trkpt>
      <trkpt lat="45.62176" lon="6.84712">
        <ele>1671.8698730469</ele>
        <time>2016-05-28T10:05:02Z</time>
      </trkpt>
      <trkpt lat="45.62174" lon="6.84683">
        <ele>1668.9860839844</ele>
        <time>2016-05-28T10:05:04Z</time>
      </trkpt>
      <trkpt lat="45.62173" lon="6.84654">
        <ele>1668.0246582031</ele>
        <time>2016-05-28T10:05:06Z</time>
      </trkpt>
      <trkpt lat="45.6219" lon="6.84609">
        <ele>1665.6215820312</ele>
        <time>2016-05-28T10:05:10Z</time>
      </trkpt>
      <trkpt lat="45.62216" lon="6.84552">
        <ele>1664.66015625</ele>
        <time>2016-05-28T10:05:15Z</time>
      </trkpt>
      <trkpt lat="45.62229" lon="6.84532">
        <ele>1661.2956542969</ele>
        <time>2016-05-28T10:05:17Z</time>
      </trkpt>
      <trkpt lat="45.62245" lon="6.84515">
        <ele>1660.8149414062</ele>
        <time>2016-05-28T10:05:19Z</time>
      </trkpt>
      <trkpt lat="45.62269" lon="6.84469">
        <ele>1659.8532714844</ele>
        <time>2016-05-28T10:05:23Z</time>
      </trkpt>
      <trkpt lat="45.62279" lon="6.84443">
        <ele>1658.4113769531</ele>
        <time>2016-05-28T10:05:25Z</time>
      </trkpt>
      <trkpt lat="45.6231" lon="6.84367">
        <ele>1655.5275878906</ele>
        <time>2016-05-28T10:05:31Z</time>
      </trkpt>
      <trkpt lat="45.62318" lon="6.84327">
        <ele>1656.9694824219</ele>
        <time>2016-05-28T10:05:34Z</time>
      </trkpt>
      <trkpt lat="45.6232" lon="6.84286">
        <ele>1653.6049804688</ele>
        <time>2016-05-28T10:05:37Z</time>
      </trkpt>
      <trkpt lat="45.62323" lon="6.84273">
        <ele>1653.6049804688</ele>
        <time>2016-05-28T10:05:38Z</time>
      </trkpt>
      <trkpt lat="45.62336" lon="6.84229">
        <ele>1651.6823730469</ele>
        <time>2016-05-28T10:05:42Z</time>
      </trkpt>
      <trkpt lat="45.62359" lon="6.8419">
        <ele>1653.1242675781</ele>
        <time>2016-05-28T10:05:47Z</time>
      </trkpt>
      <trkpt lat="45.62402" lon="6.84155">
        <ele>1649.759765625</ele>
        <time>2016-05-28T10:05:53Z</time>
      </trkpt>
      <trkpt lat="45.62426" lon="6.84139">
        <ele>1646.8757324219</ele>
        <time>2016-05-28T10:05:56Z</time>
      </trkpt>
      <trkpt lat="45.6245" lon="6.84099">
        <ele>1644.953125</ele>
        <time>2016-05-28T10:06:00Z</time>
      </trkpt>
      <trkpt lat="45.62454" lon="6.84087">
        <ele>1643.5109863281</ele>
        <time>2016-05-28T10:06:01Z</time>
      </trkpt>
      <trkpt lat="45.62487" lon="6.84038">
        <ele>1640.626953125</ele>
        <time>2016-05-28T10:06:06Z</time>
      </trkpt>
      <trkpt lat="45.62495" lon="6.84029">
        <ele>1641.1076660156</ele>
        <time>2016-05-28T10:06:07Z</time>
      </trkpt>
      <trkpt lat="45.6251" lon="6.84012">
        <ele>1639.6657714844</ele>
        <time>2016-05-28T10:06:09Z</time>
      </trkpt>
      <trkpt lat="45.62539" lon="6.83996">
        <ele>1637.2624511719</ele>
        <time>2016-05-28T10:06:12Z</time>
      </trkpt>
      <trkpt lat="45.62566" lon="6.83972">
        <ele>1636.3012695312</ele>
        <time>2016-05-28T10:06:15Z</time>
      </trkpt>
      <trkpt lat="45.62582" lon="6.83932">
        <ele>1634.859375</ele>
        <time>2016-05-28T10:06:18Z</time>
      </trkpt>
      <trkpt lat="45.62595" lon="6.83905">
        <ele>1634.3786621094</ele>
        <time>2016-05-28T10:06:20Z</time>
      </trkpt>
      <trkpt lat="45.62613" lon="6.83864">
        <ele>1633.8979492188</ele>
        <time>2016-05-28T10:06:23Z</time>
      </trkpt>
      <trkpt lat="45.62628" lon="6.8384">
        <ele>1631.0141601562</ele>
        <time>2016-05-28T10:06:25Z</time>
      </trkpt>
      <trkpt lat="45.62663" lon="6.838">
        <ele>1627.1687011719</ele>
        <time>2016-05-28T10:06:29Z</time>
      </trkpt>
      <trkpt lat="45.62678" lon="6.83777">
        <ele>1627.1687011719</ele>
        <time>2016-05-28T10:06:31Z</time>
      </trkpt>
      <trkpt lat="45.62691" lon="6.83751">
        <ele>1626.2072753906</ele>
        <time>2016-05-28T10:06:33Z</time>
      </trkpt>
      <trkpt lat="45.62713" lon="6.83694">
        <ele>1622.8427734375</ele>
        <time>2016-05-28T10:06:37Z</time>
      </trkpt>
      <trkpt lat="45.62719" lon="6.8368">
        <ele>1622.3620605469</ele>
        <time>2016-05-28T10:06:38Z</time>
      </trkpt>
      <trkpt lat="45.62742" lon="6.83643">
        <ele>1620.439453125</ele>
        <time>2016-05-28T10:06:41Z</time>
      </trkpt>
      <trkpt lat="45.62761" lon="6.83626">
        <ele>1618.5168457031</ele>
        <time>2016-05-28T10:06:43Z</time>
      </trkpt>
      <trkpt lat="45.62785" lon="6.83591">
        <ele>1617.0749511719</ele>
        <time>2016-05-28T10:06:46Z</time>
      </trkpt>
      <trkpt lat="45.62804" lon="6.8355">
        <ele>1615.15234375</ele>
        <time>2016-05-28T10:06:49Z</time>
      </trkpt>
      <trkpt lat="45.62827" lon="6.8351">
        <ele>1610.3454589844</ele>
        <time>2016-05-28T10:06:53Z</time>
      </trkpt>
      <trkpt lat="45.62824" lon="6.835">
        <ele>1610.3454589844</ele>
        <time>2016-05-28T10:06:54Z</time>
      </trkpt>
      <trkpt lat="45.6281" lon="6.83496">
        <ele>1610.3454589844</ele>
        <time>2016-05-28T10:06:56Z</time>
      </trkpt>
      <trkpt lat="45.628" lon="6.83508">
        <ele>1610.3454589844</ele>
        <time>2016-05-28T10:06:58Z</time>
      </trkpt>
      <trkpt lat="45.62792" lon="6.83525">
        <ele>1609.8647460938</ele>
        <time>2016-05-28T10:07:00Z</time>
      </trkpt>
      <trkpt lat="45.62762" lon="6.83587">
        <ele>1608.4228515625</ele>
        <time>2016-05-28T10:07:07Z</time>
      </trkpt>
      <trkpt lat="45.62756" lon="6.83595">
        <ele>1607.9423828125</ele>
        <time>2016-05-28T10:07:08Z</time>
      </trkpt>
      <trkpt lat="45.6272" lon="6.83628">
        <ele>1606.5002441406</ele>
        <time>2016-05-28T10:07:13Z</time>
      </trkpt>
      <trkpt lat="45.6268" lon="6.83658">
        <ele>1602.6550292969</ele>
        <time>2016-05-28T10:07:18Z</time>
      </trkpt>
      <trkpt lat="45.62664" lon="6.83672">
        <ele>1601.6938476562</ele>
        <time>2016-05-28T10:07:20Z</time>
      </trkpt>
      <trkpt lat="45.6263" lon="6.83721">
        <ele>1600.251953125</ele>
        <time>2016-05-28T10:07:25Z</time>
      </trkpt>
      <trkpt lat="45.6261" lon="6.8377">
        <ele>1598.8098144531</ele>
        <time>2016-05-28T10:07:29Z</time>
      </trkpt>
      <trkpt lat="45.62581" lon="6.83808">
        <ele>1597.8486328125</ele>
        <time>2016-05-28T10:07:33Z</time>
      </trkpt>
      <trkpt lat="45.62561" lon="6.8384">
        <ele>1594.0031738281</ele>
        <time>2016-05-28T10:07:36Z</time>
      </trkpt>
      <trkpt lat="45.6253" lon="6.83875">
        <ele>1594.0031738281</ele>
        <time>2016-05-28T10:07:40Z</time>
      </trkpt>
      <trkpt lat="45.62501" lon="6.83884">
        <ele>1593.0417480469</ele>
        <time>2016-05-28T10:07:43Z</time>
      </trkpt>
      <trkpt lat="45.6247" lon="6.83882">
        <ele>1588.7160644531</ele>
        <time>2016-05-28T10:07:46Z</time>
      </trkpt>
      <trkpt lat="45.62429" lon="6.83895">
        <ele>1587.2739257812</ele>
        <time>2016-05-28T10:07:50Z</time>
      </trkpt>
      <trkpt lat="45.6239" lon="6.83929">
        <ele>1582.9479980469</ele>
        <time>2016-05-28T10:07:54Z</time>
      </trkpt>
      <trkpt lat="45.62381" lon="6.83941">
        <ele>1582.4675292969</ele>
        <time>2016-05-28T10:07:55Z</time>
      </trkpt>
      <trkpt lat="45.62348" lon="6.83991">
        <ele>1580.544921875</ele>
        <time>2016-05-28T10:07:59Z</time>
      </trkpt>
      <trkpt lat="45.62331" lon="6.84017">
        <ele>1580.544921875</ele>
        <time>2016-05-28T10:08:01Z</time>
      </trkpt>
      <trkpt lat="45.62292" lon="6.84051">
        <ele>1579.1025390625</ele>
        <time>2016-05-28T10:08:05Z</time>
      </trkpt>
      <trkpt lat="45.62238" lon="6.8407">
        <ele>1576.21875</ele>
        <time>2016-05-28T10:08:10Z</time>
      </trkpt>
      <trkpt lat="45.6221" lon="6.84085">
        <ele>1575.2573242188</ele>
        <time>2016-05-28T10:08:13Z</time>
      </trkpt>
      <trkpt lat="45.62183" lon="6.84118">
        <ele>1571.412109375</ele>
        <time>2016-05-28T10:08:17Z</time>
      </trkpt>
      <trkpt lat="45.62167" lon="6.84149">
        <ele>1570.931640625</ele>
        <time>2016-05-28T10:08:20Z</time>
      </trkpt>
      <trkpt lat="45.62154" lon="6.84166">
        <ele>1569.4897460938</ele>
        <time>2016-05-28T10:08:22Z</time>
      </trkpt>
      <trkpt lat="45.62111" lon="6.84213">
        <ele>1569.4897460938</ele>
        <time>2016-05-28T10:08:28Z</time>
      </trkpt>
      <trkpt lat="45.62087" lon="6.84255">
        <ele>1568.0476074219</ele>
        <time>2016-05-28T10:08:32Z</time>
      </trkpt>
      <trkpt lat="45.62065" lon="6.84302">
        <ele>1565.1638183594</ele>
        <time>2016-05-28T10:08:36Z</time>
      </trkpt>
      <trkpt lat="45.62059" lon="6.84314">
        <ele>1565.64453125</ele>
        <time>2016-05-28T10:08:37Z</time>
      </trkpt>
      <trkpt lat="45.62043" lon="6.84352">
        <ele>1563.7214355469</ele>
        <time>2016-05-28T10:08:40Z</time>
      </trkpt>
      <trkpt lat="45.62039" lon="6.84366">
        <ele>1564.2023925781</ele>
        <time>2016-05-28T10:08:41Z</time>
      </trkpt>
      <trkpt lat="45.62013" lon="6.84429">
        <ele>1562.7602539062</ele>
        <time>2016-05-28T10:08:46Z</time>
      </trkpt>
      <trkpt lat="45.61994" lon="6.84463">
        <ele>1561.318359375</ele>
        <time>2016-05-28T10:08:49Z</time>
      </trkpt>
      <trkpt lat="45.61978" lon="6.8451">
        <ele>1556.9924316406</ele>
        <time>2016-05-28T10:08:53Z</time>
      </trkpt>
      <trkpt lat="45.61968" lon="6.84511">
        <ele>1555.0698242188</ele>
        <time>2016-05-28T10:08:55Z</time>
      </trkpt>
      <trkpt lat="45.61965" lon="6.84503">
        <ele>1555.0698242188</ele>
        <time>2016-05-28T10:08:56Z</time>
      </trkpt>
      <trkpt lat="45.61966" lon="6.84487">
        <ele>1554.5891113281</ele>
        <time>2016-05-28T10:08:58Z</time>
      </trkpt>
      <trkpt lat="45.61974" lon="6.84471">
        <ele>1554.1086425781</ele>
        <time>2016-05-28T10:09:00Z</time>
      </trkpt>
      <trkpt lat="45.62012" lon="6.84398">
        <ele>1552.1857910156</ele>
        <time>2016-05-28T10:09:08Z</time>
      </trkpt>
      <trkpt lat="45.62031" lon="6.84341">
        <ele>1553.1472167969</ele>
        <time>2016-05-28T10:09:13Z</time>
      </trkpt>
      <trkpt lat="45.62044" lon="6.84294">
        <ele>1550.2634277344</ele>
        <time>2016-05-28T10:09:17Z</time>
      </trkpt>
      <trkpt lat="45.62047" lon="6.84282">
        <ele>1550.2634277344</ele>
        <time>2016-05-28T10:09:18Z</time>
      </trkpt>
      <trkpt lat="45.62054" lon="6.84259">
        <ele>1551.7053222656</ele>
        <time>2016-05-28T10:09:20Z</time>
      </trkpt>
      <trkpt lat="45.6208" lon="6.84186">
        <ele>1548.3405761719</ele>
        <time>2016-05-28T10:09:26Z</time>
      </trkpt>
      <trkpt lat="45.62089" lon="6.84162">
        <ele>1546.8984375</ele>
        <time>2016-05-28T10:09:28Z</time>
      </trkpt>
      <trkpt lat="45.62124" lon="6.84112">
        <ele>1545.9372558594</ele>
        <time>2016-05-28T10:09:33Z</time>
      </trkpt>
      <trkpt lat="45.6217" lon="6.84048">
        <ele>1544.0146484375</ele>
        <time>2016-05-28T10:09:39Z</time>
      </trkpt>
      <trkpt lat="45.62179" lon="6.84038">
        <ele>1542.5727539062</ele>
        <time>2016-05-28T10:09:40Z</time>
      </trkpt>
      <trkpt lat="45.62187" lon="6.84027">
        <ele>1542.5727539062</ele>
        <time>2016-05-28T10:09:41Z</time>
      </trkpt>
      <trkpt lat="45.62213" lon="6.83994">
        <ele>1540.1694335938</ele>
        <time>2016-05-28T10:09:44Z</time>
      </trkpt>
      <trkpt lat="45.62246" lon="6.83947">
        <ele>1534.8823242188</ele>
        <time>2016-05-28T10:09:48Z</time>
      </trkpt>
      <trkpt lat="45.62254" lon="6.83934">
        <ele>1534.8823242188</ele>
        <time>2016-05-28T10:09:49Z</time>
      </trkpt>
      <trkpt lat="45.62278" lon="6.83878">
        <ele>1531.998046875</ele>
        <time>2016-05-28T10:09:53Z</time>
      </trkpt>
      <trkpt lat="45.62291" lon="6.83835">
        <ele>1530.5561523438</ele>
        <time>2016-05-28T10:09:56Z</time>
      </trkpt>
      <trkpt lat="45.6232" lon="6.83796">
        <ele>1530.0754394531</ele>
        <time>2016-05-28T10:10:00Z</time>
      </trkpt>
      <trkpt lat="45.62329" lon="6.8379">
        <ele>1529.5947265625</ele>
        <time>2016-05-28T10:10:01Z</time>
      </trkpt>
      <trkpt lat="45.62348" lon="6.83781">
        <ele>1528.1528320312</ele>
        <time>2016-05-28T10:10:03Z</time>
      </trkpt>
      <trkpt lat="45.62365" lon="6.83768">
        <ele>1526.2302246094</ele>
        <time>2016-05-28T10:10:05Z</time>
      </trkpt>
      <trkpt lat="45.62376" lon="6.83745">
        <ele>1526.2302246094</ele>
        <time>2016-05-28T10:10:07Z</time>
      </trkpt>
      <trkpt lat="45.62392" lon="6.83712">
        <ele>1524.7883300781</ele>
        <time>2016-05-28T10:10:10Z</time>
      </trkpt>
      <trkpt lat="45.62415" lon="6.83686">
        <ele>1522.8657226562</ele>
        <time>2016-05-28T10:10:13Z</time>
      </trkpt>
      <trkpt lat="45.62425" lon="6.83647">
        <ele>1521.904296875</ele>
        <time>2016-05-28T10:10:16Z</time>
      </trkpt>
      <trkpt lat="45.62429" lon="6.83619">
        <ele>1520.9431152344</ele>
        <time>2016-05-28T10:10:18Z</time>
      </trkpt>
      <trkpt lat="45.62444" lon="6.83585">
        <ele>1518.5397949219</ele>
        <time>2016-05-28T10:10:21Z</time>
      </trkpt>
      <trkpt lat="45.62452" lon="6.83577">
        <ele>1516.6171875</ele>
        <time>2016-05-28T10:10:22Z</time>
      </trkpt>
      <trkpt lat="45.62536" lon="6.83508">
        <ele>1513.2524414062</ele>
        <time>2016-05-28T10:10:32Z</time>
      </trkpt>
      <trkpt lat="45.62544" lon="6.835">
        <ele>1513.2524414062</ele>
        <time>2016-05-28T10:10:33Z</time>
      </trkpt>
      <trkpt lat="45.62552" lon="6.83493">
        <ele>1512.7717285156</ele>
        <time>2016-05-28T10:10:34Z</time>
      </trkpt>
      <trkpt lat="45.62566" lon="6.83474">
        <ele>1511.810546875</ele>
        <time>2016-05-28T10:10:36Z</time>
      </trkpt>
      <trkpt lat="45.62574" lon="6.83449">
        <ele>1511.810546875</ele>
        <time>2016-05-28T10:10:38Z</time>
      </trkpt>
      <trkpt lat="45.62582" lon="6.83396">
        <ele>1509.4072265625</ele>
        <time>2016-05-28T10:10:42Z</time>
      </trkpt>
      <trkpt lat="45.62595" lon="6.83361">
        <ele>1507.9653320312</ele>
        <time>2016-05-28T10:10:45Z</time>
      </trkpt>
      <trkpt lat="45.62602" lon="6.83353">
        <ele>1507.00390625</ele>
        <time>2016-05-28T10:10:46Z</time>
      </trkpt>
      <trkpt lat="45.62618" lon="6.83338">
        <ele>1506.0424804688</ele>
        <time>2016-05-28T10:10:48Z</time>
      </trkpt>
      <trkpt lat="45.62639" lon="6.83309">
        <ele>1504.1201171875</ele>
        <time>2016-05-28T10:10:51Z</time>
      </trkpt>
      <trkpt lat="45.62647" lon="6.83283">
        <ele>1504.6005859375</ele>
        <time>2016-05-28T10:10:53Z</time>
      </trkpt>
      <trkpt lat="45.62664" lon="6.83233">
        <ele>1499.7939453125</ele>
        <time>2016-05-28T10:10:57Z</time>
      </trkpt>
      <trkpt lat="45.62669" lon="6.83221">
        <ele>1500.7553710938</ele>
        <time>2016-05-28T10:10:58Z</time>
      </trkpt>
      <trkpt lat="45.62679" lon="6.83196">
        <ele>1500.2749023438</ele>
        <time>2016-05-28T10:11:00Z</time>
      </trkpt>
      <trkpt lat="45.62689" lon="6.83155">
        <ele>1498.3518066406</ele>
        <time>2016-05-28T10:11:03Z</time>
      </trkpt>
      <trkpt lat="45.6269" lon="6.83141">
        <ele>1497.8713378906</ele>
        <time>2016-05-28T10:11:04Z</time>
      </trkpt>
      <trkpt lat="45.62693" lon="6.83111">
        <ele>1496.9099121094</ele>
        <time>2016-05-28T10:11:06Z</time>
      </trkpt>
      <trkpt lat="45.62703" lon="6.83069">
        <ele>1496.4294433594</ele>
        <time>2016-05-28T10:11:09Z</time>
      </trkpt>
      <trkpt lat="45.62709" lon="6.83027">
        <ele>1494.5065917969</ele>
        <time>2016-05-28T10:11:12Z</time>
      </trkpt>
      <trkpt lat="45.62703" lon="6.82999">
        <ele>1493.0646972656</ele>
        <time>2016-05-28T10:11:14Z</time>
      </trkpt>
      <trkpt lat="45.62684" lon="6.82948">
        <ele>1490.6613769531</ele>
        <time>2016-05-28T10:11:18Z</time>
      </trkpt>
      <trkpt lat="45.62651" lon="6.82861">
        <ele>1487.7775878906</ele>
        <time>2016-05-28T10:11:25Z</time>
      </trkpt>
      <trkpt lat="45.62641" lon="6.82836">
        <ele>1486.8161621094</ele>
        <time>2016-05-28T10:11:27Z</time>
      </trkpt>
      <trkpt lat="45.62639" lon="6.82794">
        <ele>1484.8937988281</ele>
        <time>2016-05-28T10:11:30Z</time>
      </trkpt>
      <trkpt lat="45.62653" lon="6.82777">
        <ele>1484.4130859375</ele>
        <time>2016-05-28T10:11:32Z</time>
      </trkpt>
      <trkpt lat="45.6267" lon="6.82769">
        <ele>1482.490234375</ele>
        <time>2016-05-28T10:11:34Z</time>
      </trkpt>
      <trkpt lat="45.62698" lon="6.8276">
        <ele>1482.490234375</ele>
        <time>2016-05-28T10:11:37Z</time>
      </trkpt>
      <trkpt lat="45.62729" lon="6.82727">
        <ele>1482.0095214844</ele>
        <time>2016-05-28T10:11:41Z</time>
      </trkpt>
      <trkpt lat="45.6275" lon="6.82698">
        <ele>1480.5676269531</ele>
        <time>2016-05-28T10:11:44Z</time>
      </trkpt>
      <trkpt lat="45.62771" lon="6.82697">
        <ele>1479.6062011719</ele>
        <time>2016-05-28T10:11:46Z</time>
      </trkpt>
      <trkpt lat="45.628" lon="6.82709">
        <ele>1475.7609863281</ele>
        <time>2016-05-28T10:11:49Z</time>
      </trkpt>
      <trkpt lat="45.6282" lon="6.827">
        <ele>1473.8383789062</ele>
        <time>2016-05-28T10:11:52Z</time>
      </trkpt>
      <trkpt lat="45.62819" lon="6.82679">
        <ele>1474.3190917969</ele>
        <time>2016-05-28T10:11:54Z</time>
      </trkpt>
      <trkpt lat="45.62805" lon="6.82669">
        <ele>1474.3190917969</ele>
        <time>2016-05-28T10:11:56Z</time>
      </trkpt>
      <trkpt lat="45.62797" lon="6.82669">
        <ele>1473.8383789062</ele>
        <time>2016-05-28T10:11:57Z</time>
      </trkpt>
      <trkpt lat="45.62766" lon="6.82667">
        <ele>1470.9545898438</ele>
        <time>2016-05-28T10:12:01Z</time>
      </trkpt>
      <trkpt lat="45.6275" lon="6.82664">
        <ele>1470.4738769531</ele>
        <time>2016-05-28T10:12:03Z</time>
      </trkpt>
      <trkpt lat="45.62716" lon="6.82675">
        <ele>1469.9931640625</ele>
        <time>2016-05-28T10:12:07Z</time>
      </trkpt>
      <trkpt lat="45.627" lon="6.82685">
        <ele>1467.1091308594</ele>
        <time>2016-05-28T10:12:09Z</time>
      </trkpt>
      <trkpt lat="45.62673" lon="6.82693">
        <ele>1465.1865234375</ele>
        <time>2016-05-28T10:12:12Z</time>
      </trkpt>
      <trkpt lat="45.62664" lon="6.82694">
        <ele>1465.6672363281</ele>
        <time>2016-05-28T10:12:13Z</time>
      </trkpt>
      <trkpt lat="45.62636" lon="6.82697">
        <ele>1463.7443847656</ele>
        <time>2016-05-28T10:12:16Z</time>
      </trkpt>
      <trkpt lat="45.62591" lon="6.82724">
        <ele>1463.7443847656</ele>
        <time>2016-05-28T10:12:21Z</time>
      </trkpt>
      <trkpt lat="45.6257" lon="6.82752">
        <ele>1462.783203125</ele>
        <time>2016-05-28T10:12:24Z</time>
      </trkpt>
      <trkpt lat="45.62564" lon="6.82781">
        <ele>1461.3413085938</ele>
        <time>2016-05-28T10:12:26Z</time>
      </trkpt>
      <trkpt lat="45.62564" lon="6.82826">
        <ele>1459.8991699219</ele>
        <time>2016-05-28T10:12:29Z</time>
      </trkpt>
      <trkpt lat="45.62575" lon="6.82888">
        <ele>1458.9379882812</ele>
        <time>2016-05-28T10:12:33Z</time>
      </trkpt>
      <trkpt lat="45.62571" lon="6.82919">
        <ele>1458.4572753906</ele>
        <time>2016-05-28T10:12:35Z</time>
      </trkpt>
      <trkpt lat="45.62565" lon="6.82951">
        <ele>1457.0153808594</ele>
        <time>2016-05-28T10:12:37Z</time>
      </trkpt>
      <trkpt lat="45.62562" lon="6.82999">
        <ele>1453.6508789062</ele>
        <time>2016-05-28T10:12:40Z</time>
      </trkpt>
      <trkpt lat="45.62563" lon="6.83015">
        <ele>1453.6508789062</ele>
        <time>2016-05-28T10:12:41Z</time>
      </trkpt>
      <trkpt lat="45.62572" lon="6.83095">
        <ele>1450.2861328125</ele>
        <time>2016-05-28T10:12:46Z</time>
      </trkpt>
      <trkpt lat="45.62573" lon="6.83111">
        <ele>1449.8054199219</ele>
        <time>2016-05-28T10:12:47Z</time>
      </trkpt>
      <trkpt lat="45.62564" lon="6.83156">
        <ele>1446.9213867188</ele>
        <time>2016-05-28T10:12:50Z</time>
      </trkpt>
      <trkpt lat="45.62547" lon="6.83177">
        <ele>1445.4794921875</ele>
        <time>2016-05-28T10:12:52Z</time>
      </trkpt>
      <trkpt lat="45.62521" lon="6.83198">
        <ele>1443.076171875</ele>
        <time>2016-05-28T10:12:55Z</time>
      </trkpt>
      <trkpt lat="45.6251" lon="6.83195">
        <ele>1442.1149902344</ele>
        <time>2016-05-28T10:12:57Z</time>
      </trkpt>
      <trkpt lat="45.62507" lon="6.83178">
        <ele>1441.6342773438</ele>
        <time>2016-05-28T10:12:59Z</time>
      </trkpt>
      <trkpt lat="45.62516" lon="6.83165">
        <ele>1440.6728515625</ele>
        <time>2016-05-28T10:13:01Z</time>
      </trkpt>
      <trkpt lat="45.62523" lon="6.83161">
        <ele>1440.6728515625</ele>
        <time>2016-05-28T10:13:02Z</time>
      </trkpt>
      <trkpt lat="45.62537" lon="6.83153">
        <ele>1439.7116699219</ele>
        <time>2016-05-28T10:13:04Z</time>
      </trkpt>
      <trkpt lat="45.62555" lon="6.83117">
        <ele>1439.7116699219</ele>
        <time>2016-05-28T10:13:08Z</time>
      </trkpt>
      <trkpt lat="45.62551" lon="6.8308">
        <ele>1438.2697753906</ele>
        <time>2016-05-28T10:13:11Z</time>
      </trkpt>
      <trkpt lat="45.62542" lon="6.83055">
        <ele>1438.2697753906</ele>
        <time>2016-05-28T10:13:13Z</time>
      </trkpt>
      <trkpt lat="45.6253" lon="6.83033">
        <ele>1438.7504882812</ele>
        <time>2016-05-28T10:13:15Z</time>
      </trkpt>
      <trkpt lat="45.62508" lon="6.82973">
        <ele>1435.3854980469</ele>
        <time>2016-05-28T10:13:20Z</time>
      </trkpt>
      <trkpt lat="45.62508" lon="6.82929">
        <ele>1432.9821777344</ele>
        <time>2016-05-28T10:13:23Z</time>
      </trkpt>
      <trkpt lat="45.62509" lon="6.82914">
        <ele>1434.4243164062</ele>
        <time>2016-05-28T10:13:24Z</time>
      </trkpt>
      <trkpt lat="45.62515" lon="6.8287">
        <ele>1432.9821777344</ele>
        <time>2016-05-28T10:13:27Z</time>
      </trkpt>
      <trkpt lat="45.62519" lon="6.82825">
        <ele>1431.5402832031</ele>
        <time>2016-05-28T10:13:30Z</time>
      </trkpt>
      <trkpt lat="45.62518" lon="6.8281">
        <ele>1430.0983886719</ele>
        <time>2016-05-28T10:13:31Z</time>
      </trkpt>
      <trkpt lat="45.62504" lon="6.82753">
        <ele>1428.17578125</ele>
        <time>2016-05-28T10:13:35Z</time>
      </trkpt>
      <trkpt lat="45.62497" lon="6.82741">
        <ele>1428.17578125</ele>
        <time>2016-05-28T10:13:36Z</time>
      </trkpt>
      <trkpt lat="45.62482" lon="6.82687">
        <ele>1426.7338867188</ele>
        <time>2016-05-28T10:13:40Z</time>
      </trkpt>
      <trkpt lat="45.62491" lon="6.82659">
        <ele>1423.8498535156</ele>
        <time>2016-05-28T10:13:42Z</time>
      </trkpt>
      <trkpt lat="45.62528" lon="6.82582">
        <ele>1420.0046386719</ele>
        <time>2016-05-28T10:13:48Z</time>
      </trkpt>
      <trkpt lat="45.62558" lon="6.8254">
        <ele>1418.5625</ele>
        <time>2016-05-28T10:13:52Z</time>
      </trkpt>
      <trkpt lat="45.62584" lon="6.82512">
        <ele>1413.755859375</ele>
        <time>2016-05-28T10:13:55Z</time>
      </trkpt>
      <trkpt lat="45.62635" lon="6.82475">
        <ele>1412.7946777344</ele>
        <time>2016-05-28T10:14:00Z</time>
      </trkpt>
      <trkpt lat="45.62679" lon="6.82445">
        <ele>1410.8720703125</ele>
        <time>2016-05-28T10:14:04Z</time>
      </trkpt>
      <trkpt lat="45.62714" lon="6.82436">
        <ele>1407.5075683594</ele>
        <time>2016-05-28T10:14:07Z</time>
      </trkpt>
      <trkpt lat="45.62726" lon="6.82436">
        <ele>1406.5461425781</ele>
        <time>2016-05-28T10:14:08Z</time>
      </trkpt>
      <trkpt lat="45.62773" lon="6.8242">
        <ele>1403.1813964844</ele>
        <time>2016-05-28T10:14:12Z</time>
      </trkpt>
      <trkpt lat="45.62784" lon="6.82414">
        <ele>1402.7006835938</ele>
        <time>2016-05-28T10:14:13Z</time>
      </trkpt>
      <trkpt lat="45.62842" lon="6.82391">
        <ele>1399.8168945312</ele>
        <time>2016-05-28T10:14:18Z</time>
      </trkpt>
      <trkpt lat="45.62878" lon="6.82381">
        <ele>1397.4135742188</ele>
        <time>2016-05-28T10:14:21Z</time>
      </trkpt>
      <trkpt lat="45.62898" lon="6.82364">
        <ele>1396.4523925781</ele>
        <time>2016-05-28T10:14:23Z</time>
      </trkpt>
      <trkpt lat="45.6291" lon="6.82335">
        <ele>1394.0490722656</ele>
        <time>2016-05-28T10:14:25Z</time>
      </trkpt>
      <trkpt lat="45.62916" lon="6.82321">
        <ele>1393.568359375</ele>
        <time>2016-05-28T10:14:26Z</time>
      </trkpt>
      <trkpt lat="45.62941" lon="6.82287">
        <ele>1391.1650390625</ele>
        <time>2016-05-28T10:14:29Z</time>
      </trkpt>
      <trkpt lat="45.62961" lon="6.82284">
        <ele>1389.7231445312</ele>
        <time>2016-05-28T10:14:31Z</time>
      </trkpt>
      <trkpt lat="45.62976" lon="6.82277">
        <ele>1386.8388671875</ele>
        <time>2016-05-28T10:14:33Z</time>
      </trkpt>
      <trkpt lat="45.62975" lon="6.82257">
        <ele>1386.3583984375</ele>
        <time>2016-05-28T10:14:35Z</time>
      </trkpt>
      <trkpt lat="45.62958" lon="6.82249">
        <ele>1385.8776855469</ele>
        <time>2016-05-28T10:14:37Z</time>
      </trkpt>
      <trkpt lat="45.62934" lon="6.82259">
        <ele>1385.8776855469</ele>
        <time>2016-05-28T10:14:40Z</time>
      </trkpt>
      <trkpt lat="45.62911" lon="6.8228">
        <ele>1384.4357910156</ele>
        <time>2016-05-28T10:14:43Z</time>
      </trkpt>
      <trkpt lat="45.62898" lon="6.82301">
        <ele>1384.4357910156</ele>
        <time>2016-05-28T10:14:45Z</time>
      </trkpt>
      <trkpt lat="45.62885" lon="6.82323">
        <ele>1383.955078125</ele>
        <time>2016-05-28T10:14:47Z</time>
      </trkpt>
      <trkpt lat="45.62859" lon="6.82348">
        <ele>1381.0712890625</ele>
        <time>2016-05-28T10:14:50Z</time>
      </trkpt>
      <trkpt lat="45.62849" lon="6.82352">
        <ele>1381.5517578125</ele>
        <time>2016-05-28T10:14:51Z</time>
      </trkpt>
      <trkpt lat="45.62838" lon="6.82352">
        <ele>1380.1098632812</ele>
        <time>2016-05-28T10:14:52Z</time>
      </trkpt>
      <trkpt lat="45.62817" lon="6.82355">
        <ele>1379.1484375</ele>
        <time>2016-05-28T10:14:54Z</time>
      </trkpt>
      <trkpt lat="45.62774" lon="6.82362">
        <ele>1377.7065429688</ele>
        <time>2016-05-28T10:14:58Z</time>
      </trkpt>
      <trkpt lat="45.62709" lon="6.82357">
        <ele>1372.9001464844</ele>
        <time>2016-05-28T10:15:04Z</time>
      </trkpt>
      <trkpt lat="45.62677" lon="6.82366">
        <ele>1372.4194335938</ele>
        <time>2016-05-28T10:15:07Z</time>
      </trkpt>
      <trkpt lat="45.62645" lon="6.82355">
        <ele>1370.0158691406</ele>
        <time>2016-05-28T10:15:10Z</time>
      </trkpt>
      <trkpt lat="45.62635" lon="6.82348">
        <ele>1370.0158691406</ele>
        <time>2016-05-28T10:15:11Z</time>
      </trkpt>
      <trkpt lat="45.62602" lon="6.82348">
        <ele>1367.6125488281</ele>
        <time>2016-05-28T10:15:14Z</time>
      </trkpt>
      <trkpt lat="45.62592" lon="6.82355">
        <ele>1367.6125488281</ele>
        <time>2016-05-28T10:15:15Z</time>
      </trkpt>
      <trkpt lat="45.62549" lon="6.82371">
        <ele>1363.7673339844</ele>
        <time>2016-05-28T10:15:19Z</time>
      </trkpt>
      <trkpt lat="45.62527" lon="6.82379">
        <ele>1362.8061523438</ele>
        <time>2016-05-28T10:15:21Z</time>
      </trkpt>
      <trkpt lat="45.62495" lon="6.82393">
        <ele>1360.8835449219</ele>
        <time>2016-05-28T10:15:24Z</time>
      </trkpt>
      <trkpt lat="45.62454" lon="6.82384">
        <ele>1356.5576171875</ele>
        <time>2016-05-28T10:15:28Z</time>
      </trkpt>
      <trkpt lat="45.62428" lon="6.82394">
        <ele>1357.0383300781</ele>
        <time>2016-05-28T10:15:31Z</time>
      </trkpt>
      <trkpt lat="45.62422" lon="6.82404">
        <ele>1356.0769042969</ele>
        <time>2016-05-28T10:15:32Z</time>
      </trkpt>
      <trkpt lat="45.624" lon="6.82436">
        <ele>1355.1154785156</ele>
        <time>2016-05-28T10:15:35Z</time>
      </trkpt>
      <trkpt lat="45.62374" lon="6.82461">
        <ele>1353.1928710938</ele>
        <time>2016-05-28T10:15:38Z</time>
      </trkpt>
      <trkpt lat="45.62366" lon="6.82469">
        <ele>1352.2314453125</ele>
        <time>2016-05-28T10:15:39Z</time>
      </trkpt>
      <trkpt lat="45.62336" lon="6.82513">
        <ele>1348.3862304688</ele>
        <time>2016-05-28T10:15:43Z</time>
      </trkpt>
      <trkpt lat="45.62314" lon="6.82565">
        <ele>1346.9443359375</ele>
        <time>2016-05-28T10:15:47Z</time>
      </trkpt>
      <trkpt lat="45.62307" lon="6.82626">
        <ele>1344.541015625</ele>
        <time>2016-05-28T10:15:51Z</time>
      </trkpt>
      <trkpt lat="45.62309" lon="6.82641">
        <ele>1345.0217285156</ele>
        <time>2016-05-28T10:15:52Z</time>
      </trkpt>
      <trkpt lat="45.62314" lon="6.82721">
        <ele>1342.6186523438</ele>
        <time>2016-05-28T10:15:57Z</time>
      </trkpt>
      <trkpt lat="45.62303" lon="6.82782">
        <ele>1337.3310546875</ele>
        <time>2016-05-28T10:16:01Z</time>
      </trkpt>
      <trkpt lat="45.62294" lon="6.8282">
        <ele>1333.9665527344</ele>
        <time>2016-05-28T10:16:04Z</time>
      </trkpt>
      <trkpt lat="45.62282" lon="6.82835">
        <ele>1331.5632324219</ele>
        <time>2016-05-28T10:16:07Z</time>
      </trkpt>
      <trkpt lat="45.62276" lon="6.82822">
        <ele>1330.1213378906</ele>
        <time>2016-05-28T10:16:09Z</time>
      </trkpt>
      <trkpt lat="45.62283" lon="6.82797">
        <ele>1330.1213378906</ele>
        <time>2016-05-28T10:16:12Z</time>
      </trkpt>
      <trkpt lat="45.62297" lon="6.82763">
        <ele>1329.640625</ele>
        <time>2016-05-28T10:16:16Z</time>
      </trkpt>
      <trkpt lat="45.62304" lon="6.82722">
        <ele>1328.6794433594</ele>
        <time>2016-05-28T10:16:20Z</time>
      </trkpt>
      <trkpt lat="45.62299" lon="6.82676">
        <ele>1328.1987304688</ele>
        <time>2016-05-28T10:16:24Z</time>
      </trkpt>
      <trkpt lat="45.62295" lon="6.82665">
        <ele>1328.1987304688</ele>
        <time>2016-05-28T10:16:25Z</time>
      </trkpt>
      <trkpt lat="45.62284" lon="6.82633">
        <ele>1328.1987304688</ele>
        <time>2016-05-28T10:16:28Z</time>
      </trkpt>
      <trkpt lat="45.62278" lon="6.82582">
        <ele>1326.2761230469</ele>
        <time>2016-05-28T10:16:32Z</time>
      </trkpt>
      <trkpt lat="45.6228" lon="6.82569">
        <ele>1326.2761230469</ele>
        <time>2016-05-28T10:16:33Z</time>
      </trkpt>
      <trkpt lat="45.62301" lon="6.82491">
        <ele>1324.353515625</ele>
        <time>2016-05-28T10:16:39Z</time>
      </trkpt>
      <trkpt lat="45.62315" lon="6.82453">
        <ele>1322.4306640625</ele>
        <time>2016-05-28T10:16:42Z</time>
      </trkpt>
      <trkpt lat="45.62343" lon="6.8239">
        <ele>1317.6240234375</ele>
        <time>2016-05-28T10:16:47Z</time>
      </trkpt>
      <trkpt lat="45.6235" lon="6.82378">
        <ele>1317.6240234375</ele>
        <time>2016-05-28T10:16:48Z</time>
      </trkpt>
      <trkpt lat="45.62372" lon="6.82325">
        <ele>1314.740234375</ele>
        <time>2016-05-28T10:16:52Z</time>
      </trkpt>
      <trkpt lat="45.62401" lon="6.82278">
        <ele>1311.8564453125</ele>
        <time>2016-05-28T10:16:56Z</time>
      </trkpt>
      <trkpt lat="45.62425" lon="6.82247">
        <ele>1310.4143066406</ele>
        <time>2016-05-28T10:16:59Z</time>
      </trkpt>
      <trkpt lat="45.62466" lon="6.82221">
        <ele>1307.5302734375</ele>
        <time>2016-05-28T10:17:03Z</time>
      </trkpt>
      <trkpt lat="45.62478" lon="6.82219">
        <ele>1307.5302734375</ele>
        <time>2016-05-28T10:17:04Z</time>
      </trkpt>
      <trkpt lat="45.62521" lon="6.82202">
        <ele>1304.6462402344</ele>
        <time>2016-05-28T10:17:08Z</time>
      </trkpt>
      <trkpt lat="45.62542" lon="6.8219">
        <ele>1303.2043457031</ele>
        <time>2016-05-28T10:17:10Z</time>
      </trkpt>
      <trkpt lat="45.62553" lon="6.82185">
        <ele>1302.7236328125</ele>
        <time>2016-05-28T10:17:11Z</time>
      </trkpt>
      <trkpt lat="45.62599" lon="6.82182">
        <ele>1301.2817382812</ele>
        <time>2016-05-28T10:17:15Z</time>
      </trkpt>
      <trkpt lat="45.62622" lon="6.8218">
        <ele>1299.83984375</ele>
        <time>2016-05-28T10:17:17Z</time>
      </trkpt>
      <trkpt lat="45.62644" lon="6.82171">
        <ele>1298.3977050781</ele>
        <time>2016-05-28T10:17:19Z</time>
      </trkpt>
      <trkpt lat="45.62676" lon="6.82152">
        <ele>1295.033203125</ele>
        <time>2016-05-28T10:17:22Z</time>
      </trkpt>
      <trkpt lat="45.62709" lon="6.8211">
        <ele>1292.6301269531</ele>
        <time>2016-05-28T10:17:26Z</time>
      </trkpt>
      <trkpt lat="45.62732" lon="6.8208">
        <ele>1290.70703125</ele>
        <time>2016-05-28T10:17:29Z</time>
      </trkpt>
      <trkpt lat="45.62742" lon="6.82075">
        <ele>1289.7458496094</ele>
        <time>2016-05-28T10:17:30Z</time>
      </trkpt>
      <trkpt lat="45.62817" lon="6.82045">
        <ele>1287.3425292969</ele>
        <time>2016-05-28T10:17:37Z</time>
      </trkpt>
      <trkpt lat="45.6286" lon="6.8203">
        <ele>1282.0554199219</ele>
        <time>2016-05-28T10:17:41Z</time>
      </trkpt>
      <trkpt lat="45.62868" lon="6.82025">
        <ele>1281.0942382812</ele>
        <time>2016-05-28T10:17:42Z</time>
      </trkpt>
      <trkpt lat="45.6288" lon="6.82002">
        <ele>1277.7294921875</ele>
        <time>2016-05-28T10:17:45Z</time>
      </trkpt>
      <trkpt lat="45.62874" lon="6.81996">
        <ele>1277.2490234375</ele>
        <time>2016-05-28T10:17:46Z</time>
      </trkpt>
      <trkpt lat="45.62859" lon="6.81997">
        <ele>1276.2875976562</ele>
        <time>2016-05-28T10:17:48Z</time>
      </trkpt>
      <trkpt lat="45.62852" lon="6.82002">
        <ele>1275.806640625</ele>
        <time>2016-05-28T10:17:49Z</time>
      </trkpt>
      <trkpt lat="45.62822" lon="6.8202">
        <ele>1274.3647460938</ele>
        <time>2016-05-28T10:17:53Z</time>
      </trkpt>
      <trkpt lat="45.62814" lon="6.82023">
        <ele>1274.8454589844</ele>
        <time>2016-05-28T10:17:54Z</time>
      </trkpt>
      <trkpt lat="45.62762" lon="6.82032">
        <ele>1272.4421386719</ele>
        <time>2016-05-28T10:18:00Z</time>
      </trkpt>
      <trkpt lat="45.62726" lon="6.82026">
        <ele>1272.4421386719</ele>
        <time>2016-05-28T10:18:04Z</time>
      </trkpt>
      <trkpt lat="45.62688" lon="6.82029">
        <ele>1271.9614257812</ele>
        <time>2016-05-28T10:18:08Z</time>
      </trkpt>
      <trkpt lat="45.62673" lon="6.82046">
        <ele>1269.5583496094</ele>
        <time>2016-05-28T10:18:10Z</time>
      </trkpt>
      <trkpt lat="45.62641" lon="6.82077">
        <ele>1266.6743164062</ele>
        <time>2016-05-28T10:18:14Z</time>
      </trkpt>
      <trkpt lat="45.62595" lon="6.82093">
        <ele>1266.1936035156</ele>
        <time>2016-05-28T10:18:19Z</time>
      </trkpt>
      <trkpt lat="45.62559" lon="6.82097">
        <ele>1264.2709960938</ele>
        <time>2016-05-28T10:18:23Z</time>
      </trkpt>
      <trkpt lat="45.62523" lon="6.82102">
        <ele>1261.8679199219</ele>
        <time>2016-05-28T10:18:27Z</time>
      </trkpt>
      <trkpt lat="45.62496" lon="6.82107">
        <ele>1259.9448242188</ele>
        <time>2016-05-28T10:18:30Z</time>
      </trkpt>
      <trkpt lat="45.62457" lon="6.8211">
        <ele>1258.0224609375</ele>
        <time>2016-05-28T10:18:34Z</time>
      </trkpt>
      <trkpt lat="45.62427" lon="6.82115">
        <ele>1256.099609375</ele>
        <time>2016-05-28T10:18:37Z</time>
      </trkpt>
      <trkpt lat="45.62408" lon="6.82124">
        <ele>1255.1384277344</ele>
        <time>2016-05-28T10:18:39Z</time>
      </trkpt>
      <trkpt lat="45.62345" lon="6.82165">
        <ele>1251.2932128906</ele>
        <time>2016-05-28T10:18:46Z</time>
      </trkpt>
      <trkpt lat="45.62311" lon="6.82199">
        <ele>1249.3706054688</ele>
        <time>2016-05-28T10:18:50Z</time>
      </trkpt>
      <trkpt lat="45.62266" lon="6.82241">
        <ele>1246.9672851562</ele>
        <time>2016-05-28T10:18:55Z</time>
      </trkpt>
      <trkpt lat="45.6221" lon="6.82284">
        <ele>1244.0834960938</ele>
        <time>2016-05-28T10:19:01Z</time>
      </trkpt>
      <trkpt lat="45.62169" lon="6.82332">
        <ele>1242.1606445312</ele>
        <time>2016-05-28T10:19:06Z</time>
      </trkpt>
      <trkpt lat="45.62137" lon="6.82371">
        <ele>1238.3154296875</ele>
        <time>2016-05-28T10:19:10Z</time>
      </trkpt>
      <trkpt lat="45.62112" lon="6.824">
        <ele>1236.3928222656</ele>
        <time>2016-05-28T10:19:13Z</time>
      </trkpt>
      <trkpt lat="45.62093" lon="6.82435">
        <ele>1234.4702148438</ele>
        <time>2016-05-28T10:19:16Z</time>
      </trkpt>
      <trkpt lat="45.62088" lon="6.82448">
        <ele>1234.4702148438</ele>
        <time>2016-05-28T10:19:17Z</time>
      </trkpt>
      <trkpt lat="45.62074" lon="6.82489">
        <ele>1233.5087890625</ele>
        <time>2016-05-28T10:19:20Z</time>
      </trkpt>
      <trkpt lat="45.62052" lon="6.82537">
        <ele>1229.6635742188</ele>
        <time>2016-05-28T10:19:24Z</time>
      </trkpt>
      <trkpt lat="45.62036" lon="6.82549">
        <ele>1228.2216796875</ele>
        <time>2016-05-28T10:19:27Z</time>
      </trkpt>
      <trkpt lat="45.62034" lon="6.82532">
        <ele>1227.7407226562</ele>
        <time>2016-05-28T10:19:29Z</time>
      </trkpt>
      <trkpt lat="45.62046" lon="6.82513">
        <ele>1227.2602539062</ele>
        <time>2016-05-28T10:19:32Z</time>
      </trkpt>
      <trkpt lat="45.6205" lon="6.82507">
        <ele>1226.7795410156</ele>
        <time>2016-05-28T10:19:33Z</time>
      </trkpt>
      <trkpt lat="45.62067" lon="6.82471">
        <ele>1226.298828125</ele>
        <time>2016-05-28T10:19:38Z</time>
      </trkpt>
      <trkpt lat="45.62081" lon="6.82422">
        <ele>1224.8569335938</ele>
        <time>2016-05-28T10:19:44Z</time>
      </trkpt>
      <trkpt lat="45.621" lon="6.82373">
        <ele>1221.9729003906</ele>
        <time>2016-05-28T10:19:49Z</time>
      </trkpt>
      <trkpt lat="45.62122" lon="6.82317">
        <ele>1220.0502929688</ele>
        <time>2016-05-28T10:19:54Z</time>
      </trkpt>
      <trkpt lat="45.62153" lon="6.82283">
        <ele>1216.6857910156</ele>
        <time>2016-05-28T10:19:58Z</time>
      </trkpt>
      <trkpt lat="45.62184" lon="6.82243">
        <ele>1215.2438964844</ele>
        <time>2016-05-28T10:20:02Z</time>
      </trkpt>
      <trkpt lat="45.62194" lon="6.82216">
        <ele>1213.3212890625</ele>
        <time>2016-05-28T10:20:04Z</time>
      </trkpt>
      <trkpt lat="45.6221" lon="6.82161">
        <ele>1209.9562988281</ele>
        <time>2016-05-28T10:20:08Z</time>
      </trkpt>
      <trkpt lat="45.62243" lon="6.82105">
        <ele>1208.0339355469</ele>
        <time>2016-05-28T10:20:13Z</time>
      </trkpt>
      <trkpt lat="45.62262" lon="6.82093">
        <ele>1205.6306152344</ele>
        <time>2016-05-28T10:20:15Z</time>
      </trkpt>
      <trkpt lat="45.623" lon="6.82071">
        <ele>1206.1110839844</ele>
        <time>2016-05-28T10:20:19Z</time>
      </trkpt>
      <trkpt lat="45.62326" lon="6.82028">
        <ele>1203.7080078125</ele>
        <time>2016-05-28T10:20:23Z</time>
      </trkpt>
      <trkpt lat="45.62358" lon="6.81971">
        <ele>1201.7854003906</ele>
        <time>2016-05-28T10:20:28Z</time>
      </trkpt>
      <trkpt lat="45.62383" lon="6.81944">
        <ele>1198.9013671875</ele>
        <time>2016-05-28T10:20:31Z</time>
      </trkpt>
      <trkpt lat="45.62429" lon="6.81909">
        <ele>1195.5366210938</ele>
        <time>2016-05-28T10:20:36Z</time>
      </trkpt>
      <trkpt lat="45.62476" lon="6.81874">
        <ele>1192.1721191406</ele>
        <time>2016-05-28T10:20:41Z</time>
      </trkpt>
      <trkpt lat="45.62485" lon="6.81866">
        <ele>1191.69140625</ele>
        <time>2016-05-28T10:20:42Z</time>
      </trkpt>
      <trkpt lat="45.62522" lon="6.81833">
        <ele>1189.7687988281</ele>
        <time>2016-05-28T10:20:46Z</time>
      </trkpt>
      <trkpt lat="45.62565" lon="6.81816">
        <ele>1188.8076171875</ele>
        <time>2016-05-28T10:20:50Z</time>
      </trkpt>
      <trkpt lat="45.62605" lon="6.81794">
        <ele>1185.9235839844</ele>
        <time>2016-05-28T10:20:54Z</time>
      </trkpt>
      <trkpt lat="45.62619" lon="6.81771">
        <ele>1184.9624023438</ele>
        <time>2016-05-28T10:20:56Z</time>
      </trkpt>
      <trkpt lat="45.62634" lon="6.81748">
        <ele>1183.0395507812</ele>
        <time>2016-05-28T10:20:58Z</time>
      </trkpt>
      <trkpt lat="45.62669" lon="6.81688">
        <ele>1180.6364746094</ele>
        <time>2016-05-28T10:21:03Z</time>
      </trkpt>
      <trkpt lat="45.62693" lon="6.81636">
        <ele>1177.2717285156</ele>
        <time>2016-05-28T10:21:07Z</time>
      </trkpt>
      <trkpt lat="45.62704" lon="6.81613">
        <ele>1175.8295898438</ele>
        <time>2016-05-28T10:21:09Z</time>
      </trkpt>
      <trkpt lat="45.62706" lon="6.81589">
        <ele>1172.9458007812</ele>
        <time>2016-05-28T10:21:12Z</time>
      </trkpt>
      <trkpt lat="45.62692" lon="6.81587">
        <ele>1172.9458007812</ele>
        <time>2016-05-28T10:21:14Z</time>
      </trkpt>
      <trkpt lat="45.62681" lon="6.81598">
        <ele>1171.5036621094</ele>
        <time>2016-05-28T10:21:16Z</time>
      </trkpt>
      <trkpt lat="45.62652" lon="6.8164">
        <ele>1170.0617675781</ele>
        <time>2016-05-28T10:21:21Z</time>
      </trkpt>
      <trkpt lat="45.62624" lon="6.81676">
        <ele>1168.6198730469</ele>
        <time>2016-05-28T10:21:25Z</time>
      </trkpt>
      <trkpt lat="45.62616" lon="6.81683">
        <ele>1168.6198730469</ele>
        <time>2016-05-28T10:21:26Z</time>
      </trkpt>
      <trkpt lat="45.62609" lon="6.81691">
        <ele>1167.6584472656</ele>
        <time>2016-05-28T10:21:27Z</time>
      </trkpt>
      <trkpt lat="45.62593" lon="6.81706">
        <ele>1167.1779785156</ele>
        <time>2016-05-28T10:21:29Z</time>
      </trkpt>
      <trkpt lat="45.62568" lon="6.81727">
        <ele>1166.2165527344</ele>
        <time>2016-05-28T10:21:32Z</time>
      </trkpt>
      <trkpt lat="45.62529" lon="6.81738">
        <ele>1163.8129882812</ele>
        <time>2016-05-28T10:21:36Z</time>
      </trkpt>
      <trkpt lat="45.62468" lon="6.8174">
        <ele>1160.4484863281</ele>
        <time>2016-05-28T10:21:42Z</time>
      </trkpt>
      <trkpt lat="45.62428" lon="6.81749">
        <ele>1159.0065917969</ele>
        <time>2016-05-28T10:21:46Z</time>
      </trkpt>
      <trkpt lat="45.62366" lon="6.8177">
        <ele>1155.1613769531</ele>
        <time>2016-05-28T10:21:52Z</time>
      </trkpt>
      <trkpt lat="45.62356" lon="6.81775">
        <ele>1154.2001953125</ele>
        <time>2016-05-28T10:21:53Z</time>
      </trkpt>
      <trkpt lat="45.62319" lon="6.81808">
        <ele>1153.2387695312</ele>
        <time>2016-05-28T10:21:57Z</time>
      </trkpt>
      <trkpt lat="45.62297" lon="6.81843">
        <ele>1151.796875</ele>
        <time>2016-05-28T10:22:00Z</time>
      </trkpt>
      <trkpt lat="45.62281" lon="6.81866">
        <ele>1149.3935546875</ele>
        <time>2016-05-28T10:22:02Z</time>
      </trkpt>
      <trkpt lat="45.62241" lon="6.81894">
        <ele>1147.470703125</ele>
        <time>2016-05-28T10:22:06Z</time>
      </trkpt>
      <trkpt lat="45.62219" lon="6.819">
        <ele>1146.9899902344</ele>
        <time>2016-05-28T10:22:08Z</time>
      </trkpt>
      <trkpt lat="45.62182" lon="6.8193">
        <ele>1143.1447753906</ele>
        <time>2016-05-28T10:22:12Z</time>
      </trkpt>
      <trkpt lat="45.62174" lon="6.81941">
        <ele>1143.1447753906</ele>
        <time>2016-05-28T10:22:13Z</time>
      </trkpt>
      <trkpt lat="45.62157" lon="6.81962">
        <ele>1141.7028808594</ele>
        <time>2016-05-28T10:22:15Z</time>
      </trkpt>
      <trkpt lat="45.62101" lon="6.82038">
        <ele>1138.8190917969</ele>
        <time>2016-05-28T10:22:22Z</time>
      </trkpt>
      <trkpt lat="45.62067" lon="6.82081">
        <ele>1134.9738769531</ele>
        <time>2016-05-28T10:22:26Z</time>
      </trkpt>
      <trkpt lat="45.62058" lon="6.8209">
        <ele>1134.4931640625</ele>
        <time>2016-05-28T10:22:27Z</time>
      </trkpt>
      <trkpt lat="45.62031" lon="6.82117">
        <ele>1133.0510253906</ele>
        <time>2016-05-28T10:22:30Z</time>
      </trkpt>
      <trkpt lat="45.62015" lon="6.82139">
        <ele>1132.08984375</ele>
        <time>2016-05-28T10:22:32Z</time>
      </trkpt>
      <trkpt lat="45.6198" lon="6.82197">
        <ele>1129.6862792969</ele>
        <time>2016-05-28T10:22:37Z</time>
      </trkpt>
      <trkpt lat="45.61945" lon="6.82232">
        <ele>1126.3217773438</ele>
        <time>2016-05-28T10:22:41Z</time>
      </trkpt>
      <trkpt lat="45.61917" lon="6.82277">
        <ele>1124.8798828125</ele>
        <time>2016-05-28T10:22:45Z</time>
      </trkpt>
      <trkpt lat="45.6191" lon="6.82302">
        <ele>1121.9958496094</ele>
        <time>2016-05-28T10:22:47Z</time>
      </trkpt>
      <trkpt lat="45.61896" lon="6.82316">
        <ele>1117.669921875</ele>
        <time>2016-05-28T10:22:51Z</time>
      </trkpt>
      <trkpt lat="45.61898" lon="6.82294">
        <ele>1118.1506347656</ele>
        <time>2016-05-28T10:22:53Z</time>
      </trkpt>
      <trkpt lat="45.6191" lon="6.82265">
        <ele>1117.189453125</ele>
        <time>2016-05-28T10:22:56Z</time>
      </trkpt>
      <trkpt lat="45.61938" lon="6.82189">
        <ele>1113.3439941406</ele>
        <time>2016-05-28T10:23:03Z</time>
      </trkpt>
      <trkpt lat="45.6196" lon="6.82148">
        <ele>1111.4213867188</ele>
        <time>2016-05-28T10:23:07Z</time>
      </trkpt>
      <trkpt lat="45.61966" lon="6.82137">
        <ele>1109.9792480469</ele>
        <time>2016-05-28T10:23:08Z</time>
      </trkpt>
      <trkpt lat="45.6199" lon="6.82094">
        <ele>1109.9792480469</ele>
        <time>2016-05-28T10:23:12Z</time>
      </trkpt>
      <trkpt lat="45.62008" lon="6.8206">
        <ele>1107.576171875</ele>
        <time>2016-05-28T10:23:15Z</time>
      </trkpt>
      <trkpt lat="45.62034" lon="6.82011">
        <ele>1106.1340332031</ele>
        <time>2016-05-28T10:23:19Z</time>
      </trkpt>
      <trkpt lat="45.62061" lon="6.81962">
        <ele>1104.2116699219</ele>
        <time>2016-05-28T10:23:23Z</time>
      </trkpt>
      <trkpt lat="45.62078" lon="6.81908">
        <ele>1102.2888183594</ele>
        <time>2016-05-28T10:23:27Z</time>
      </trkpt>
      <trkpt lat="45.62091" lon="6.81835">
        <ele>1098.9240722656</ele>
        <time>2016-05-28T10:23:32Z</time>
      </trkpt>
      <trkpt lat="45.62117" lon="6.81756">
        <ele>1097.962890625</ele>
        <time>2016-05-28T10:23:38Z</time>
      </trkpt>
      <trkpt lat="45.62151" lon="6.81701">
        <ele>1094.1176757812</ele>
        <time>2016-05-28T10:23:43Z</time>
      </trkpt>
      <trkpt lat="45.62159" lon="6.81691">
        <ele>1094.1176757812</ele>
        <time>2016-05-28T10:23:44Z</time>
      </trkpt>
      <trkpt lat="45.62204" lon="6.8165">
        <ele>1091.7143554688</ele>
        <time>2016-05-28T10:23:49Z</time>
      </trkpt>
      <trkpt lat="45.62213" lon="6.81642">
        <ele>1091.7143554688</ele>
        <time>2016-05-28T10:23:50Z</time>
      </trkpt>
      <trkpt lat="45.62239" lon="6.81595">
        <ele>1088.8305664062</ele>
        <time>2016-05-28T10:23:54Z</time>
      </trkpt>
      <trkpt lat="45.62245" lon="6.81565">
        <ele>1087.3884277344</ele>
        <time>2016-05-28T10:23:56Z</time>
      </trkpt>
      <trkpt lat="45.62261" lon="6.81525">
        <ele>1085.4658203125</ele>
        <time>2016-05-28T10:23:59Z</time>
      </trkpt>
      <trkpt lat="45.62279" lon="6.81506">
        <ele>1084.5046386719</ele>
        <time>2016-05-28T10:24:01Z</time>
      </trkpt>
      <trkpt lat="45.62327" lon="6.81467">
        <ele>1080.1784667969</ele>
        <time>2016-05-28T10:24:06Z</time>
      </trkpt>
      <trkpt lat="45.6237" lon="6.81446">
        <ele>1077.7751464844</ele>
        <time>2016-05-28T10:24:10Z</time>
      </trkpt>
      <trkpt lat="45.62381" lon="6.81441">
        <ele>1077.7751464844</ele>
        <time>2016-05-28T10:24:11Z</time>
      </trkpt>
      <trkpt lat="45.62409" lon="6.81415">
        <ele>1075.8525390625</ele>
        <time>2016-05-28T10:24:14Z</time>
      </trkpt>
      <trkpt lat="45.62423" lon="6.81389">
        <ele>1074.8913574219</ele>
        <time>2016-05-28T10:24:16Z</time>
      </trkpt>
      <trkpt lat="45.62436" lon="6.81361">
        <ele>1073.4494628906</ele>
        <time>2016-05-28T10:24:18Z</time>
      </trkpt>
      <trkpt lat="45.62473" lon="6.81322">
        <ele>1070.5654296875</ele>
        <time>2016-05-28T10:24:22Z</time>
      </trkpt>
      <trkpt lat="45.62494" lon="6.81307">
        <ele>1068.162109375</ele>
        <time>2016-05-28T10:24:24Z</time>
      </trkpt>
      <trkpt lat="45.62513" lon="6.81289">
        <ele>1067.6811523438</ele>
        <time>2016-05-28T10:24:26Z</time>
      </trkpt>
      <trkpt lat="45.62544" lon="6.81275">
        <ele>1063.8359375</ele>
        <time>2016-05-28T10:24:29Z</time>
      </trkpt>
      <trkpt lat="45.62554" lon="6.81281">
        <ele>1063.8359375</ele>
        <time>2016-05-28T10:24:30Z</time>
      </trkpt>
      <trkpt lat="45.62584" lon="6.81303">
        <ele>1061.4328613281</ele>
        <time>2016-05-28T10:24:33Z</time>
      </trkpt>
      <trkpt lat="45.62593" lon="6.81308">
        <ele>1061.4328613281</ele>
        <time>2016-05-28T10:24:34Z</time>
      </trkpt>
      <trkpt lat="45.62613" lon="6.81302">
        <ele>1060.4714355469</ele>
        <time>2016-05-28T10:24:36Z</time>
      </trkpt>
      <trkpt lat="45.62633" lon="6.81287">
        <ele>1060.4714355469</ele>
        <time>2016-05-28T10:24:38Z</time>
      </trkpt>
      <trkpt lat="45.62661" lon="6.81262">
        <ele>1056.1455078125</ele>
        <time>2016-05-28T10:24:41Z</time>
      </trkpt>
      <trkpt lat="45.6267" lon="6.81253">
        <ele>1055.6650390625</ele>
        <time>2016-05-28T10:24:42Z</time>
      </trkpt>
      <trkpt lat="45.62683" lon="6.81231">
        <ele>1054.2231445312</ele>
        <time>2016-05-28T10:24:44Z</time>
      </trkpt>
      <trkpt lat="45.6269" lon="6.81203">
        <ele>1053.7424316406</ele>
        <time>2016-05-28T10:24:46Z</time>
      </trkpt>
      <trkpt lat="45.62693" lon="6.81161">
        <ele>1052.3002929688</ele>
        <time>2016-05-28T10:24:49Z</time>
      </trkpt>
      <trkpt lat="45.6269" lon="6.81132">
        <ele>1052.3002929688</ele>
        <time>2016-05-28T10:24:51Z</time>
      </trkpt>
      <trkpt lat="45.62682" lon="6.81089">
        <ele>1049.8969726562</ele>
        <time>2016-05-28T10:24:54Z</time>
      </trkpt>
      <trkpt lat="45.62681" lon="6.81075">
        <ele>1048.935546875</ele>
        <time>2016-05-28T10:24:55Z</time>
      </trkpt>
      <trkpt lat="45.62682" lon="6.80973">
        <ele>1046.0517578125</ele>
        <time>2016-05-28T10:25:02Z</time>
      </trkpt>
      <trkpt lat="45.62683" lon="6.80931">
        <ele>1043.6484375</ele>
        <time>2016-05-28T10:25:05Z</time>
      </trkpt>
      <trkpt lat="45.62672" lon="6.80897">
        <ele>1040.2839355469</ele>
        <time>2016-05-28T10:25:08Z</time>
      </trkpt>
      <trkpt lat="45.62656" lon="6.80903">
        <ele>1038.8420410156</ele>
        <time>2016-05-28T10:25:10Z</time>
      </trkpt>
      <trkpt lat="45.62643" lon="6.80918">
        <ele>1038.361328125</ele>
        <time>2016-05-28T10:25:12Z</time>
      </trkpt>
      <trkpt lat="45.62637" lon="6.80927">
        <ele>1037.3999023438</ele>
        <time>2016-05-28T10:25:13Z</time>
      </trkpt>
      <trkpt lat="45.62621" lon="6.80955">
        <ele>1034.9965820312</ele>
        <time>2016-05-28T10:25:16Z</time>
      </trkpt>
      <trkpt lat="45.62593" lon="6.81006">
        <ele>1034.5158691406</ele>
        <time>2016-05-28T10:25:21Z</time>
      </trkpt>
      <trkpt lat="45.62575" lon="6.81055">
        <ele>1031.1513671875</ele>
        <time>2016-05-28T10:25:25Z</time>
      </trkpt>
      <trkpt lat="45.62567" lon="6.81081">
        <ele>1030.1899414062</ele>
        <time>2016-05-28T10:25:27Z</time>
      </trkpt>
      <trkpt lat="45.6255" lon="6.81136">
        <ele>1029.228515625</ele>
        <time>2016-05-28T10:25:31Z</time>
      </trkpt>
      <trkpt lat="45.62531" lon="6.81158">
        <ele>1025.8640136719</ele>
        <time>2016-05-28T10:25:34Z</time>
      </trkpt>
      <trkpt lat="45.6252" lon="6.81148">
        <ele>1024.9028320312</ele>
        <time>2016-05-28T10:25:36Z</time>
      </trkpt>
      <trkpt lat="45.62515" lon="6.81126">
        <ele>1023.4609375</ele>
        <time>2016-05-28T10:25:38Z</time>
      </trkpt>
      <trkpt lat="45.62506" lon="6.81062">
        <ele>1021.0576171875</ele>
        <time>2016-05-28T10:25:43Z</time>
      </trkpt>
      <trkpt lat="45.62498" lon="6.81007">
        <ele>1019.134765625</ele>
        <time>2016-05-28T10:25:47Z</time>
      </trkpt>
      <trkpt lat="45.62492" lon="6.80965">
        <ele>1016.7314453125</ele>
        <time>2016-05-28T10:25:50Z</time>
      </trkpt>
      <trkpt lat="45.62487" lon="6.80937">
        <ele>1015.7702636719</ele>
        <time>2016-05-28T10:25:52Z</time>
      </trkpt>
      <trkpt lat="45.62478" lon="6.80879">
        <ele>1011.9250488281</ele>
        <time>2016-05-28T10:25:56Z</time>
      </trkpt>
      <trkpt lat="45.62469" lon="6.8082">
        <ele>1010.4829101562</ele>
        <time>2016-05-28T10:26:00Z</time>
      </trkpt>
      <trkpt lat="45.62452" lon="6.80789">
        <ele>1008.5603027344</ele>
        <time>2016-05-28T10:26:03Z</time>
      </trkpt>
      <trkpt lat="45.62436" lon="6.80802">
        <ele>1007.1184082031</ele>
        <time>2016-05-28T10:26:05Z</time>
      </trkpt>
      <trkpt lat="45.6243" lon="6.80813">
        <ele>1006.6376953125</ele>
        <time>2016-05-28T10:26:06Z</time>
      </trkpt>
      <trkpt lat="45.62405" lon="6.80872">
        <ele>1003.2729492188</ele>
        <time>2016-05-28T10:26:11Z</time>
      </trkpt>
      <trkpt lat="45.624" lon="6.80885">
        <ele>1003.2729492188</ele>
        <time>2016-05-28T10:26:12Z</time>
      </trkpt>
      <trkpt lat="45.62362" lon="6.80976">
        <ele>1000.8696289062</ele>
        <time>2016-05-28T10:26:19Z</time>
      </trkpt>
      <trkpt lat="45.62351" lon="6.81001">
        <ele>1000.3891601562</ele>
        <time>2016-05-28T10:26:21Z</time>
      </trkpt>
      <trkpt lat="45.62329" lon="6.81054">
        <ele>997.0244140625</ele>
        <time>2016-05-28T10:26:25Z</time>
      </trkpt>
      <trkpt lat="45.6232" lon="6.81078">
        <ele>993.17919921875</ele>
        <time>2016-05-28T10:26:27Z</time>
      </trkpt>
      <trkpt lat="45.62305" lon="6.81095">
        <ele>991.7373046875</ele>
        <time>2016-05-28T10:26:30Z</time>
      </trkpt>
      <trkpt lat="45.62295" lon="6.81082">
        <ele>991.25659179688</ele>
        <time>2016-05-28T10:26:32Z</time>
      </trkpt>
      <trkpt lat="45.62293" lon="6.81073">
        <ele>988.853515625</ele>
        <time>2016-05-28T10:26:33Z</time>
      </trkpt>
      <trkpt lat="45.62284" lon="6.81007">
        <ele>986.93041992188</ele>
        <time>2016-05-28T10:26:39Z</time>
      </trkpt>
      <trkpt lat="45.62275" lon="6.80944">
        <ele>983.08520507812</ele>
        <time>2016-05-28T10:26:44Z</time>
      </trkpt>
      <trkpt lat="45.62273" lon="6.80931">
        <ele>983.08520507812</ele>
        <time>2016-05-28T10:26:45Z</time>
      </trkpt>
      <trkpt lat="45.62264" lon="6.80861">
        <ele>980.20141601562</ele>
        <time>2016-05-28T10:26:50Z</time>
      </trkpt>
      <trkpt lat="45.62259" lon="6.80822">
        <ele>977.79809570312</ele>
        <time>2016-05-28T10:26:53Z</time>
      </trkpt>
      <trkpt lat="45.62253" lon="6.80804">
        <ele>976.8369140625</ele>
        <time>2016-05-28T10:26:55Z</time>
      </trkpt>
      <trkpt lat="45.62241" lon="6.80803">
        <ele>975.39477539062</ele>
        <time>2016-05-28T10:26:57Z</time>
      </trkpt>
      <trkpt lat="45.62229" lon="6.80815">
        <ele>973.95288085938</ele>
        <time>2016-05-28T10:26:59Z</time>
      </trkpt>
      <trkpt lat="45.62227" lon="6.80824">
        <ele>973.47241210938</ele>
        <time>2016-05-28T10:27:00Z</time>
      </trkpt>
      <trkpt lat="45.62211" lon="6.80906">
        <ele>970.58813476562</ele>
        <time>2016-05-28T10:27:08Z</time>
      </trkpt>
      <trkpt lat="45.6219" lon="6.81005">
        <ele>969.626953125</ele>
        <time>2016-05-28T10:27:17Z</time>
      </trkpt>
      <trkpt lat="45.62185" lon="6.81028">
        <ele>968.66552734375</ele>
        <time>2016-05-28T10:27:19Z</time>
      </trkpt>
      <trkpt lat="45.62163" lon="6.8106">
        <ele>967.2236328125</ele>
        <time>2016-05-28T10:27:23Z</time>
      </trkpt>
      <trkpt lat="45.62145" lon="6.81056">
        <ele>966.74291992188</ele>
        <time>2016-05-28T10:27:25Z</time>
      </trkpt>
      <trkpt lat="45.62131" lon="6.8104">
        <ele>965.78173828125</ele>
        <time>2016-05-28T10:27:27Z</time>
      </trkpt>
      <trkpt lat="45.62126" lon="6.81001">
        <ele>964.33959960938</ele>
        <time>2016-05-28T10:27:30Z</time>
      </trkpt>
      <trkpt lat="45.62123" lon="6.80933">
        <ele>962.89770507812</ele>
        <time>2016-05-28T10:27:35Z</time>
      </trkpt>
      <trkpt lat="45.6212" lon="6.80878">
        <ele>961.45581054688</ele>
        <time>2016-05-28T10:27:39Z</time>
      </trkpt>
      <trkpt lat="45.62114" lon="6.80791">
        <ele>958.09130859375</ele>
        <time>2016-05-28T10:27:45Z</time>
      </trkpt>
      <trkpt lat="45.6211" lon="6.80732">
        <ele>956.64916992188</ele>
        <time>2016-05-28T10:27:49Z</time>
      </trkpt>
      <trkpt lat="45.62103" lon="6.80627">
        <ele>953.76513671875</ele>
        <time>2016-05-28T10:27:56Z</time>
      </trkpt>
      <trkpt lat="45.62101" lon="6.80597">
        <ele>952.8037109375</ele>
        <time>2016-05-28T10:27:58Z</time>
      </trkpt>
      <trkpt lat="45.62096" lon="6.80522">
        <ele>949.919921875</ele>
        <time>2016-05-28T10:28:03Z</time>
      </trkpt>
      <trkpt lat="45.62097" lon="6.80463">
        <ele>949.43920898438</ele>
        <time>2016-05-28T10:28:07Z</time>
      </trkpt>
      <trkpt lat="45.62107" lon="6.80407">
        <ele>945.59399414062</ele>
        <time>2016-05-28T10:28:11Z</time>
      </trkpt>
      <trkpt lat="45.62131" lon="6.8033">
        <ele>941.74877929688</ele>
        <time>2016-05-28T10:28:17Z</time>
      </trkpt>
      <trkpt lat="45.62146" lon="6.80282">
        <ele>938.38403320312</ele>
        <time>2016-05-28T10:28:21Z</time>
      </trkpt>
      <trkpt lat="45.62174" lon="6.80204">
        <ele>937.42260742188</ele>
        <time>2016-05-28T10:28:28Z</time>
      </trkpt>
      <trkpt lat="45.6218" lon="6.80185">
        <ele>933.57739257812</ele>
        <time>2016-05-28T10:28:30Z</time>
      </trkpt>
      <trkpt lat="45.62184" lon="6.8017">
        <ele>933.0966796875</ele>
        <time>2016-05-28T10:28:32Z</time>
      </trkpt>
      <trkpt lat="45.62186" lon="6.80163">
        <ele>931.65478515625</ele>
        <time>2016-05-28T10:28:33Z</time>
      </trkpt>
      <trkpt lat="45.62194" lon="6.8012">
        <ele>929.25146484375</ele>
        <time>2016-05-28T10:28:38Z</time>
      </trkpt>
      <trkpt lat="45.62203" lon="6.80095">
        <ele>929.25146484375</ele>
        <time>2016-05-28T10:28:41Z</time>
      </trkpt>
      <trkpt lat="45.62233" lon="6.80038">
        <ele>927.8095703125</ele>
        <time>2016-05-28T10:28:49Z</time>
      </trkpt>
      <trkpt lat="45.62262" lon="6.7999">
        <ele>925.40625</ele>
        <time>2016-05-28T10:28:56Z</time>
      </trkpt>
      <trkpt lat="45.62291" lon="6.79962">
        <ele>925.88696289062</ele>
        <time>2016-05-28T10:29:01Z</time>
      </trkpt>
      <trkpt lat="45.62296" lon="6.79954">
        <ele>924.92578125</ele>
        <time>2016-05-28T10:29:02Z</time>
      </trkpt>
      <trkpt lat="45.62319" lon="6.79895">
        <ele>923.96411132812</ele>
        <time>2016-05-28T10:29:08Z</time>
      </trkpt>
      <trkpt lat="45.62343" lon="6.79849">
        <ele>922.04150390625</ele>
        <time>2016-05-28T10:29:14Z</time>
      </trkpt>
      <trkpt lat="45.62347" lon="6.79841">
        <ele>921.08032226562</ele>
        <time>2016-05-28T10:29:15Z</time>
      </trkpt>
      <trkpt lat="45.62366" lon="6.79799">
        <ele>919.63842773438</ele>
        <time>2016-05-28T10:29:21Z</time>
      </trkpt>
      <trkpt lat="45.62367" lon="6.79795">
        <ele>918.1962890625</ele>
        <time>2016-05-28T10:29:22Z</time>
      </trkpt>
      <trkpt lat="45.62372" lon="6.79794">
        <ele>918.1962890625</ele>
        <time>2016-05-28T10:29:27Z</time>
      </trkpt>
      <trkpt lat="45.62377" lon="6.79796">
        <ele>918.1962890625</ele>
        <time>2016-05-28T10:29:33Z</time>
      </trkpt>
      <trkpt lat="45.60073" lon="6.76143">
        <ele>799.4736328125</ele>
        <time>2016-05-28T10:51:36Z</time>
      </trkpt>
      <trkpt lat="45.60072" lon="6.76126">
        <ele>798.99291992188</ele>
        <time>2016-05-28T10:51:37Z</time>
      </trkpt>
      <trkpt lat="45.60074" lon="6.76108">
        <ele>798.99291992188</ele>
        <time>2016-05-28T10:51:39Z</time>
      </trkpt>
      <trkpt lat="45.60069" lon="6.76071">
        <ele>798.51220703125</ele>
        <time>2016-05-28T10:51:43Z</time>
      </trkpt>
      <trkpt lat="45.60066" lon="6.76064">
        <ele>798.51220703125</ele>
        <time>2016-05-28T10:51:44Z</time>
      </trkpt>
      <trkpt lat="45.60047" lon="6.76025">
        <ele>797.55102539062</ele>
        <time>2016-05-28T10:51:50Z</time>
      </trkpt>
      <trkpt lat="45.60013" lon="6.75987">
        <ele>797.55102539062</ele>
        <time>2016-05-28T10:51:58Z</time>
      </trkpt>
      <trkpt lat="45.59992" lon="6.75961">
        <ele>798.03173828125</ele>
        <time>2016-05-28T10:52:03Z</time>
      </trkpt>
      <trkpt lat="45.59963" lon="6.75938">
        <ele>797.55102539062</ele>
        <time>2016-05-28T10:52:09Z</time>
      </trkpt>
      <trkpt lat="45.59954" lon="6.75915">
        <ele>796.58984375</ele>
        <time>2016-05-28T10:52:12Z</time>
      </trkpt>
      <trkpt lat="45.59937" lon="6.75892">
        <ele>796.10913085938</ele>
        <time>2016-05-28T10:52:15Z</time>
      </trkpt>
      <trkpt lat="45.59916" lon="6.75887">
        <ele>795.1474609375</ele>
        <time>2016-05-28T10:52:18Z</time>
      </trkpt>
      <trkpt lat="45.59903" lon="6.75889">
        <ele>795.62817382812</ele>
        <time>2016-05-28T10:52:20Z</time>
      </trkpt>
      <trkpt lat="45.59888" lon="6.7588">
        <ele>795.62817382812</ele>
        <time>2016-05-28T10:52:23Z</time>
      </trkpt>
      <trkpt lat="45.59885" lon="6.75872">
        <ele>794.18627929688</ele>
        <time>2016-05-28T10:52:24Z</time>
      </trkpt>
      <trkpt lat="45.5988" lon="6.75854">
        <ele>793.70556640625</ele>
        <time>2016-05-28T10:52:26Z</time>
      </trkpt>
      <trkpt lat="45.59857" lon="6.75815">
        <ele>792.74438476562</ele>
        <time>2016-05-28T10:52:31Z</time>
      </trkpt>
      <trkpt lat="45.59844" lon="6.75803">
        <ele>793.22485351562</ele>
        <time>2016-05-28T10:52:33Z</time>
      </trkpt>
      <trkpt lat="45.5983" lon="6.75766">
        <ele>791.78295898438</ele>
        <time>2016-05-28T10:52:37Z</time>
      </trkpt>
      <trkpt lat="45.59812" lon="6.75733">
        <ele>791.30224609375</ele>
        <time>2016-05-28T10:52:41Z</time>
      </trkpt>
      <trkpt lat="45.59807" lon="6.75725">
        <ele>789.8603515625</ele>
        <time>2016-05-28T10:52:42Z</time>
      </trkpt>
      <trkpt lat="45.59798" lon="6.75675">
        <ele>788.89916992188</ele>
        <time>2016-05-28T10:52:47Z</time>
      </trkpt>
      <trkpt lat="45.59799" lon="6.75653">
        <ele>789.37963867188</ele>
        <time>2016-05-28T10:52:49Z</time>
      </trkpt>
      <trkpt lat="45.59789" lon="6.75614">
        <ele>787.93774414062</ele>
        <time>2016-05-28T10:52:53Z</time>
      </trkpt>
      <trkpt lat="45.59775" lon="6.75576">
        <ele>788.41845703125</ele>
        <time>2016-05-28T10:52:57Z</time>
      </trkpt>
      <trkpt lat="45.59747" lon="6.75517">
        <ele>786.01513671875</ele>
        <time>2016-05-28T10:53:04Z</time>
      </trkpt>
      <trkpt lat="45.59738" lon="6.75502">
        <ele>786.01513671875</ele>
        <time>2016-05-28T10:53:06Z</time>
      </trkpt>
      <trkpt lat="45.59714" lon="6.75486">
        <ele>784.5732421875</ele>
        <time>2016-05-28T10:53:10Z</time>
      </trkpt>
      <trkpt lat="45.59694" lon="6.75484">
        <ele>785.53442382812</ele>
        <time>2016-05-28T10:53:13Z</time>
      </trkpt>
      <trkpt lat="45.5966" lon="6.75457">
        <ele>784.09252929688</ele>
        <time>2016-05-28T10:53:19Z</time>
      </trkpt>
      <trkpt lat="45.59631" lon="6.75441">
        <ele>783.61181640625</ele>
        <time>2016-05-28T10:53:23Z</time>
      </trkpt>
      <trkpt lat="45.59606" lon="6.75427">
        <ele>783.61181640625</ele>
        <time>2016-05-28T10:53:27Z</time>
      </trkpt>
      <trkpt lat="45.59575" lon="6.7541">
        <ele>785.53442382812</ele>
        <time>2016-05-28T10:53:32Z</time>
      </trkpt>
      <trkpt lat="45.59571" lon="6.75403">
        <ele>785.53442382812</ele>
        <time>2016-05-28T10:53:33Z</time>
      </trkpt>
      <trkpt lat="45.59555" lon="6.75387">
        <ele>786.01513671875</ele>
        <time>2016-05-28T10:53:36Z</time>
      </trkpt>
      <trkpt lat="45.59543" lon="6.75378">
        <ele>785.53442382812</ele>
        <time>2016-05-28T10:53:38Z</time>
      </trkpt>
      <trkpt lat="45.59516" lon="6.75348">
        <ele>784.5732421875</ele>
        <time>2016-05-28T10:53:43Z</time>
      </trkpt>
      <trkpt lat="45.5949" lon="6.75314">
        <ele>782.169921875</ele>
        <time>2016-05-28T10:53:48Z</time>
      </trkpt>
      <trkpt lat="45.59454" lon="6.75277">
        <ele>781.20874023438</ele>
        <time>2016-05-28T10:53:54Z</time>
      </trkpt>
      <trkpt lat="45.59438" lon="6.75255">
        <ele>781.68920898438</ele>
        <time>2016-05-28T10:53:57Z</time>
      </trkpt>
      <trkpt lat="45.59418" lon="6.75212">
        <ele>780.72802734375</ele>
        <time>2016-05-28T10:54:02Z</time>
      </trkpt>
      <trkpt lat="45.59396" lon="6.75194">
        <ele>781.20874023438</ele>
        <time>2016-05-28T10:54:06Z</time>
      </trkpt>
      <trkpt lat="45.59383" lon="6.7519">
        <ele>780.72802734375</ele>
        <time>2016-05-28T10:54:08Z</time>
      </trkpt>
      <trkpt lat="45.59365" lon="6.75186">
        <ele>780.72802734375</ele>
        <time>2016-05-28T10:54:11Z</time>
      </trkpt>
      <trkpt lat="45.59316" lon="6.7516">
        <ele>780.24731445312</ele>
        <time>2016-05-28T10:54:19Z</time>
      </trkpt>
      <trkpt lat="45.59285" lon="6.75152">
        <ele>780.24731445312</ele>
        <time>2016-05-28T10:54:24Z</time>
      </trkpt>
      <trkpt lat="45.59262" lon="6.75137">
        <ele>779.28564453125</ele>
        <time>2016-05-28T10:54:28Z</time>
      </trkpt>
      <trkpt lat="45.59258" lon="6.7513">
        <ele>779.28564453125</ele>
        <time>2016-05-28T10:54:29Z</time>
      </trkpt>
      <trkpt lat="45.59226" lon="6.75081">
        <ele>778.80517578125</ele>
        <time>2016-05-28T10:54:36Z</time>
      </trkpt>
      <trkpt lat="45.59188" lon="6.75036">
        <ele>778.32446289062</ele>
        <time>2016-05-28T10:54:43Z</time>
      </trkpt>
      <trkpt lat="45.59177" lon="6.75024">
        <ele>778.32446289062</ele>
        <time>2016-05-28T10:54:45Z</time>
      </trkpt>
      <trkpt lat="45.59145" lon="6.75009">
        <ele>777.36328125</ele>
        <time>2016-05-28T10:54:50Z</time>
      </trkpt>
      <trkpt lat="45.5909" lon="6.75004">
        <ele>776.88256835938</ele>
        <time>2016-05-28T10:54:58Z</time>
      </trkpt>
      <trkpt lat="45.59077" lon="6.75003">
        <ele>776.88256835938</ele>
        <time>2016-05-28T10:55:00Z</time>
      </trkpt>
      <trkpt lat="45.59054" lon="6.74988">
        <ele>775.92114257812</ele>
        <time>2016-05-28T10:55:04Z</time>
      </trkpt>
      <trkpt lat="45.59029" lon="6.74962">
        <ele>775.4404296875</ele>
        <time>2016-05-28T10:55:09Z</time>
      </trkpt>
      <trkpt lat="45.59018" lon="6.74959">
        <ele>775.92114257812</ele>
        <time>2016-05-28T10:55:11Z</time>
      </trkpt>
      <trkpt lat="45.5899" lon="6.74951">
        <ele>775.4404296875</ele>
        <time>2016-05-28T10:55:17Z</time>
      </trkpt>
      <trkpt lat="45.5896" lon="6.74934">
        <ele>774.9599609375</ele>
        <time>2016-05-28T10:55:24Z</time>
      </trkpt>
      <trkpt lat="45.58941" lon="6.74921">
        <ele>774.9599609375</ele>
        <time>2016-05-28T10:55:28Z</time>
      </trkpt>
      <trkpt lat="45.58915" lon="6.74917">
        <ele>774.47924804688</ele>
        <time>2016-05-28T10:55:33Z</time>
      </trkpt>
      <trkpt lat="45.5891" lon="6.74916">
        <ele>774.47924804688</ele>
        <time>2016-05-28T10:55:34Z</time>
      </trkpt>
      <trkpt lat="45.58894" lon="6.74911">
        <ele>773.99853515625</ele>
        <time>2016-05-28T10:55:37Z</time>
      </trkpt>
      <trkpt lat="45.58873" lon="6.74915">
        <ele>774.9599609375</ele>
        <time>2016-05-28T10:55:41Z</time>
      </trkpt>
      <trkpt lat="45.58834" lon="6.74914">
        <ele>773.03735351562</ele>
        <time>2016-05-28T10:55:48Z</time>
      </trkpt>
      <trkpt lat="45.58829" lon="6.74914">
        <ele>773.03735351562</ele>
        <time>2016-05-28T10:55:49Z</time>
      </trkpt>
      <trkpt lat="45.58786" lon="6.74917">
        <ele>772.556640625</ele>
        <time>2016-05-28T10:55:57Z</time>
      </trkpt>
      <trkpt lat="45.58769" lon="6.74916">
        <ele>773.99853515625</ele>
        <time>2016-05-28T10:56:00Z</time>
      </trkpt>
      <trkpt lat="45.58746" lon="6.74909">
        <ele>773.99853515625</ele>
        <time>2016-05-28T10:56:04Z</time>
      </trkpt>
      <trkpt lat="45.58723" lon="6.74905">
        <ele>773.03735351562</ele>
        <time>2016-05-28T10:56:08Z</time>
      </trkpt>
      <trkpt lat="45.58705" lon="6.74906">
        <ele>773.03735351562</ele>
        <time>2016-05-28T10:56:11Z</time>
      </trkpt>
      <trkpt lat="45.58674" lon="6.74901">
        <ele>773.03735351562</ele>
        <time>2016-05-28T10:56:16Z</time>
      </trkpt>
      <trkpt lat="45.58651" lon="6.74901">
        <ele>772.556640625</ele>
        <time>2016-05-28T10:56:20Z</time>
      </trkpt>
      <trkpt lat="45.58617" lon="6.74898">
        <ele>772.07592773438</ele>
        <time>2016-05-28T10:56:26Z</time>
      </trkpt>
      <trkpt lat="45.58612" lon="6.74896">
        <ele>771.59521484375</ele>
        <time>2016-05-28T10:56:27Z</time>
      </trkpt>
      <trkpt lat="45.58598" lon="6.7489">
        <ele>771.59521484375</ele>
        <time>2016-05-28T10:56:30Z</time>
      </trkpt>
      <trkpt lat="45.5858" lon="6.74871">
        <ele>772.07592773438</ele>
        <time>2016-05-28T10:56:34Z</time>
      </trkpt>
      <trkpt lat="45.58555" lon="6.74855">
        <ele>771.59521484375</ele>
        <time>2016-05-28T10:56:39Z</time>
      </trkpt>
      <trkpt lat="45.58527" lon="6.74844">
        <ele>771.11474609375</ele>
        <time>2016-05-28T10:56:44Z</time>
      </trkpt>
      <trkpt lat="45.58505" lon="6.74819">
        <ele>770.63403320312</ele>
        <time>2016-05-28T10:56:49Z</time>
      </trkpt>
      <trkpt lat="45.58486" lon="6.74804">
        <ele>769.6728515625</ele>
        <time>2016-05-28T10:56:53Z</time>
      </trkpt>
      <trkpt lat="45.58437" lon="6.74795">
        <ele>768.71142578125</ele>
        <time>2016-05-28T10:57:01Z</time>
      </trkpt>
      <trkpt lat="45.58403" lon="6.74786">
        <ele>770.1533203125</ele>
        <time>2016-05-28T10:57:07Z</time>
      </trkpt>
      <trkpt lat="45.58378" lon="6.74784">
        <ele>770.1533203125</ele>
        <time>2016-05-28T10:57:11Z</time>
      </trkpt>
      <trkpt lat="45.58343" lon="6.74763">
        <ele>769.19213867188</ele>
        <time>2016-05-28T10:57:18Z</time>
      </trkpt>
      <trkpt lat="45.58324" lon="6.74752">
        <ele>768.71142578125</ele>
        <time>2016-05-28T10:57:22Z</time>
      </trkpt>
      <trkpt lat="45.58285" lon="6.74717">
        <ele>767.75</ele>
        <time>2016-05-28T10:57:30Z</time>
      </trkpt>
      <trkpt lat="45.58241" lon="6.74673">
        <ele>768.23071289062</ele>
        <time>2016-05-28T10:57:39Z</time>
      </trkpt>
      <trkpt lat="45.58236" lon="6.74667">
        <ele>768.71142578125</ele>
        <time>2016-05-28T10:57:40Z</time>
      </trkpt>
      <trkpt lat="45.58219" lon="6.74624">
        <ele>768.23071289062</ele>
        <time>2016-05-28T10:57:46Z</time>
      </trkpt>
      <trkpt lat="45.58213" lon="6.74599">
        <ele>766.78881835938</ele>
        <time>2016-05-28T10:57:49Z</time>
      </trkpt>
      <trkpt lat="45.58206" lon="6.74582">
        <ele>767.26953125</ele>
        <time>2016-05-28T10:57:51Z</time>
      </trkpt>
      <trkpt lat="45.58196" lon="6.74547">
        <ele>765.82763671875</ele>
        <time>2016-05-28T10:57:55Z</time>
      </trkpt>
      <trkpt lat="45.5819" lon="6.74493">
        <ele>766.78881835938</ele>
        <time>2016-05-28T10:58:01Z</time>
      </trkpt>
      <trkpt lat="45.58189" lon="6.74475">
        <ele>767.26953125</ele>
        <time>2016-05-28T10:58:03Z</time>
      </trkpt>
      <trkpt lat="45.5818" lon="6.74442">
        <ele>767.75</ele>
        <time>2016-05-28T10:58:07Z</time>
      </trkpt>
      <trkpt lat="45.5815" lon="6.74377">
        <ele>765.34692382812</ele>
        <time>2016-05-28T10:58:16Z</time>
      </trkpt>
      <trkpt lat="45.58135" lon="6.7434">
        <ele>766.30810546875</ele>
        <time>2016-05-28T10:58:21Z</time>
      </trkpt>
      <trkpt lat="45.58125" lon="6.74318">
        <ele>766.78881835938</ele>
        <time>2016-05-28T10:58:24Z</time>
      </trkpt>
      <trkpt lat="45.58119" lon="6.74285">
        <ele>765.82763671875</ele>
        <time>2016-05-28T10:58:28Z</time>
      </trkpt>
      <trkpt lat="45.5812" lon="6.7427">
        <ele>765.82763671875</ele>
        <time>2016-05-28T10:58:30Z</time>
      </trkpt>
      <trkpt lat="45.58111" lon="6.74228">
        <ele>765.34692382812</ele>
        <time>2016-05-28T10:58:35Z</time>
      </trkpt>
      <trkpt lat="45.58095" lon="6.7418">
        <ele>763.42407226562</ele>
        <time>2016-05-28T10:58:41Z</time>
      </trkpt>
      <trkpt lat="45.58085" lon="6.74155">
        <ele>762.943359375</ele>
        <time>2016-05-28T10:58:44Z</time>
      </trkpt>
      <trkpt lat="45.58061" lon="6.74124">
        <ele>763.42407226562</ele>
        <time>2016-05-28T10:58:49Z</time>
      </trkpt>
      <trkpt lat="45.58054" lon="6.74122">
        <ele>763.42407226562</ele>
        <time>2016-05-28T10:58:50Z</time>
      </trkpt>
      <trkpt lat="45.57988" lon="6.74101">
        <ele>763.42407226562</ele>
        <time>2016-05-28T10:59:00Z</time>
      </trkpt>
      <trkpt lat="45.5794" lon="6.741">
        <ele>761.98217773438</ele>
        <time>2016-05-28T10:59:07Z</time>
      </trkpt>
      <trkpt lat="45.57927" lon="6.74103">
        <ele>761.98217773438</ele>
        <time>2016-05-28T10:59:09Z</time>
      </trkpt>
      <trkpt lat="45.57903" lon="6.74119">
        <ele>761.50146484375</ele>
        <time>2016-05-28T10:59:13Z</time>
      </trkpt>
      <trkpt lat="45.57862" lon="6.74137">
        <ele>759.09814453125</ele>
        <time>2016-05-28T10:59:20Z</time>
      </trkpt>
      <trkpt lat="45.57832" lon="6.7415">
        <ele>759.09814453125</ele>
        <time>2016-05-28T10:59:25Z</time>
      </trkpt>
      <trkpt lat="45.5782" lon="6.74155">
        <ele>759.09814453125</ele>
        <time>2016-05-28T10:59:27Z</time>
      </trkpt>
      <trkpt lat="45.57802" lon="6.74153">
        <ele>759.09814453125</ele>
        <time>2016-05-28T10:59:31Z</time>
      </trkpt>
      <trkpt lat="45.57799" lon="6.7415">
        <ele>759.57885742188</ele>
        <time>2016-05-28T10:59:32Z</time>
      </trkpt>
      <trkpt lat="45.57787" lon="6.74142">
        <ele>761.02075195312</ele>
        <time>2016-05-28T10:59:35Z</time>
      </trkpt>
      <trkpt lat="45.57776" lon="6.74136">
        <ele>762.943359375</ele>
        <time>2016-05-28T10:59:38Z</time>
      </trkpt>
      <trkpt lat="45.57763" lon="6.7413">
        <ele>763.42407226562</ele>
        <time>2016-05-28T10:59:43Z</time>
      </trkpt>
      <trkpt lat="45.5775" lon="6.74124">
        <ele>761.50146484375</ele>
        <time>2016-05-28T10:59:48Z</time>
      </trkpt>
      <trkpt lat="45.5773" lon="6.74117">
        <ele>761.02075195312</ele>
        <time>2016-05-28T10:59:54Z</time>
      </trkpt>
      <trkpt lat="45.57725" lon="6.74115">
        <ele>760.5400390625</ele>
        <time>2016-05-28T10:59:55Z</time>
      </trkpt>
      <trkpt lat="45.57704" lon="6.74099">
        <ele>760.05932617188</ele>
        <time>2016-05-28T11:00:00Z</time>
      </trkpt>
      <trkpt lat="45.57695" lon="6.74089">
        <ele>759.57885742188</ele>
        <time>2016-05-28T11:00:02Z</time>
      </trkpt>
      <trkpt lat="45.57678" lon="6.74054">
        <ele>759.09814453125</ele>
        <time>2016-05-28T11:00:07Z</time>
      </trkpt>
      <trkpt lat="45.5767" lon="6.74015">
        <ele>757.65625</ele>
        <time>2016-05-28T11:00:11Z</time>
      </trkpt>
      <trkpt lat="45.57657" lon="6.73973">
        <ele>756.69482421875</ele>
        <time>2016-05-28T11:00:15Z</time>
      </trkpt>
      <trkpt lat="45.5765" lon="6.73921">
        <ele>757.17553710938</ele>
        <time>2016-05-28T11:00:20Z</time>
      </trkpt>
      <trkpt lat="45.57649" lon="6.73867">
        <ele>756.21411132812</ele>
        <time>2016-05-28T11:00:26Z</time>
      </trkpt>
      <trkpt lat="45.57651" lon="6.73837">
        <ele>756.21411132812</ele>
        <time>2016-05-28T11:00:30Z</time>
      </trkpt>
      <trkpt lat="45.57663" lon="6.73785">
        <ele>756.69482421875</ele>
        <time>2016-05-28T11:00:37Z</time>
      </trkpt>
      <trkpt lat="45.57672" lon="6.73762">
        <ele>756.69482421875</ele>
        <time>2016-05-28T11:00:40Z</time>
      </trkpt>
      <trkpt lat="45.57675" lon="6.73735">
        <ele>757.17553710938</ele>
        <time>2016-05-28T11:00:44Z</time>
      </trkpt>
      <trkpt lat="45.57673" lon="6.73722">
        <ele>756.69482421875</ele>
        <time>2016-05-28T11:00:46Z</time>
      </trkpt>
      <trkpt lat="45.57684" lon="6.737">
        <ele>755.73364257812</ele>
        <time>2016-05-28T11:00:51Z</time>
      </trkpt>
      <trkpt lat="45.5769" lon="6.73687">
        <ele>754.29174804688</ele>
        <time>2016-05-28T11:00:53Z</time>
      </trkpt>
      <trkpt lat="45.57699" lon="6.73632">
        <ele>754.29174804688</ele>
        <time>2016-05-28T11:01:00Z</time>
      </trkpt>
      <trkpt lat="45.57702" lon="6.73596">
        <ele>754.29174804688</ele>
        <time>2016-05-28T11:01:05Z</time>
      </trkpt>
      <trkpt lat="45.57693" lon="6.73552">
        <ele>755.2529296875</ele>
        <time>2016-05-28T11:01:11Z</time>
      </trkpt>
      <trkpt lat="45.57677" lon="6.73506">
        <ele>754.29174804688</ele>
        <time>2016-05-28T11:01:18Z</time>
      </trkpt>
      <trkpt lat="45.57668" lon="6.73479">
        <ele>753.81103515625</ele>
        <time>2016-05-28T11:01:22Z</time>
      </trkpt>
      <trkpt lat="45.57664" lon="6.73445">
        <ele>752.849609375</ele>
        <time>2016-05-28T11:01:28Z</time>
      </trkpt>
      <trkpt lat="45.57658" lon="6.73445">
        <ele>753.33032226562</ele>
        <time>2016-05-28T11:01:30Z</time>
      </trkpt>
      <trkpt lat="45.57645" lon="6.73452">
        <ele>754.77221679688</ele>
        <time>2016-05-28T11:01:33Z</time>
      </trkpt>
      <trkpt lat="45.57635" lon="6.73455">
        <ele>756.69482421875</ele>
        <time>2016-05-28T11:01:36Z</time>
      </trkpt>
      <trkpt lat="45.57631" lon="6.73451">
        <ele>756.69482421875</ele>
        <time>2016-05-28T11:01:39Z</time>
      </trkpt>
      <trkpt lat="45.57628" lon="6.73441">
        <ele>757.17553710938</ele>
        <time>2016-05-28T11:01:44Z</time>
      </trkpt>
      <trkpt lat="45.57625" lon="6.73435">
        <ele>757.17553710938</ele>
        <time>2016-05-28T11:01:46Z</time>
      </trkpt>
      <trkpt lat="45.57622" lon="6.73429">
        <ele>756.69482421875</ele>
        <time>2016-05-28T11:01:48Z</time>
      </trkpt>
      <trkpt lat="45.57624" lon="6.73412">
        <ele>756.21411132812</ele>
        <time>2016-05-28T11:01:52Z</time>
      </trkpt>
      <trkpt lat="45.57627" lon="6.7341">
        <ele>755.73364257812</ele>
        <time>2016-05-28T11:01:55Z</time>
      </trkpt>
      <trkpt lat="45.57627" lon="6.7341">
        <ele>755.73364257812</ele>
        <time>2016-05-28T11:02:00Z</time>
      </trkpt>
    </trkseg>
  </trk>
</gpx>